[[{"header":{"parameterUnit":"m.s-1","parameterCategory":1,"la1":31.0,"la2":29.5877,"lo1":-88.7671,"lo2":-86.6584,"dy":0.0162,"dx":0.0185,"nx":115,"ny":88,"refTime":"2024-09-12T18:00:00:Z","depth":0,"parameterNumber":2,"parameterNumberName":"U-component_of_WINDS"},"data":[0.0,0.0,0.0,0.0,0.0,0.0,0.0,0.0,0.0,0.0,0.0,0.0,0.0,0.0,0.0,0.0,0.0,0.0,0.0,0.0,0.0,0.0,0.0,0.0,0.0,0.0,0.0,0.0,0.0,0.0,0.0,0.0,0.0,0.0,0.0,0.0,0.0,0.0,0.0,0.0,0.0,0.0,0.0,0.0,0.0,0.0,0.0,0.0,0.0,0.0,0.0,0.0,0.0,0.0,0.0,0.0,0.0,0.0,0.0,0.0,0.0,0.0,0.0,0.0,0.0,0.0,0.0,0.0,0.0,0.0,0.0,0.0,0.0,0.0,0.0,0.0,0.0,0.0,0.0,0.0,0.0,0.0,0.0,0.0,0.0,0.0,0.0,0.0,0.0,0.0,0.0,0.0,0.0,0.0,0.0,0.0,0.0,0.0,0.0,0.0,0.0,0.0,0.0,0.0,0.0,0.0,0.0,0.0,0.0,0.0,0.0,0.0,0.0,0.0,0.0,0.0,0.0,0.0,0.0,0.0,0.0,0.0,0.0,0.0,0.0,0.0,0.0,0.0,0.0,0.0,0.0,0.0,0.0,0.0,0.0,0.0,0.0,0.0,0.0,0.0,0.0,0.0,0.0,0.0,0.0,0.0,0.0,0.0,0.0,0.0,0.0,0.0,0.0,0.0,0.0,0.0,0.0,0.0,0.0,0.0,0.0,0.0,0.0,0.0,0.0,0.0,0.0,0.0,0.0,0.0,0.0,0.0,0.0,0.0,0.0,0.0,0.0,0.0,0.0,0.0,0.0,0.0,0.0,0.0,0.0,0.0,0.0,0.0,0.0,0.0,0.0,0.0,0.0,0.0,0.0,0.0,0.0,0.0,0.0,0.0,0.0,0.0,0.0,0.0,0.0,0.0,0.0,0.0,0.0,0.0,0.0,0.0,0.0,0.0,0.0,0.0,0.0,0.0,0.0,0.0,0.0,0.0,0.0,0.0,0.0,0.0,0.0,0.0,0.0,0.0,0.0,0.0,0.0,0.0,0.0,0.0,0.0,0.0,0.0,0.0,0.0,0.0,0.0,0.0,0.0,0.0,0.0,0.0,0.0,0.0,0.0,0.0,0.0,0.0,0.0,0.0,0.0,0.0,0.0,0.0,0.0,0.0,0.0,0.0,0.0,0.0,0.0,0.0,0.0,0.0,0.0,0.0,0.0,0.0,0.0,0.0,0.0,0.0,0.0,0.0,0.0,0.0,0.0,0.0,0.0,0.0,0.0,0.0,0.0,0.0,0.0,0.0,0.0,0.0,0.0,0.0,0.0,0.0,0.0,0.0,0.0,0.0,0.0,0.0,0.0,0.0,0.0,0.0,0.0,0.0,0.0,0.0,0.0,0.0,0.0,0.0,0.0,0.0,0.0,0.0,0.0,0.0,0.0,0.0,0.0,0.0,0.0,0.0,0.0,0.0,0.0,0.0,0.0,0.0,0.0,0.0,0.0,0.0,0.0,0.0,0.0,0.0,0.0,0.0,0.0,0.0,0.0,0.0,0.0,0.0,0.0,0.0,0.0,0.0,0.0,0.0,0.0,0.0,0.0,0.0,0.0,0.0,0.0,0.0,0.0,0.0,0.0,0.0,0.0,0.0,0.0,0.0,0.0,0.0,0.0,0.0,0.0,0.0,0.0,0.0,0.0,0.0,0.0,0.0,0.0,0.0,0.0,0.0,0.0,0.0,0.0,0.0,0.0,0.0,0.0,0.0,0.0,0.0,0.0,0.0,0.0,0.0,0.0,0.0,0.0,0.0,0.0,0.0,0.0,0.0,0.0,0.0,0.0,0.0,0.0,0.0,0.0,0.0,0.0,0.0,0.0,0.0,0.0,0.0,0.0,0.0,0.0,0.0,0.0,0.0,0.0,0.0,0.0,0.0,0.0,0.0,0.0,0.0,0.0,0.0,0.0,0.0,0.0,0.0,0.0,0.0,0.0,0.0,0.0,0.0,0.0,0.0,0.0,0.0,0.0,0.0,0.0,0.0,0.0,0.0,0.0,0.0,0.0,0.0,0.0,0.0,0.0,0.0,0.0,0.0,0.0,0.0,0.0,0.0,0.0,0.0,0.0,0.0,0.0,0.0,0.0,0.0,0.0,0.0,0.0,0.0,0.0,0.0,0.0,0.0,0.0,0.0,0.0,0.0,0.0,0.0,0.0,0.0,0.0,0.0,0.0,0.0,0.0,0.0,0.0,0.0,0.0,0.0,0.0,0.0,0.0,0.0,0.0,0.0,0.0,0.0,0.0,0.0,0.0,0.0,0.0,0.0,0.0,0.0,0.0,0.0,0.0,0.0,0.0,0.0,0.0,0.0,0.0,0.0,0.0,0.0,0.0,0.0,0.0,0.0,0.0,0.0,0.0,0.0,0.0,0.0,0.0,0.0,0.0,0.0,0.0,0.0,0.0,0.0,0.0,0.0,0.0,0.0,0.0,0.0,0.0,0.0,0.0,0.0,0.0,0.0,0.0,0.0,0.0,0.0,0.0,0.0,0.0,0.0,0.0,0.0,0.0,0.0,0.0,0.0,0.0,0.0,0.0,0.0,0.0,0.0,0.0,0.0,0.0,0.0,0.0,0.0,0.0,0.0,0.0,0.0,0.0,0.0,0.0,0.0,0.0,0.0,0.0,0.0,0.0,0.0,0.0,0.0,0.0,0.0,0.0,0.0,0.0,0.0,0.0,0.0,0.0,0.0,0.0,0.0,0.0,0.0,0.0,0.0,0.0,0.0,0.0,0.0,0.0,0.0,0.0,0.0,0.0,0.0,0.0,0.0,0.0,0.0,0.0,0.0,0.0,0.0,0.0,0.0,0.0,0.0,0.0,0.0,0.0,0.0,0.0,0.0,0.0,0.0,0.0,0.0,0.0,0.0,0.0,0.0,0.0,0.0,0.0,0.0,0.0,0.0,0.0,0.0,0.0,0.0,0.0,0.0,0.0,0.0,0.0,0.0,0.0,0.0,0.0,0.0,0.0,0.0,0.0,0.0,0.0,0.0,0.0,0.0,0.0,0.0,0.0,0.0,0.0,0.0,0.0,0.0,0.0,0.0,0.0,0.0,0.0,0.0,0.0,0.0,0.0,0.0,0.0,0.0,0.0,0.0,0.0,0.0,0.0,0.0,0.0,0.0,0.0,0.0,0.0,0.0,0.0,0.0,0.0,0.0,0.0,0.0,0.0,0.0,0.0,0.0,0.0,0.0,0.0,0.0,0.0,0.0,0.0,0.0,0.0,0.0,0.0,0.0,0.0,0.0,0.0,0.0,0.0,0.0,0.0,0.0,0.0,0.0,0.0,0.0,0.0,0.0,0.0,0.0,0.0,0.0,0.0,0.0,0.0,0.0,0.0,0.0,0.0,0.0,0.0,0.0,0.0,0.0,0.0,0.0,0.0,0.0,0.0,0.0,0.0,0.0,0.0,0.0,0.0,0.0,0.0,0.0,0.0,0.0,0.0,0.0,0.0,0.0,0.0,0.0,0.0,0.0,0.0,0.0,0.0,0.0,0.0,0.0,0.0,0.0,0.0,0.0,0.0,0.0,0.0,0.0,0.0,0.0,0.0,0.0,0.0,0.0,0.0,0.0,0.0,0.0,0.0,0.0,0.0,0.0,0.0,0.0,0.0,0.0,0.0,0.0,0.0,0.0,0.0,0.0,0.0,0.0,0.0,0.0,0.0,0.0,0.0,0.0,0.0,0.0,0.0,0.0,0.0,0.0,0.0,0.0,0.0,0.0,0.0,0.0,0.0,0.0,0.0,0.0,0.0,0.0,0.0,0.0,0.0,0.0,0.0,0.0,0.0,0.0,0.0,0.0,0.0,0.0,0.0,0.0,0.0,0.0,0.0,0.0,0.0,0.0,0.0,0.0,0.0,0.0,0.0,0.0,0.0,0.0,0.0,0.0,0.0,0.0,0.0,0.0,0.0,0.0,0.0,0.0,0.0,0.0,0.0,0.0,0.0,0.0,0.0,0.0,0.0,0.0,0.0,0.0,0.0,0.0,0.0,0.0,0.0,0.0,0.0,0.0,0.0,0.0,0.0,0.0,0.0,0.0,0.0,0.0,0.0,0.0,0.0,0.0,0.0,0.0,0.0,0.0,0.0,0.0,0.0,0.0,0.0,0.0,0.0,0.0,0.0,0.0,0.0,0.0,0.0,0.0,0.0,0.0,0.0,0.0,0.0,0.0,0.0,0.0,0.0,0.0,0.0,0.0,0.0,0.0,0.0,0.0,0.0,0.0,0.4718,0.0,0.0,0.0,0.0,0.0,0.0,0.0,0.0,0.0,0.0,0.0,0.0,0.0,0.0,0.0,0.0,0.0,0.0,0.0,0.0,0.0,0.0,0.0,0.0,0.0,0.0,0.0,0.0,0.0,0.0,0.0,0.0,0.0,0.0,0.0,0.0,0.0,0.0,0.0,0.0,0.0,0.0,0.0,0.0,0.0,0.0,0.0,0.0,0.0,0.0,0.0,0.0,0.0,0.0,0.0,0.0,0.0,0.0,0.0,0.0,0.0,0.0,0.0,0.0,0.0,0.0,0.0,0.0,0.0,0.0,0.0,0.0,0.0,0.0,0.0,0.0,0.0,0.0,0.0,0.0,0.0,0.0,0.0,0.0,0.0,0.0,0.0,0.0,0.0,0.0,0.0,0.0,0.0,0.0,0.0,0.0,0.0,0.0,0.0,0.0,0.0,0.0,0.0,0.0,0.0,0.0,0.0,0.0,0.0,0.0,0.5105,0.5529,0.5163,0.5084,0.5323,0.0,0.0,0.0,0.0,0.0,0.0,0.0,0.0,0.0,0.0,0.0,0.0,0.0,0.0,0.0,0.0,0.0,0.0,0.0,0.0,0.0,0.0,0.0,0.0,0.0,0.0,0.0,0.0,0.0,0.0,0.0,0.0,0.0,0.0,0.0,0.0,0.0,0.0,0.0,0.0,0.0,0.0,0.0,0.0,0.0,0.0,0.0,0.0,0.0,0.0,0.0,0.0,0.0,0.0,0.0,0.0,0.0,0.0,0.0,0.0,0.0,0.0,0.0,0.0,0.0,0.0,0.0,0.0,0.0,0.0,0.0,0.0,0.0,0.0,0.0,0.0,0.0,0.0,0.0,0.0,0.0,0.0,0.0,0.0,0.0,0.0,0.0,0.0,0.0,0.0,0.0,0.0,0.0,0.0,0.0,0.0,0.0,0.0,0.0,0.0,0.0,0.0,0.0,0.0,0.0,0.0,0.0,0.0,0.0,0.0,0.0,0.0,0.5963,0.6158,0.6321,0.0,0.0,0.0,0.0,0.0,0.0,0.0,0.0,0.0,0.0,0.0,0.0,0.0,0.0,0.0,0.0,0.0,0.0,0.0,0.0,0.0,0.0,0.0,0.0,0.0,0.0,0.0,0.0,0.0,0.0,0.0,0.0,0.0,0.0,0.0,0.0,0.0,0.0,0.0,0.0,0.0,0.0,0.0,0.0,0.0,0.0,0.0,0.0,0.0,0.0,0.0,0.0,0.0,0.0,0.0,0.0,0.0,0.0,0.0,0.0,0.0,0.0,0.0,0.0,0.0,0.0,0.0,0.0,0.0,0.0,0.0,0.0,0.0,0.0,0.0,0.0,0.0,0.0,0.0,0.0,0.0,0.0,0.0,0.0,0.0,0.0,0.0,0.0,0.0,0.0,0.0,0.0,0.0,0.0,0.0,0.0,0.0,0.0,0.0,0.0,0.0,0.0,0.0,0.0,0.0,0.0,0.0,0.0,0.0,0.0,0.5126,0.5692,0.6253,0.0,0.807,0.0,0.0,0.0,0.0,0.0,0.0,0.0,0.0,0.0,0.0,0.0,0.0,0.0,0.0,0.0,0.0,0.0,0.0,0.0,0.0,0.0,0.0,0.0,0.0,0.0,0.0,0.0,0.0,0.0,0.0,0.0,0.0,0.0,0.0,0.0,0.0,0.0,0.0,0.0,0.0,0.0,0.0,0.0,0.0,0.0,0.0,0.0,0.0,0.0,0.0,0.0,0.0,0.0,0.0,0.0,0.0,0.0,0.0,0.0,0.0,0.0,0.0,0.0,0.0,0.0,0.0,0.0,0.0,0.0,0.0,0.0,0.0,0.0,0.0,0.0,0.0,0.0,0.0,0.0,0.0,0.0,0.0,0.0,0.0,0.0,0.0,0.0,0.0,0.0,0.0,0.0,0.0,0.0,0.0,0.0,0.0,0.0,0.0,0.0,0.0,0.0,0.0,0.0,0.0,0.0,0.0,0.0,0.0,0.0,0.0,0.5884,0.6163,0.6457,0.6873,0.0,0.0,0.0,0.0,0.0,0.0,0.0,0.0,0.0,0.0,0.0,0.0,0.0,0.0,0.0,0.0,0.0,0.0,0.0,0.0,0.0,0.0,0.0,0.0,0.0,0.0,0.0,0.0,0.0,0.0,0.0,0.0,0.0,0.0,0.0,0.0,0.0,0.0,0.0,0.0,0.0,0.0,0.0,0.0,0.0,0.0,0.0,0.0,0.0,0.0,0.0,0.0,0.0,0.0,0.0,0.0,0.0,0.0,0.0,0.0,0.0,0.0,0.0,0.0,0.0,0.0,0.0,0.0,0.0,0.0,0.0,0.0,0.0,0.0,0.0,0.0,0.0,0.0,0.0,0.0,0.0,0.0,0.0,0.0,0.0,0.0,0.0,0.0,0.0,0.0,0.0,0.0,0.0,0.0,0.0,0.0,0.0,0.0,0.0,0.0,0.0,0.0,0.0,0.0,0.0,0.0,0.0,0.0,0.0,0.0,0.6299,0.6586,0.6918,0.7187,0.7272,0.7186,0.0,0.0,0.0,0.0,0.0,0.0,0.0,0.0,0.0,0.0,0.0,0.0,0.0,0.0,0.0,0.0,0.0,0.0,0.0,0.0,0.0,0.0,0.0,0.0,0.0,0.0,0.0,0.0,0.0,0.0,0.0,0.0,0.0,0.0,0.0,0.0,0.0,0.0,0.0,0.0,0.0,0.0,0.0,0.0,0.0,0.0,0.0,0.0,0.0,0.0,0.0,0.0,0.0,0.0,0.0,0.0,0.0,0.0,0.0,0.0,0.0,0.0,0.0,0.0,0.0,0.0,0.0,0.0,0.0,0.0,0.0,0.0,0.0,0.0,0.0,0.0,0.0,0.0,0.0,0.0,0.0,0.0,0.0,0.0,0.0,0.0,0.0,0.0,0.0,0.0,0.0,0.0,0.0,0.0,0.0,0.0,0.0,0.0,0.0,0.0,0.0,0.0,0.0,0.0,0.0,0.0,0.0,0.0,0.706,0.6763,0.7047,0.7915,0.8653,0.8706,0.0,0.0,0.0,0.0,0.0,0.0,0.0,0.0,0.0,0.0,0.0,0.0,0.0,0.0,0.0,0.0,0.0,0.0,0.0,0.0,0.0,0.0,0.0,0.0,0.0,0.0,0.0,0.0,0.0,0.0,0.0,0.0,0.0,0.0,0.0,0.0,0.0,0.0,0.0,0.0,0.0,0.0,0.0,0.0,0.0,0.0,0.0,0.0,0.0,0.0,0.0,0.0,0.0,0.0,0.0,0.0,0.0,0.0,0.0,0.0,0.0,0.0,0.0,0.0,0.0,0.0,0.0,0.0,0.0,0.0,0.0,0.0,0.0,0.0,0.0,0.0,0.0,0.0,0.0,0.0,0.0,0.0,0.0,0.0,0.0,0.0,0.0,0.0,0.0,0.0,0.0,0.0,0.0,0.0,0.0,0.0,0.0,0.0,0.0,0.0,0.0,0.0,0.0,0.0,0.0,0.0,0.0,0.0,0.0,0.6807,0.7286,0.7822,0.8369,0.8231,0.796,0.0,0.0,0.0,0.0,0.0,0.0,0.0,0.0,0.0,0.0,0.0,0.0,0.0,0.0,0.0,0.0,0.0,0.0,0.0,0.0,0.0,0.0,0.0,0.0,0.0,0.0,0.0,0.0,0.0,0.0,0.0,0.0,0.0,0.0,0.0,0.0,0.0,0.0,0.0,0.0,0.0,0.0,0.0,0.0,0.0,0.0,0.0,0.0,0.0,0.0,0.0,0.0,0.0,0.0,0.0,0.0,0.0,0.0,0.0,0.0,0.0,0.0,0.0,0.0,0.0,0.0,0.0,0.0,0.0,0.0,0.0,0.0,0.0,0.0,0.0,0.0,0.0,0.0,0.0,0.0,0.0,0.0,0.0,0.0,0.0,0.0,0.0,0.0,0.0,0.0,0.0,0.0,0.0,0.0,0.0,0.0,0.0,0.0,0.0,0.0,0.0,0.0,0.0,0.0,0.0,0.0,0.0,0.0,0.0,0.7317,0.0,0.8595,0.8495,0.8186,0.7782,0.0,0.0,0.0,0.0,0.0,0.0,0.0,0.0,0.0,0.0,0.0,0.0,0.0,0.0,0.0,0.0,0.0,0.0,0.0,0.0,0.0,0.0,0.0,0.0,0.0,0.0,0.0,0.0,0.0,0.0,0.0,0.0,0.0,0.0,0.0,0.0,0.0,0.0,0.0,0.0,0.0,0.0,0.0,0.0,0.0,0.0,0.0,0.0,0.0,0.0,0.0,0.0,0.0,0.0,0.0,0.0,0.0,0.0,0.0,0.0,0.0,0.0,0.0,0.0,0.0,0.0,0.0,0.0,0.0,0.0,0.0,0.0,0.0,0.0,0.0,0.0,0.0,0.0,0.0,0.0,0.0,0.0,0.0,0.0,0.0,0.0,0.0,0.0,0.0,0.0,0.0,0.0,0.0,0.0,0.0,0.0,0.0,0.0,0.0,0.0,0.0,0.0,0.0,0.0,0.0,0.0,0.0,0.0,0.6901,0.8809,0.9363,0.9238,0.8394,0.8754,0.8383,0.0,0.0,0.0,0.0,0.0,0.0,0.0,0.0,0.0,0.0,0.0,0.0,0.0,0.0,0.0,0.0,0.0,0.0,0.0,0.0,0.0,0.0,0.0,0.0,0.0,0.0,0.0,0.0,0.0,0.0,0.0,0.0,0.0,0.0,0.0,0.0,0.0,0.0,0.0,0.0,0.0,0.0,0.0,0.0,0.0,0.0,0.0,0.0,0.0,0.0,0.0,0.0,0.0,0.0,0.0,0.0,0.0,0.0,0.0,0.0,0.0,0.0,0.0,0.0,0.0,0.0,0.0,0.0,0.0,0.0,0.0,0.0,0.0,0.0,0.0,0.0,0.0,0.0,0.0,0.0,0.0,0.0,0.0,0.0,0.0,0.0,0.0,0.0,0.0,0.0,0.0,0.0,0.0,0.0,0.0,0.0,0.0,0.0,0.0,0.0,0.0,0.0,0.0,0.0,0.0,0.0,0.0,0.0,0.0,0.9247,0.9482,0.96,0.9666,0.928,0.888,0.0,0.0,0.0,0.0,0.0,0.0,0.0,0.0,0.0,0.0,0.0,0.0,0.0,0.0,0.0,0.0,0.0,0.0,0.0,0.0,0.0,0.0,0.0,0.0,0.0,0.0,0.0,0.0,0.0,0.0,0.0,0.0,0.0,0.0,0.0,0.0,0.0,0.0,0.0,0.0,0.0,0.0,0.0,0.0,0.0,0.0,0.0,0.0,0.0,0.0,0.0,0.0,0.0,0.0,0.0,0.0,0.0,0.0,0.0,0.0,0.0,0.0,0.0,0.0,0.0,0.0,0.0,0.0,0.0,0.0,0.0,0.0,0.0,0.0,0.0,0.0,0.0,0.0,0.0,0.0,0.0,0.0,0.0,0.0,0.0,0.0,0.0,0.0,0.0,0.0,0.0,0.0,0.0,0.0,0.0,0.0,0.0,0.0,0.0,0.0,0.0,0.0,0.0,0.0,0.0,0.0,0.0,0.0,0.0,1.0076,1.0173,1.0269,1.0481,0.9983,0.9469,0.9041,0.0,0.0,0.0,0.0,0.0,0.0,0.0,0.0,0.0,0.0,0.0,0.0,0.0,0.0,0.0,0.0,0.0,0.0,0.0,0.0,0.0,0.0,0.0,0.0,0.0,0.0,0.0,0.0,0.0,0.0,0.0,0.0,0.0,0.0,0.0,0.0,0.0,0.0,0.0,0.0,0.0,0.0,0.0,0.0,0.0,0.0,0.0,0.0,0.0,0.0,0.0,0.0,0.0,0.0,0.0,0.0,0.0,0.0,0.0,0.0,0.0,0.0,0.0,0.0,0.0,0.0,0.0,0.0,0.0,0.0,0.0,0.0,0.0,0.0,0.0,0.0,0.0,0.0,0.0,0.0,0.0,0.0,0.0,0.0,0.0,0.0,0.0,0.0,0.0,0.0,0.0,0.0,0.0,0.0,0.0,0.0,0.0,0.0,0.0,0.0,0.0,0.0,0.0,0.0,0.0,0.0,0.0,0.0,1.1437,1.1548,1.1404,1.0934,1.0806,1.0272,0.0,0.0,0.0,0.0,0.0,0.0,0.0,0.0,0.0,0.0,0.0,0.0,0.0,0.0,0.0,0.0,0.0,0.0,0.0,0.0,0.0,0.0,0.0,0.0,0.0,0.0,0.0,0.0,0.0,0.0,0.0,0.0,0.0,0.0,0.0,0.0,0.0,0.0,0.0,0.0,0.0,0.0,0.0,0.0,0.0,0.0,0.0,0.0,0.0,0.0,0.0,0.0,0.0,0.0,0.0,0.0,0.0,0.0,0.0,0.0,0.0,0.0,0.0,0.0,0.0,0.0,0.0,0.0,0.0,0.0,0.0,0.0,0.0,0.0,0.0,0.0,0.0,0.0,0.0,0.0,0.0,0.0,0.0,0.0,0.0,0.0,0.0,0.0,0.0,0.0,0.0,0.0,0.0,0.0,0.0,0.0,0.0,0.0,0.0,0.0,0.0,0.0,0.0,0.0,0.0,0.0,0.0,0.0,0.0,1.3379,1.4685,1.4339,1.2429,1.1696,1.1225,0.0,0.0,0.0,0.0,0.0,0.0,0.0,0.0,0.0,0.0,0.0,0.0,0.0,0.0,0.0,0.0,0.0,0.0,0.0,0.0,0.0,0.0,0.0,0.0,0.0,0.0,0.0,0.0,0.0,0.0,0.0,0.0,0.0,0.0,0.0,0.0,0.0,0.0,0.0,0.0,0.0,0.0,0.0,0.0,0.0,0.0,0.0,0.0,0.0,0.0,0.0,0.0,0.0,0.0,0.0,0.0,0.0,0.0,0.0,0.0,0.0,0.0,0.0,0.0,0.0,0.0,0.0,0.0,0.0,0.0,0.0,0.0,0.0,0.0,0.0,0.0,0.0,0.0,0.0,0.0,0.0,0.0,0.0,0.0,0.0,0.0,0.0,0.0,0.0,0.0,0.0,0.0,0.0,0.0,0.0,0.0,0.0,0.0,0.0,0.0,0.0,0.0,0.0,0.0,0.0,0.0,0.0,0.0,1.0412,1.4056,1.6307,1.6505,1.455,1.3747,1.276,0.0,0.0,0.0,0.0,0.0,0.0,0.0,0.0,0.0,0.0,0.0,0.0,0.0,0.0,0.0,0.0,0.0,0.0,0.0,0.0,0.0,0.0,0.0,0.0,0.0,0.0,0.0,0.0,0.0,0.0,0.0,0.0,0.0,0.0,0.0,0.0,0.0,0.0,0.0,0.0,0.0,0.0,0.0,0.0,0.0,0.0,0.0,0.0,0.0,0.0,0.0,0.0,0.0,0.0,0.0,0.0,0.0,0.0,0.0,0.0,0.0,0.0,0.0,0.0,0.0,0.0,0.0,0.0,0.0,0.0,0.0,0.0,0.0,0.0,0.0,0.0,0.0,0.0,0.0,0.0,0.0,0.0,0.0,0.0,0.0,0.0,0.0,0.0,0.0,0.0,0.0,0.0,0.0,0.0,0.0,0.0,0.0,0.0,0.0,0.0,0.0,0.0,0.0,0.0,0.0,0.0,0.0,0.0,1.0451,1.3947,1.7006,1.8041,1.686,1.6031,1.4418,0.0,0.0,0.0,0.0,0.0,0.0,0.0,0.0,0.0,0.0,0.0,0.0,0.0,0.0,0.0,0.0,0.0,0.0,0.0,0.0,0.0,0.0,0.0,0.0,0.0,0.0,0.0,0.0,0.0,0.0,0.0,0.0,0.0,0.0,0.0,0.0,0.0,0.0,0.0,0.0,0.0,0.0,0.0,0.0,0.0,0.0,0.0,0.0,0.0,0.0,0.0,0.0,0.0,0.0,0.0,0.0,0.0,0.0,0.0,0.0,0.0,0.0,0.0,0.0,0.0,0.0,0.0,0.0,0.0,0.0,0.0,0.0,0.0,0.0,0.0,0.0,0.0,0.0,0.0,0.0,0.0,0.0,0.0,0.0,0.0,0.0,0.0,0.0,0.0,0.0,0.0,0.0,0.0,0.0,0.0,0.0,0.0,0.0,0.0,0.0,0.0,0.0,0.0,0.0,0.0,0.0,0.0,0.0,1.141,1.4562,1.7626,1.8731,1.7756,1.5967,1.4544,0.0,0.0,0.0,0.0,0.0,0.0,0.0,0.0,0.0,0.0,0.0,0.0,0.0,0.0,0.0,0.0,0.0,0.0,0.0,0.0,0.0,0.0,0.0,0.0,0.0,0.0,0.0,0.0,0.0,0.0,0.0,0.0,0.0,0.0,0.0,0.0,0.0,0.0,0.0,0.0,0.0,0.0,0.0,0.0,0.0,0.0,0.0,0.0,1.2383,0.0,0.0,0.0,0.0,0.0,0.0,0.0,0.0,0.0,0.0,0.0,0.0,0.0,0.0,0.0,0.0,0.0,0.0,0.0,0.0,0.0,0.0,0.0,0.0,0.0,0.0,0.0,0.0,0.0,0.0,0.0,0.0,0.0,0.0,0.0,0.0,0.0,0.0,0.0,0.0,0.0,0.0,0.0,0.0,0.0,0.0,0.0,0.0,0.0,0.0,0.0,0.0,0.0,0.0,0.0,0.0,0.0,0.0,0.0,1.1953,1.548,1.8059,1.9078,1.8417,1.6857,1.5496,0.0,0.0,0.0,0.0,0.0,0.0,0.0,0.0,0.0,0.0,0.0,0.0,0.0,0.0,0.0,0.0,0.0,0.0,0.0,0.0,0.0,0.0,0.0,0.0,0.0,0.0,0.0,0.0,0.0,0.0,0.0,0.0,0.0,0.0,0.0,0.0,0.0,0.0,0.0,0.0,0.0,0.0,0.0,0.0,0.0,0.0,0.0,0.0,0.0,0.0,0.0,0.0,0.0,0.0,0.0,0.0,0.0,0.0,0.0,0.0,0.0,0.0,0.0,0.0,0.0,0.0,0.0,0.0,0.0,0.0,0.0,0.0,0.0,0.0,0.0,0.0,0.0,0.0,0.0,0.0,0.0,0.0,0.0,0.0,0.0,0.0,0.0,0.0,0.0,0.0,0.0,0.0,0.0,0.0,0.0,0.0,0.0,0.0,0.0,0.0,0.0,0.0,0.0,0.0,0.0,0.0,0.0,1.0368,1.2422,1.6376,1.8383,1.9267,1.8974,1.8012,1.6708,1.4937,0.0,0.0,0.0,0.0,0.0,0.0,0.0,0.0,0.0,0.0,0.0,0.0,0.0,0.0,0.0,0.0,0.0,0.0,0.0,0.0,0.0,0.0,0.0,0.0,0.0,0.0,0.0,0.0,0.0,0.0,0.0,0.0,0.0,0.0,0.0,0.0,0.0,0.0,1.1525,1.2193,0.0,0.0,0.0,0.0,0.0,0.0,0.0,0.0,1.3057,0.0,0.0,0.0,0.0,0.0,0.0,0.0,0.0,0.0,0.0,0.0,0.0,0.0,0.0,0.0,0.0,0.0,0.0,0.0,0.0,0.0,0.0,0.0,0.0,0.0,0.0,0.0,0.0,0.0,0.0,0.0,0.0,0.0,0.0,0.0,0.0,0.0,0.0,0.0,0.0,0.0,0.0,0.0,0.0,0.0,0.0,0.0,0.0,0.0,0.0,0.0,0.0,0.0,0.0,0.0,0.0,1.2145,1.1754,1.3307,1.6802,1.8527,1.9361,1.931,1.8519,1.7455,1.6111,0.0,0.0,0.0,0.0,0.0,0.0,0.0,0.0,0.0,0.0,0.0,0.0,0.0,0.0,0.0,0.0,0.0,0.0,0.0,0.0,0.0,0.0,0.0,0.0,0.0,0.0,0.0,0.0,0.0,0.0,0.0,0.0,0.0,0.0,0.0,0.0,0.0,0.0,0.0,1.3675,1.4311,0.0,0.0,0.0,0.0,0.0,0.0,0.0,0.0,1.3627,0.0,0.0,0.0,0.0,0.0,0.0,0.0,0.0,0.0,0.0,0.0,0.0,0.0,0.0,0.0,0.0,0.0,0.0,0.0,0.0,0.0,0.0,0.0,0.0,0.0,0.0,0.0,0.0,0.0,0.0,0.0,0.0,0.0,0.0,0.0,0.0,0.0,0.0,0.0,0.0,0.0,0.0,0.0,0.0,0.0,0.0,0.0,0.0,0.0,0.0,0.0,0.0,0.0,0.0,0.0,1.2295,1.3326,1.5059,1.7611,1.8994,1.9681,1.9717,1.8206,1.6968,0.0,0.0,0.0,0.0,0.0,0.0,0.0,0.0,0.0,0.0,0.0,0.0,0.0,0.0,0.0,0.0,0.0,0.0,0.0,0.0,0.0,0.0,0.0,0.0,0.0,0.0,0.0,0.0,0.0,0.0,0.0,0.0,0.0,0.0,0.0,0.0,0.0,0.0,0.0,0.0,1.3964,1.4177,1.494,0.0,0.0,0.0,0.0,0.0,0.0,1.433,1.3945,0.0,0.0,0.0,0.0,0.0,0.0,0.0,0.0,0.0,0.0,0.0,0.0,0.0,0.0,0.0,0.0,0.0,0.0,0.0,0.0,0.0,0.0,0.0,0.0,0.0,0.0,0.0,0.0,0.0,0.0,0.0,0.0,0.0,0.0,0.0,0.0,0.0,0.0,0.0,0.0,0.0,0.0,0.0,0.0,0.0,0.0,0.0,0.0,0.0,0.0,0.0,0.0,0.0,0.0,0.0,1.2576,1.438,1.6331,1.844,1.9566,2.0115,2.0124,1.8141,1.6675,0.0,0.0,0.0,0.0,0.0,0.0,0.0,0.0,0.0,0.0,0.0,0.0,0.0,0.0,0.0,0.0,0.0,0.0,0.0,0.0,0.0,0.0,0.0,0.0,0.0,0.0,0.0,0.0,0.0,0.0,0.0,0.0,0.0,0.0,0.0,0.0,0.0,0.0,0.0,0.0,0.0,1.4529,1.5892,1.4885,0.0,0.0,0.0,0.0,1.6502,1.5566,0.0,0.0,0.0,0.0,0.0,0.0,0.0,0.0,0.0,0.0,0.0,0.0,0.0,0.0,0.0,0.0,0.0,0.0,0.0,0.0,0.0,0.0,0.0,0.0,0.0,0.0,0.0,0.0,0.0,0.0,0.0,0.0,0.0,0.0,0.0,0.0,0.0,0.0,0.0,0.0,0.0,0.0,0.0,0.0,0.0,0.0,0.0,0.0,0.0,0.0,0.0,0.0,0.0,0.0,0.0,0.0,1.391,1.4143,1.585,1.9104,2.0207,2.0577,2.0376,1.9123,1.7583,0.0,0.0,0.0,0.0,0.0,0.0,0.0,0.0,0.0,0.0,0.0,0.0,0.0,0.0,0.0,0.0,0.0,0.0,0.0,0.0,0.0,0.0,0.0,0.0,0.0,0.0,0.0,0.0,0.0,0.0,0.0,0.0,0.0,0.0,0.0,0.0,0.0,0.0,0.0,0.0,0.0,1.7316,1.7769,1.7131,1.6938,0.0,0.0,1.7077,1.817,1.7878,0.0,0.0,0.0,0.0,0.0,0.0,0.0,0.0,0.0,0.0,0.0,0.0,0.0,0.0,0.0,0.0,0.0,0.0,0.0,0.0,0.0,0.0,0.0,0.0,0.0,0.0,0.0,0.0,0.0,0.0,0.0,0.0,0.0,0.0,0.0,0.0,0.0,0.0,0.0,0.0,0.0,0.0,0.0,0.0,0.0,0.0,0.0,0.0,0.0,0.0,0.0,0.0,0.0,0.0,0.0,1.0774,1.4173,1.4822,1.6536,1.9549,2.0577,2.0989,2.0778,1.884,1.7036,0.0,0.0,0.0,0.0,0.0,0.0,0.0,0.0,0.0,0.0,0.0,0.0,0.0,0.0,0.0,0.0,0.0,0.0,0.0,0.0,0.0,0.0,0.0,0.0,0.0,0.0,0.0,0.0,0.0,0.0,0.0,0.0,0.0,0.0,0.0,0.0,0.0,0.0,0.0,0.0,0.0,0.0,1.8611,1.8143,0.0,0.0,0.0,1.8025,1.8982,0.0,0.0,0.0,0.0,0.0,0.0,0.0,0.0,0.0,0.0,0.0,0.0,0.0,0.0,0.0,0.0,0.0,0.0,0.0,0.0,0.0,0.0,0.0,0.0,0.0,0.0,0.0,0.0,0.0,0.0,0.0,0.0,0.0,0.0,0.0,0.0,0.0,0.0,0.0,0.0,0.0,0.0,0.0,0.0,0.0,0.0,0.0,0.0,0.0,0.0,0.0,0.0,0.0,0.0,0.0,0.0,0.0,1.431,1.5387,1.7185,1.9798,2.0786,2.124,2.1103,1.884,0.0,0.0,0.0,0.0,0.0,0.0,0.0,0.0,0.0,0.0,0.0,0.0,0.0,0.0,0.0,0.0,0.0,0.0,0.0,0.0,0.0,0.0,0.0,0.0,0.0,0.0,0.0,0.8932,0.0,0.0,0.0,0.0,0.0,0.0,0.0,0.0,0.0,0.0,0.0,0.0,0.0,0.0,1.8198,1.9515,1.9289,1.9164,0.0,0.0,1.927,2.008,1.9266,1.8235,0.0,0.0,0.0,0.0,0.0,0.0,0.0,0.0,0.0,0.0,0.0,0.0,0.0,0.0,0.0,0.0,0.0,0.0,0.0,0.0,0.0,0.0,0.0,0.0,0.0,0.0,0.0,0.0,0.0,0.0,0.0,0.0,0.0,0.0,0.0,0.0,0.0,0.0,0.0,0.0,0.0,0.0,0.0,0.0,0.0,0.0,0.0,0.0,0.0,0.0,0.0,0.0,0.0,0.0,1.1311,1.4369,1.5407,1.7277,2.0078,2.0898,2.1304,2.1277,1.9835,1.7756,0.0,0.0,0.0,0.0,0.0,0.0,0.0,0.0,0.0,0.0,0.0,0.0,0.0,0.0,0.0,0.0,0.0,0.0,0.0,0.0,0.0,0.0,0.0,0.0,0.0,0.0,0.0,0.0,0.0,0.0,0.0,0.0,0.0,0.0,0.0,0.0,0.0,0.0,0.0,0.0,0.0,1.9834,2.0894,2.1032,2.1252,0.0,2.1525,2.1332,2.1995,2.1866,2.1049,1.9137,0.0,0.0,0.0,0.0,0.0,0.0,0.0,0.0,0.0,0.0,0.0,0.0,0.0,0.0,0.0,0.0,0.0,0.0,0.0,0.0,0.0,0.0,0.0,0.0,0.0,0.0,0.0,0.0,0.0,0.0,0.0,0.0,0.0,0.0,0.0,0.0,0.0,0.0,0.0,0.0,0.0,0.0,0.0,0.0,0.0,0.0,0.0,0.0,0.0,0.0,0.0,0.0,0.0,1.1395,1.446,1.5565,1.742,2.0078,2.0914,2.132,2.1294,1.9932,1.8038,0.0,0.0,0.0,0.0,0.0,0.0,0.0,0.0,0.0,0.0,0.0,0.0,0.0,0.0,0.0,0.0,0.0,0.0,0.0,0.0,0.0,0.0,0.0,0.0,0.0,0.0,0.0,0.0,1.0938,1.1413,1.2352,0.0,0.0,0.0,0.0,0.0,0.0,0.0,0.0,0.0,0.0,2.0955,2.1824,2.1963,0.0,0.0,2.2078,2.2048,2.2113,2.1437,2.0467,1.9202,1.7867,0.0,0.0,0.0,0.0,0.0,0.0,0.0,0.0,0.0,0.0,0.0,0.0,0.0,0.0,0.0,0.0,0.0,0.0,0.0,0.0,0.0,0.0,0.0,0.0,0.0,0.0,0.0,0.0,0.0,0.0,0.0,0.0,0.0,0.0,0.0,0.0,0.0,0.0,0.0,0.0,0.0,0.0,0.0,0.0,0.0,0.0,0.0,0.0,0.0,0.0,0.0,0.0,1.1889,1.4487,1.5606,1.7498,2.0143,2.0898,2.1304,2.1277,2.0127,1.8535,0.0,0.0,0.0,0.0,0.0,0.0,0.0,0.0,0.0,0.0,0.0,0.0,0.0,0.0,0.0,0.0,0.0,0.0,0.0,0.0,0.0,0.0,0.0,0.0,0.0,0.0,0.0,0.0,1.1843,1.229,1.321,0.0,0.0,0.0,0.0,0.0,0.0,0.0,0.0,0.0,0.0,2.1591,2.233,2.246,2.2415,2.2186,2.2343,2.2443,2.2186,2.147,2.0685,1.987,0.0,0.0,0.0,0.0,0.0,0.0,0.0,0.0,0.0,0.0,0.0,0.0,0.0,0.0,0.0,0.0,0.0,0.0,0.0,0.0,0.0,0.0,0.0,0.0,0.0,0.0,0.0,0.7686,0.0,0.0,0.8632,0.0,0.0,0.0,0.0,0.0,0.0,0.0,0.0,0.0,0.0,0.0,0.0,0.0,0.0,0.0,0.0,0.0,0.0,0.0,0.0,0.0,0.0,1.2893,1.4501,1.5653,1.7498,2.0108,2.0898,2.132,2.1246,2.0629,1.9252,1.7108,0.0,0.0,0.0,0.0,0.0,0.0,0.0,0.0,0.0,0.0,0.0,0.0,0.0,0.0,0.0,0.0,0.0,0.0,0.0,0.0,0.0,0.0,0.0,0.0,0.0,0.0,1.1091,1.1734,1.2488,0.0,0.0,0.0,0.0,0.0,0.0,0.0,0.0,0.0,2.0055,2.0934,2.1669,2.2385,2.2487,2.2549,2.2504,2.2586,2.2569,2.247,2.2554,2.2392,0.0,0.0,0.0,0.0,0.0,0.0,0.0,0.0,0.0,0.0,0.0,0.0,0.0,0.0,0.0,0.0,0.0,0.0,0.0,0.0,0.0,0.0,0.0,0.0,0.0,0.0,0.0,0.9088,0.796,0.0,0.0,0.0,0.0,0.0,0.0,0.0,0.0,0.0,0.0,0.0,1.2371,1.2768,0.0,0.0,0.0,0.0,0.0,0.0,0.0,0.0,0.0,0.0,0.0,0.0,1.3022,1.4721,1.5723,1.7382,1.9808,2.0945,2.1351,2.1039,2.0645,1.9192,1.6586,0.0,0.0,0.0,0.0,0.0,0.0,0.0,0.0,0.0,0.0,0.0,0.0,0.0,0.0,0.0,0.0,0.0,0.0,0.0,0.0,0.0,0.0,0.0,0.0,0.0,1.2169,0.0,0.0,0.0,0.0,0.0,0.0,0.0,0.0,0.0,0.0,1.8411,1.9605,2.0636,2.1574,2.2476,2.3185,2.3361,2.3371,0.0,0.0,0.0,0.0,0.0,0.0,0.0,0.0,0.0,0.0,0.0,0.0,0.0,0.0,2.1383,1.7971,1.7148,1.6983,1.6904,0.0,0.0,0.0,0.0,0.0,0.0,0.0,0.0,0.0,0.0,0.0,0.0,0.0,0.0,1.0336,0.9058,1.0177,0.0,0.0,0.0,0.0,0.0,0.0,0.0,0.0,1.3022,1.3555,1.4049,1.4286,1.4286,1.4099,1.4086,1.2956,0.0,0.0,0.0,0.0,0.0,0.0,0.0,0.0,1.4032,1.5279,1.655,1.8057,1.9732,2.0485,2.0863,2.0926,2.0627,1.9504,1.7371,1.6394,1.4981,0.0,0.0,0.0,0.0,0.0,0.0,0.0,0.0,0.0,0.0,0.0,0.0,0.0,0.0,0.0,0.0,0.0,0.0,0.0,0.0,0.0,0.0,0.0,1.2944,0.0,0.0,0.0,0.0,0.0,0.0,0.0,0.0,0.0,1.8839,1.9782,2.084,2.1851,2.2371,2.2993,2.4007,0.0,0.0,0.0,0.0,0.0,0.0,0.0,2.2953,2.3436,2.3091,2.285,2.3057,2.3702,2.403,2.3393,0.0,0.0,2.0045,1.9269,1.9132,1.9067,1.9398,1.9735,1.9776,2.0277,2.0868,0.0,0.0,0.0,0.0,1.0863,0.0,0.0,0.0,1.2253,1.1868,0.0,1.2082,0.0,0.0,0.0,0.0,1.2484,1.3022,0.0,0.0,1.4731,1.5257,1.5668,1.5218,1.5243,1.5746,1.5734,1.5207,1.412,1.2576,0.0,0.0,0.0,0.0,0.0,0.0,1.5792,1.6189,1.8083,1.9368,1.9955,1.9688,1.9974,2.0975,2.0736,2.0225,1.9427,1.8126,1.6771,1.5352,1.3919,0.0,0.0,0.0,0.0,0.0,0.0,0.0,0.0,0.0,0.0,0.0,0.0,0.0,0.0,0.0,0.0,0.0,0.0,0.0,0.0,1.3242,0.0,0.0,0.0,0.0,0.0,0.0,0.0,0.0,0.0,2.0373,2.137,2.1533,2.2099,2.3633,0.0,0.0,0.0,0.0,2.4149,2.4919,2.504,2.5023,2.4988,2.4971,2.4971,2.5052,0.0,0.0,2.416,2.466,2.4854,2.3547,2.4072,2.4263,2.3934,2.3256,2.2791,2.2635,2.2538,2.2701,2.2783,2.29,2.332,1.2856,0.0,0.0,0.0,0.0,1.2759,1.326,1.4189,1.404,1.3898,1.3835,1.3661,0.0,0.0,0.0,0.0,0.0,0.0,1.435,1.5229,1.5421,1.577,1.6271,1.6453,1.663,1.6785,1.706,1.6824,1.6182,1.5711,1.4238,1.1873,0.0,0.0,0.0,0.0,1.6539,1.7144,1.8561,1.95,1.9914,2.0243,2.078,2.1554,2.1464,2.1077,2.035,1.9948,1.9045,1.7632,1.6193,0.0,0.0,0.0,0.0,0.0,0.0,0.0,0.0,0.0,0.0,0.0,0.0,0.0,0.0,0.0,0.0,0.0,0.0,0.0,1.3909,1.4031,1.4488,0.0,0.0,0.0,0.0,0.0,0.0,0.0,0.0,0.0,2.371,2.3317,2.3346,0.0,0.0,2.4695,2.5661,2.5609,2.551,2.5747,2.5799,0.0,2.5212,2.5125,2.5373,2.6044,2.707,2.7892,2.8242,2.8504,2.8369,2.7504,2.7469,2.7394,2.6709,2.4879,2.3505,2.329,2.3324,2.3357,2.3373,2.3435,2.3726,1.4214,1.2993,1.3217,1.37,1.4345,1.4496,1.5074,1.5951,1.5818,1.5836,1.5905,1.5709,1.5587,1.5595,1.4854,0.0,0.0,0.0,1.5897,1.6685,1.6931,1.7196,1.7503,1.7982,1.8044,1.7824,1.8311,1.8247,1.7705,1.7855,1.6691,1.4377,0.0,1.4802,1.4882,1.64,1.7444,1.8011,1.8989,1.9617,1.9808,2.0475,2.099,2.1402,2.1661,2.1566,2.1164,2.0837,2.029,1.9412,1.8004,1.6431,0.0,0.0,0.0,0.0,0.0,0.0,0.0,0.0,0.0,0.0,0.0,1.072,1.0221,0.0,0.0,0.0,1.3477,1.4383,1.5061,1.5493,0.0,0.0,0.0,0.0,0.0,0.0,0.0,2.2764,2.3539,2.4437,2.5687,2.5613,2.5562,2.5885,2.5643,2.5919,2.7264,0.0,2.7234,2.7528,2.7382,2.7183,2.7163,2.6865,2.6918,2.7626,2.8499,2.9184,2.9538,2.9608,2.9438,2.8996,2.8814,2.8574,2.8066,2.6531,2.535,2.5183,2.5183,2.5257,2.5293,2.522,2.535,1.5332,1.5437,1.6052,1.5861,1.5268,1.63,1.6799,1.6985,1.7424,1.7484,1.7326,1.7795,1.7881,1.7624,1.6999,0.0,1.7451,1.7483,1.7781,1.8298,1.8773,1.9048,1.9067,1.9516,1.9398,1.8768,1.9486,1.9564,1.9096,1.9342,1.8702,1.7329,1.703,1.6859,1.681,1.7877,1.8596,1.8957,1.9445,1.9698,1.9726,2.0426,2.081,2.0843,2.1417,2.1751,2.1735,2.1151,2.0799,2.0766,1.9445,1.7756,1.5757,0.0,0.0,0.0,0.0,0.0,0.0,0.0,0.0,0.0,0.0,0.0,0.0,0.0,0.0,1.3495,1.4792,0.0,1.6542,1.7412,0.0,0.0,0.0,1.9692,2.0551,2.19,2.3162,2.4041,0.0,0.0,2.7368,2.809,2.828,2.7659,2.6916,2.7175,2.9264,2.9082,2.9057,2.9597,2.9341,2.9259,2.9646,2.9294,2.8977,2.9467,2.9592,2.9523,2.936,2.9268,2.907,2.8875,2.8732,2.8649,2.8336,2.831,2.8254,2.7883,2.7713,2.7705,2.7655,2.7599,2.7526,1.8151,1.8771,1.9359,1.8347,1.635,1.6688,1.7095,1.7436,1.7654,1.7761,1.7807,1.7952,1.8022,1.8062,1.8299,1.8267,1.8003,1.8441,1.8689,1.8806,1.8957,1.9216,1.9547,2.0014,1.9905,1.9384,2.0372,2.095,2.1137,2.0978,2.0581,2.0033,2.0193,1.9556,1.8248,1.9623,2.0597,2.0991,2.0138,1.9704,1.9698,2.0426,2.081,2.081,2.1214,2.1402,2.1402,2.1513,2.1532,2.1499,2.0655,1.9721,1.8693,1.6198,0.0,0.0,0.0,0.0,0.0,0.0,0.0,0.0,0.0,1.2947,1.0621,0.0,1.5423,0.0,1.6201,1.7552,1.8249,1.9014,0.0,0.0,2.1942,2.2977,2.4334,2.4885,2.5712,2.7083,2.7579,2.8111,2.8885,2.9261,2.9621,2.9951,2.9395,2.9184,2.9872,2.9849,2.9811,2.9986,2.993,2.9906,3.0207,2.999,2.9969,3.0606,3.0491,3.0418,3.0947,3.105,3.0902,3.056,3.046,3.0262,2.9898,2.9807,2.9707,2.9557,2.8715,2.7947,2.802,2.798,2.7923,1.9572,2.0088,2.0701,2.0067,1.866,1.8766,1.8842,1.888,1.8993,1.8895,1.8821,1.9058,1.9485,1.9939,2.0364,2.0463,2.0489,2.0771,2.077,2.0502,2.0705,2.0803,2.083,2.1336,2.1368,2.1053,2.1757,2.2304,2.2597,2.2204,2.1657,2.1126,2.1799,2.1435,2.0206,2.0962,2.148,2.1695,2.0749,2.0397,2.055,2.0401,2.0516,2.0983,2.1036,2.1151,2.1294,2.1495,2.1483,2.1346,2.0976,2.029,1.9286,1.7432,1.5884,0.0,0.0,0.0,0.0,0.0,0.0,0.0,0.0,0.0,0.0,0.0,1.6895,1.7206,1.8504,1.9739,2.0805,2.1566,2.2479,2.3663,2.4258,2.5166,2.6646,2.6965,2.7513,2.8699,2.9162,2.9575,2.9989,3.0473,3.0993,3.1446,3.1233,3.1054,3.1072,3.1137,3.1203,3.1203,3.0967,3.0849,3.0924,3.1006,3.111,3.1255,3.1039,3.0899,3.1116,3.1145,3.1083,3.0885,3.0821,3.0716,3.0468,3.0417,3.0316,3.0218,2.9675,2.9124,2.9091,2.9009,2.8977,2.017,2.0475,2.1092,2.1334,2.1321,2.1334,2.1089,2.0628,2.0615,2.0357,1.9962,2.0726,2.1452,2.2245,2.2484,2.2844,2.3291,2.3396,2.3108,2.2588,2.2999,2.2977,2.2611,2.3134,2.3198,2.2976,2.3363,2.3599,2.3611,2.3182,2.2493,2.1696,2.2525,2.2746,2.2235,2.204,2.1934,2.1934,2.1431,2.1416,2.1969,2.061,2.0307,2.1105,2.0939,2.0925,2.1135,2.1309,2.1231,2.0886,2.0938,2.0394,1.9211,1.8423,1.7658,0.0,1.621,0.0,0.0,0.0,0.0,0.0,0.0,0.0,0.0,1.7788,1.8651,2.0297,2.1245,2.2276,2.3592,2.4455,2.52,2.5844,2.6175,2.6899,2.8233,2.8576,2.899,2.9712,3.0437,3.0853,3.0923,3.1655,3.2197,3.2265,3.24,3.2413,3.2385,3.2433,3.2515,3.2621,3.22,3.1818,3.176,3.1961,3.1986,3.166,3.1249,3.0885,3.0593,3.051,3.051,3.051,3.051,3.051,3.0468,3.0468,3.0468,3.0468,3.036,3.0285,3.0302,3.0201,3.0274,2.0887,2.1641,2.2285,2.2611,2.2718,2.2705,2.2156,2.1176,2.1287,2.1066,2.0813,2.2168,2.2894,2.3014,2.3575,2.3589,2.3344,2.3756,2.389,2.3764,2.3878,2.4134,2.4534,2.4692,2.4229,2.3316,2.4417,2.4515,2.3595,2.4028,2.3852,2.3199,2.3347,2.339,2.3286,0.0,0.0,0.0,2.2435,2.255,2.3463,2.1828,2.0946,2.0955,2.0973,0.0,2.0447,2.1337,2.1685,2.1313,2.1595,0.0,0.0,0.0,0.0,0.0,0.0,0.0,0.0,0.0,0.0,0.0,1.9033,1.8449,1.7461,1.9595,2.1523,2.2654,2.3968,2.4913,2.5312,2.6553,2.7419,2.7623,2.8271,2.9111,2.9936,3.0161,3.0558,3.1246,3.1652,3.1828,3.1863,3.2231,3.2523,3.2627,3.2722,3.2802,3.2805,3.2838,3.2834,3.2816,3.2656,3.2488,3.2225,3.1934,3.1677,3.1261,3.0902,3.0593,3.051,3.0468,3.0468,3.0468,3.0468,3.0468,3.0468,3.0468,3.0468,3.0468,3.0485,3.0485,3.0468,3.0401,3.0375,2.1542,2.2051,2.2714,2.3017,0.0,2.3125,2.2765,2.218,2.1951,2.1945,2.2094,2.2617,2.3265,2.4094,2.438,2.4553,2.4621,2.5147,2.5249,2.4948,2.4948,2.4976,2.5091,2.514,2.4857,2.433,2.5139,2.554,2.5574,2.5272,2.4777,2.4103,2.4103,2.3939,2.361,2.3595,2.3595,2.3595,2.3146,2.3314,2.4074,2.3222,2.234,2.1485,2.1137,0.0,0.0,0.0,0.0,0.0,0.0,0.0,0.0,0.0,0.0,2.0585,2.023,2.0027,2.001,2.0348,2.1059,2.2124,2.2237,2.168,2.0371,2.2383,2.4115,2.5062,2.6131,2.7012,2.7503,2.822,2.88,2.9212,2.9659,3.0226,3.093,3.1158,3.1539,3.2156,3.2206,3.2352,3.3171,3.3178,3.3367,3.3703,3.3926,3.3883,3.3526,3.3166,3.2852,3.2639,3.2588,3.2437,3.2056,3.1694,3.1355,3.1123,3.0781,3.051,3.0468,3.0468,3.0468,3.0468,3.0468,3.0468,3.0468,3.0468,3.0468,3.0468,3.0468,3.0468,3.0468,3.0485,3.0443,2.2151,2.244,2.2997,2.3288,2.3288,2.3115,2.3125,2.31,2.2766,0.0,0.0,2.3032,2.3707,2.5007,2.5229,2.5591,2.6125,2.6606,2.6541,2.6017,2.6054,2.5842,2.5541,2.5575,2.5627,2.5708,2.5896,2.6497,2.7486,2.6361,2.545,2.4821,2.4761,2.4522,2.3984,2.3954,2.3939,2.3894,2.3711,2.3824,2.4253,2.4282,2.3643,2.223,2.1637,2.1224,2.1001,2.087,2.0863,2.1016,2.0768,2.0886,2.1353,2.1471,2.1809,2.2446,2.2632,2.297,2.3545,2.3579,2.39,2.4675,2.489,2.4683,2.3863,2.5048,2.6182,2.7045,2.7896,2.8714,2.9451,2.9793,3.0153,3.0788,3.1016,3.1431,3.1956,3.2156,3.2486,3.2977,3.2847,3.3052,3.4277,3.4217,3.4286,3.4836,3.4976,3.4975,3.4246,3.3341,3.2672,3.2386,3.2283,3.2056,3.1677,3.1338,3.1083,3.0965,3.0716,3.051,3.0468,3.0468,3.0468,3.0468,3.0468,3.0468,3.0468,3.0468,3.0576,3.0692,3.0725,3.0775,3.0874,3.0907,3.0874,2.2932,2.3591,2.3803,2.3879,2.3828,2.3351,2.3125,2.3125,2.3631,2.3593,2.3225,2.4761,2.5232,2.508,2.6065,2.6621,2.6674,2.6899,2.6907,2.6857,2.6946,2.7056,2.7069,2.7069,2.717,2.729,2.729,2.7444,2.7488,2.6808,2.6123,2.554,2.5465,2.5405,2.533,2.533,2.5194,2.497,2.4056,2.3776,2.4101,2.4225,2.3918,2.3075,2.273,2.203,2.1054,2.1647,2.1746,2.1115,2.1176,2.1467,2.2119,2.2467,2.2822,2.3245,2.3833,2.4269,2.4354,2.434,2.4675,2.5484,2.6226,2.6309,2.5484,2.626,2.7144,2.7879,2.9245,3.0135,3.0398,3.1497,3.2307,3.2555,3.3124,3.3649,3.3654,3.3667,3.3844,3.4129,3.4292,3.4391,3.4888,3.5013,3.5046,3.5187,3.5295,3.5048,3.4535,3.3319,3.2458,3.2283,3.202,3.164,3.1414,3.1179,3.1026,3.0634,3.0601,3.0534,3.0468,3.0468,3.0468,3.0468,3.0468,3.0526,3.0501,3.0468,3.0824,3.1288,3.1454,3.162,3.2083,3.2232,3.1934,2.2808,2.3266,2.407,2.4443,2.4431,2.4167,2.4054,2.4042,2.4353,2.394,2.3231,2.3987,2.4959,2.5953,2.5895,2.5974,2.634,2.6727,2.6937,2.7003,2.7055,2.7196,2.7401,2.7401,2.7488,2.7575,2.756,2.76,2.7579,2.73,2.6782,2.6168,2.5794,2.5661,2.5678,2.5693,2.5694,2.562,2.4282,2.4023,2.4928,2.4539,2.3952,2.3293,2.315,2.2745,2.2003,2.2196,2.2271,2.2327,2.2192,2.2426,2.3145,2.3335,2.3596,2.4002,2.432,2.4661,2.5067,2.591,2.6554,2.6944,2.7809,2.8117,2.7758,2.8408,2.899,2.9401,3.0825,3.1737,3.1812,3.281,3.3537,3.3542,3.3886,3.4155,3.4254,3.4254,3.4484,3.4987,3.4988,3.5206,3.6146,3.6043,3.606,3.6345,3.5971,3.5435,3.5177,3.3845,3.2838,3.2827,3.2698,3.2406,3.2026,3.1968,3.1733,3.1205,3.1123,3.0957,3.06,3.0485,3.0485,3.0468,3.0485,3.065,3.1007,3.1123,3.1437,3.1984,3.2199,3.2381,3.2613,3.2663,3.2326,2.3086,2.336,2.4484,2.4933,2.4833,2.4833,2.4833,2.4833,2.482,2.4293,2.356,2.3799,2.4978,2.6637,2.6105,2.6106,2.6536,2.7039,2.7389,2.748,2.748,2.7565,2.769,2.7675,2.7637,2.759,2.756,2.756,2.756,2.756,2.732,2.6797,2.6288,2.6144,2.6238,2.627,2.6317,2.6412,2.5228,2.4986,2.572,2.4844,2.4096,2.3794,2.3609,2.3312,2.2926,2.2654,2.2711,2.3135,2.2885,2.3012,2.3703,2.3851,2.4116,2.4557,2.4906,2.5493,2.6369,2.7539,2.8305,2.8305,2.9162,2.9696,2.9747,3.0501,3.0911,3.0967,3.1963,3.2878,3.3179,3.3869,3.4375,3.4414,3.4587,3.4839,3.4961,3.5004,3.5255,3.5934,3.577,3.604,3.6929,3.695,3.6863,3.7055,3.6582,3.5945,3.5588,3.4524,3.387,3.3617,3.3398,3.2993,3.2735,3.2658,3.2442,3.1901,3.1737,3.1435,3.098,3.074,3.0724,3.0806,3.0859,3.1133,3.1709,3.1868,3.2166,3.2746,3.2945,3.3011,3.3259,3.3156,3.2676,2.4329,2.5071,2.5321,2.5234,2.4883,2.4858,2.487,2.487,2.4833,2.4747,2.4756,2.5839,2.6516,2.6967,2.7855,2.8251,2.8378,2.8618,2.8741,2.8891,2.9045,2.8857,2.848,2.8435,2.8173,2.7649,2.7575,2.756,2.756,2.756,2.758,2.7535,2.746,2.745,2.7579,2.7579,2.7728,2.7987,2.7718,2.7134,2.6153,2.4922,2.4554,2.5133,2.4533,2.3902,2.3396,2.3233,2.3111,2.2854,2.2611,2.2713,2.3372,2.3743,2.4225,2.4993,2.6189,2.7487,2.8625,2.8952,2.9144,2.9317,3.0108,3.0627,3.0679,3.1849,3.2403,3.2076,3.249,3.3266,3.3904,3.4645,3.5157,3.537,3.5931,3.6516,3.6611,3.6794,3.6872,3.7135,3.6996,3.7212,3.7432,3.7415,3.7287,3.7038,3.6738,3.6278,3.5754,3.5368,3.4952,3.4535,3.369,3.29,3.2755,3.2696,3.2628,3.2496,3.2158,3.1843,3.1558,3.1245,3.1102,3.156,3.1667,3.1838,3.2364,3.2597,3.2845,3.3458,3.374,3.3809,3.4421,3.4153,3.3225,2.3925,2.4612,2.5199,2.5568,2.5799,2.5787,2.5787,2.5787,2.5787,2.5841,2.5973,2.718,2.8255,2.9,2.8048,2.7952,2.8666,2.8834,2.8946,2.9112,2.9277,2.9307,2.916,2.8757,2.8286,2.7639,2.7599,2.756,2.756,2.756,2.7625,2.7725,2.7725,2.7825,2.8024,2.8039,2.8137,2.8299,2.8258,2.798,2.755,2.7008,2.645,2.5949,2.5672,2.5426,2.5164,2.5118,2.508,2.4942,2.4771,2.4906,2.5473,2.5622,2.5983,2.6509,2.7382,2.8219,2.8887,2.9549,2.9985,3.0073,3.1263,3.2007,3.2041,3.299,3.3628,3.3852,3.4093,3.4421,3.4749,3.5387,3.5935,3.6209,3.6528,3.6823,3.7143,3.7182,3.7276,3.7447,3.7484,3.7484,3.754,3.7374,3.7111,3.686,3.6539,3.5977,3.5616,3.5374,3.5115,3.4864,3.4103,3.3616,3.35,3.3178,3.2886,3.2466,3.2191,3.2029,3.1823,3.1405,3.126,3.2196,3.2091,3.2317,3.3168,3.3359,3.3574,3.4091,3.4086,3.4072,3.4399,3.3951,3.3038,2.3412,2.4204,2.5217,2.5955,2.6465,2.6521,2.6521,2.6521,2.6521,2.6527,2.6608,2.7525,2.8771,2.9843,2.8474,2.8375,2.9189,2.9402,2.9587,2.9699,2.9867,2.9888,2.9804,2.9355,2.856,2.7771,2.7794,2.7769,2.7655,2.756,2.7625,2.774,2.779,2.7905,2.8137,2.8186,2.8284,2.8411,2.8411,2.8411,2.8383,2.842,2.7843,2.6779,2.6488,2.638,2.638,2.638,2.638,2.638,2.6349,2.6483,2.6792,2.6835,2.7115,2.7782,2.8352,2.886,2.9286,3.0078,3.064,3.095,3.2012,3.274,3.311,3.3785,3.4536,3.5123,3.5469,3.5572,3.5559,3.6074,3.6527,3.6725,3.6806,3.7005,3.7352,3.7372,3.7447,3.7577,3.7577,3.754,3.7356,3.7017,3.6643,3.6457,3.5994,3.5526,3.5407,3.5118,3.4947,3.4851,3.4299,3.3931,3.4016,3.3585,3.2966,3.2588,3.2336,3.2143,3.2008,3.1507,3.1373,3.2159,3.2074,3.2385,3.3178,3.3615,3.3902,3.4364,3.4333,3.3951,3.385,3.3371,3.2895,2.3423,2.4264,2.5791,2.6383,2.6521,2.6521,2.6521,2.6521,2.6521,2.6496,2.6476,2.662,2.7589,2.9315,2.9907,3.0585,3.0645,3.0764,3.0866,3.1012,3.1099,3.0947,3.0492,3.0402,2.9455,2.8081,2.8352,2.8263,2.7694,2.7634,2.756,2.764,2.7786,2.7936,2.8054,2.8152,2.8235,2.8411,2.8411,2.8411,2.8411,2.8429,2.8059,2.738,2.6765,2.6488,2.6457,2.6426,2.6426,2.6411,2.6472,2.6502,2.6471,2.6486,2.7108,2.8238,2.8968,2.9705,3.0392,3.0657,3.0998,3.1683,3.2009,3.2454,3.3495,3.4193,3.4864,3.5439,3.6058,3.6364,3.6249,3.6451,3.6783,3.7036,3.7161,3.7334,3.7647,3.7718,3.7594,3.7702,3.7754,3.755,3.7083,3.6522,3.6191,3.5949,3.565,3.5487,3.5202,3.5013,3.4899,3.4643,3.4052,3.3423,3.3866,3.3319,3.3024,3.2776,3.2253,3.2338,3.2155,3.2043,3.2078,3.2182,3.2284,3.2588,3.3124,3.3566,3.3838,3.4084,3.3984,3.3713,3.3335,3.2803,3.2382,2.2968,2.4181,2.5288,2.6025,2.6452,2.6521,2.6521,2.6521,2.6521,2.6463,2.6608,2.6938,2.7657,2.8593,2.9317,2.9856,3.019,3.0447,3.0628,3.0732,3.1161,3.1332,3.115,3.0731,3.0447,3.0103,2.952,2.9101,2.8906,2.8861,2.8726,2.8535,2.8541,2.8495,2.8293,2.8299,2.8348,2.8411,2.8411,2.8411,2.8411,2.8411,2.8288,2.8057,2.7827,2.7673,2.7673,2.7673,2.7688,2.7688,2.7673,2.7688,2.7673,2.7673,2.8031,2.877,2.9274,2.9819,3.041,3.1108,3.1583,3.1901,3.2787,3.3556,3.4329,3.4856,3.5358,3.5855,3.5942,3.6129,3.6559,3.678,3.7198,3.7782,3.7577,3.7777,3.8643,3.8683,3.854,3.8895,3.8809,3.8274,3.7332,3.68,3.6463,3.6248,3.5635,3.5385,3.5492,3.523,3.4837,3.4399,3.3748,3.3145,3.2911,3.2492,3.2104,3.2048,3.1936,3.2074,3.2064,3.1853,3.1819,3.2314,3.2477,3.2547,3.2986,3.3182,3.3543,3.3491,3.3439,3.3193,3.2749,3.2287,3.2023,2.3102,2.4079,2.511,2.5861,2.6342,2.6458,2.6521,2.6521,2.6521,2.6463,2.6595,2.7018,2.7485,2.7996,2.8271,2.8712,2.9373,3.0054,3.0372,3.0433,3.1161,3.1467,3.1392,3.1046,3.1027,3.1317,3.0629,3.0033,2.9594,2.9594,2.9462,2.9184,2.9273,2.9215,2.8939,2.8793,2.8735,2.8719,2.8535,2.8411,2.8411,2.8411,2.8411,2.8411,2.8411,2.8411,2.8411,2.8411,2.8411,2.8411,2.8411,2.8444,2.8493,2.8573,2.8811,2.9229,2.9769,3.0134,3.0539,3.1391,3.2006,3.2299,3.3205,3.4096,3.4871,3.5183,3.5554,3.5941,3.5958,3.6027,3.67,3.7024,3.7434,3.8128,3.7965,3.8116,3.9171,3.8947,3.8906,3.9089,3.8858,3.8303,3.762,3.7123,3.6888,3.6841,3.6071,3.5827,3.586,3.5416,3.4759,3.4188,3.3409,3.2888,3.2602,3.2191,3.1796,3.1754,3.1754,3.1853,3.191,3.1697,3.1739,3.2312,3.2586,3.2532,3.2695,3.2879,3.2933,3.2949,3.2803,3.2656,3.2231,3.1853,3.1697,2.4004,2.4017,2.5359,2.6032,2.6191,2.6462,2.6559,2.6596,2.6546,2.6496,2.6539,2.6521,2.7053,2.7577,2.7377,2.7523,2.8468,2.9718,3.0404,3.0464,3.1102,3.1467,3.1452,3.1392,3.142,3.148,3.1438,3.079,2.9804,2.9789,2.9768,2.9717,2.9902,2.9917,2.9932,2.9536,2.9427,2.9239,2.8778,2.8455,2.8442,2.8581,2.8565,2.8488,2.8488,2.8458,2.8411,2.8411,2.8411,2.8396,2.8444,2.8493,2.8778,2.903,2.9293,2.9697,3.0373,3.0849,3.0992,3.1653,3.2382,3.2884,3.3177,3.3807,3.4728,3.5038,3.5287,3.5732,3.5939,3.6239,3.7038,3.7332,3.7652,3.8037,3.8291,3.8407,3.8622,3.8515,3.8481,3.8573,3.8401,3.7936,3.7711,3.7484,3.7186,3.7186,3.6869,3.66,3.6234,3.559,3.4908,3.4153,3.3404,3.2795,3.241,3.2094,3.1826,3.1597,3.1655,3.1697,3.1754,3.1597,3.1597,3.2064,3.2007,3.2023,3.216,3.2367,3.2382,3.2327,3.2231,3.2176,3.1853,3.1582,3.1582,2.3769,2.4237,2.5241,2.6087,2.655,2.6875,2.703,2.6979,2.664,2.6521,2.6521,2.6521,2.6807,2.7146,2.7092,2.7268,2.7842,2.9142,2.9827,2.9936,3.051,3.1087,3.1409,3.1467,3.1467,3.1509,3.1492,3.1297,3.0956,3.0896,3.0717,3.0493,3.0567,3.0487,3.0212,3.0109,3.0104,2.9961,2.8997,2.8794,2.9669,2.9797,2.9581,2.915,2.9104,2.8904,2.8458,2.8411,2.8493,2.8573,2.8605,2.8966,2.9596,2.9801,3.0212,3.0894,3.1213,3.1468,3.1706,3.2319,3.2838,3.3129,3.3534,3.4137,3.4783,3.4818,3.4961,3.5503,3.5799,3.6312,3.7047,3.7651,3.8198,3.9054,3.87,3.8854,3.9628,3.9915,3.989,3.9538,3.9408,3.8975,3.8271,3.7864,3.7796,3.7711,3.7088,3.6507,3.6637,3.5815,3.4747,3.3799,3.3208,3.2721,3.2383,3.2046,3.1841,3.1727,3.1727,3.1655,3.1597,3.1597,3.1655,3.1597,3.1539,3.1597,3.1739,3.1853,3.191,3.1853,3.1796,3.1682,3.1524,3.1467,3.1467,2.3895,2.4181,2.4859,2.5392,2.5914,2.6336,2.6544,2.6565,2.6546,2.6521,2.6521,2.6521,2.6589,2.6782,2.6943,2.7146,2.7523,2.8648,2.9268,2.9628,3.0524,3.1087,3.1467,3.1467,3.1467,3.1467,3.1467,3.1467,3.1467,3.1509,3.13,3.1069,3.1248,3.1232,3.0868,3.0799,3.0782,3.0622,2.9733,2.9529,3.033,3.0892,3.0691,2.992,2.9781,2.9616,2.9314,2.9299,2.9084,2.8872,2.9014,2.9738,3.0609,3.0768,3.1055,3.1614,3.1999,3.2241,3.2481,3.3064,3.3469,3.355,3.3957,3.4366,3.4738,3.4626,3.4932,3.5552,3.5823,3.6406,3.7367,3.7897,3.8571,3.9359,3.9035,3.9185,4.0084,4.0237,4.0103,3.9698,3.9664,3.9358,3.8847,3.8311,3.8241,3.8089,3.7274,3.6478,3.6699,3.5933,3.4891,3.3913,3.3224,3.2788,3.2279,3.2068,3.1872,3.1841,3.1841,3.1727,3.167,3.1612,3.1597,3.1597,3.1539,3.1539,3.1625,3.164,3.164,3.1524,3.1526,3.1467,3.1482,3.1467,3.1467,2.4291,2.394,2.4282,2.4577,2.4737,2.533,2.5683,2.5691,2.6188,2.6521,2.6521,2.6521,2.6483,2.6595,2.685,2.7079,2.739,2.817,2.8839,2.958,3.051,3.1219,3.1482,3.1467,3.1467,3.1467,3.1467,3.1467,3.1467,3.1467,3.1467,3.145,3.1721,3.1966,3.1764,3.1627,3.1443,3.1351,3.0806,3.0575,3.0705,3.1659,3.1727,3.052,3.0474,3.05,3.0554,3.0607,3.0139,2.9201,2.9896,3.0736,3.1502,3.1694,3.1839,3.2239,3.2821,3.3064,3.3275,3.3631,3.4003,3.4053,3.4235,3.448,3.4529,3.4756,3.5133,3.5826,3.6059,3.6688,3.7814,3.8311,3.8662,3.9176,3.9235,3.9335,3.9292,3.9362,3.9239,3.9255,3.9218,3.9148,3.887,3.8453,3.827,3.8028,3.753,3.6927,3.6504,3.586,3.5202,3.441,3.3593,3.3035,3.26,3.2312,3.2158,3.1902,3.1947,3.1938,3.176,3.1715,3.1957,3.1854,3.1719,3.1659,3.1719,3.1869,3.1839,3.1824,3.1721,3.1556,3.1586,3.1706,3.1616,2.4478,2.4438,2.5099,2.5566,2.5814,2.6245,2.6505,2.6735,2.6477,2.649,2.6465,2.6521,2.6546,2.6514,2.6726,2.6998,2.7468,2.8066,2.8481,2.8853,2.9642,3.0644,3.1351,3.1467,3.1467,3.1467,3.1467,3.1467,3.1467,3.1467,3.1467,3.1539,3.1826,3.2012,3.1992,3.2048,3.2151,3.2121,3.1982,3.1828,3.1844,3.2122,3.2006,3.1281,3.1136,3.1047,3.0869,3.1176,3.1277,3.0927,3.1262,3.1854,3.2595,3.2692,3.287,3.3339,3.3647,3.3809,3.3841,3.3987,3.4134,3.425,3.4349,3.4399,3.4497,3.4643,3.5119,3.5762,3.6423,3.7201,3.8079,3.8676,3.9073,3.9222,3.9272,3.9218,3.9218,3.8843,3.859,3.8518,3.8181,3.8084,3.7953,3.7838,3.7648,3.7531,3.7071,3.66,3.6229,3.5885,3.5235,3.4766,3.407,3.3487,3.3021,3.2719,3.243,3.1995,3.2056,3.2342,3.2088,3.1877,3.2375,3.2781,3.2422,3.2287,3.2482,3.2662,3.2482,3.2287,3.2497,3.2587,3.2347,3.2302,3.1989,2.455,2.4519,2.4903,2.5027,2.5021,2.5378,2.5487,2.56,2.6137,2.6396,2.6528,2.6997,2.7201,2.7175,2.7411,2.7633,2.7954,2.8505,2.8795,2.9002,2.9659,3.0418,3.1029,3.1278,3.1467,3.1467,3.1467,3.1467,3.1467,3.1467,3.1467,3.1539,3.1769,3.194,3.1996,3.2206,3.2342,3.2382,3.2398,3.2398,3.2398,3.2398,3.2228,3.1874,3.1867,3.1743,3.1919,3.2378,3.2514,3.2208,3.2321,3.2773,3.3404,3.3518,3.3696,3.4101,3.4101,3.4084,3.4101,3.4151,3.4201,3.43,3.4382,3.4661,3.4988,3.5185,3.5613,3.6769,3.7299,3.7897,3.8526,3.9056,3.9239,3.9272,3.9077,3.8898,3.8898,3.8518,3.8222,3.7953,3.7663,3.7354,3.7354,3.7131,3.7011,3.6829,3.643,3.6133,3.5943,3.5653,3.54,3.4996,3.4655,3.4117,3.3728,3.3427,3.323,3.2823,3.263,3.284,3.278,3.2494,3.2826,3.3276,3.3036,3.2976,3.314,3.323,3.311,3.308,3.3395,3.3319,3.3005,3.2856,3.2512,2.4454,2.4509,2.4105,2.3763,2.357,2.3673,2.3939,2.3832,2.5233,2.6251,2.6822,2.763,2.7996,2.8331,2.8451,2.8638,2.873,2.8992,2.9241,2.9438,2.9813,3.0205,3.0606,3.1264,3.1482,3.1467,3.1467,3.1467,3.1467,3.1467,3.1524,3.1597,3.1784,3.1883,3.2038,3.2206,3.2287,3.2398,3.2398,3.2398,3.2398,3.2398,3.2336,3.2305,3.2439,3.2602,3.2998,3.3483,3.3478,3.2682,3.2981,3.3271,3.3786,3.3866,3.3882,3.3815,3.3832,3.3933,3.4034,3.4084,3.4381,3.4496,3.4742,3.5136,3.5712,3.6026,3.6572,3.7763,3.8179,3.8477,3.9023,3.9272,3.9272,3.9202,3.8701,3.8351,3.8222,3.8165,3.7879,3.737,3.7251,3.7191,3.7071,3.6707,3.6305,3.6305,3.5958,3.5782,3.5733,3.5604,3.5489,3.5385,3.506,3.4718,3.4435,3.4227,3.403,3.3774,3.3562,3.3606,3.3741,3.3621,3.3606,3.3634,3.3724,3.3694,3.3649,3.3664,3.3724,3.3784,3.4008,3.3781,3.3434,3.3404,3.3225,2.4024,2.4454,2.4436,2.4451,2.453,2.4284,2.4482,2.491,2.5004,2.6044,2.7322,2.7409,2.8373,2.9783,2.9143,2.8762,2.8983,2.9144,2.9123,2.9283,2.8994,2.9581,3.0367,3.1159,3.1497,3.1482,3.1467,3.1467,3.1467,3.1539,3.1597,3.1712,3.1826,3.2038,3.215,3.2247,3.2342,3.2398,3.2398,3.2398,3.2342,3.2327,3.2327,3.2398,3.2742,3.2958,3.298,3.3214,3.3098,3.2739,3.2835,3.2972,3.2933,3.2873,3.2888,3.298,3.3214,3.3423,3.3475,3.3982,3.4511,3.5168,3.5415,3.5811,3.6721,3.682,3.7301,3.803,3.8228,3.8593,3.9086,3.9272,3.9218,3.9023,3.859,3.7994,3.7648,3.7131,3.6845,3.66,3.6258,3.591,3.5958,3.5958,3.5733,3.5668,3.5604,3.5489,3.5489,3.5489,3.5489,3.5489,3.534,3.5093,3.4964,3.4785,3.4648,3.4527,3.4403,3.4307,3.4457,3.4397,3.4247,3.4352,3.4547,3.4472,3.4292,3.4607,3.4756,3.4696,3.4577,3.436,3.4193,3.407,3.3839,2.3937,2.4464,2.455,2.4514,2.4416,2.4221,2.4229,2.4533,2.4859,2.5216,2.6089,2.7085,2.8936,3.0568,2.999,2.9731,2.9701,2.9613,2.9438,2.9285,2.9094,2.9465,3.028,3.1108,3.1486,3.1498,3.1467,3.1467,3.1539,3.1612,3.1727,3.1784,3.1955,3.2053,3.2206,3.2287,3.2358,3.2398,3.2398,3.2342,3.2104,3.1814,3.1804,3.1921,3.2327,3.2477,3.2422,3.268,3.2477,3.2201,3.2241,3.2461,3.2437,3.2398,3.2398,3.2508,3.2895,3.3198,3.3423,3.4223,3.5068,3.5678,3.6041,3.6768,3.7366,3.7632,3.798,3.8493,3.8742,3.8838,3.8849,3.8827,3.8772,3.8311,3.7838,3.731,3.6951,3.66,3.6258,3.6022,3.5733,3.5619,3.5489,3.5489,3.5489,3.5619,3.5619,3.5489,3.5489,3.5489,3.5489,3.5489,3.5489,3.5404,3.5356,3.5299,3.5266,3.5157,3.503,3.5011,3.5115,3.4966,3.4756,3.4906,3.5026,3.51,3.504,3.54,3.5459,3.525,3.5036,3.5016,3.4857,3.4484,3.4265,2.3851,2.455,2.455,2.4322,2.3991,2.3981,2.3784,2.3669,2.4502,2.4589,2.4281,2.7139,2.9022,3.0454,3.0599,3.0609,3.0579,3.0212,2.9862,2.9725,2.9438,2.9794,3.0473,3.096,3.1424,3.1619,3.1735,3.1676,3.1642,3.1712,3.1841,3.1898,3.1996,3.215,3.2191,3.2247,3.2302,3.2398,3.2398,3.2176,3.1705,3.1282,3.1153,3.1507,3.1694,3.1864,3.1936,3.2104,3.1992,3.1422,3.1379,3.1712,3.2057,3.212,3.2104,3.212,3.261,3.3134,3.362,3.4678,3.5661,3.6025,3.6786,3.7548,3.8162,3.8394,3.8642,3.8957,3.9189,3.8941,3.8407,3.8407,3.8067,3.7546,3.6845,3.6492,3.6368,3.6368,3.5973,3.5668,3.5554,3.5489,3.5489,3.5489,3.5489,3.5489,3.5489,3.5489,3.5489,3.5489,3.5489,3.5489,3.5489,3.5489,3.5424,3.5428,3.5488,3.5295,3.5305,3.5285,3.5279,3.4955,3.4777,3.5215,3.54,3.54,3.54,3.5444,3.5489,3.5439,3.5329,3.516,3.4993,3.4817,3.4514,2.3937,2.455,2.455,2.4413,2.4374,2.4043,2.4043,2.4229,2.4232,2.4511,2.5218,2.6501,2.8327,2.9518,3.0049,3.0444,3.0706,3.0477,3.0346,3.032,2.9926,2.9927,3.0713,3.0801,3.1176,3.2034,3.2239,3.208,3.1953,3.1799,3.2125,3.2185,3.2211,3.2308,3.2364,3.2342,3.2342,3.2302,3.2373,3.2165,3.1519,3.0951,3.0819,3.1319,3.148,3.1522,3.1537,3.161,3.1379,3.0792,3.0747,3.1114,3.1558,3.1397,3.1205,3.1426,3.2257,3.3084,3.3748,3.4897,3.6231,3.7225,3.7791,3.8206,3.8841,3.904,3.9073,3.9086,3.9148,3.8969,3.8407,3.8108,3.7937,3.7413,3.6784,3.6321,3.6258,3.6037,3.5748,3.5489,3.5489,3.5489,3.5489,3.5489,3.5489,3.5489,3.5489,3.5489,3.5489,3.5489,3.5489,3.5489,3.5489,3.5489,3.5509,3.5494,3.5494,3.519,3.5008,3.4876,3.4839,3.4677,3.4758,3.5052,3.5344,3.5474,3.5474,3.5489,3.5439,3.5439,3.5294,3.5148,3.4802,3.4452,3.4399,2.3937,2.4464,2.455,2.455,2.4509,2.4322,2.4333,2.4488,2.4556,2.4861,2.5626,2.6614,2.7857,2.8955,2.9754,3.0355,3.0732,3.0751,3.0738,3.0751,3.0176,3.0165,3.097,3.0788,3.1116,3.1727,3.2119,3.2573,3.281,3.2957,3.2894,3.3111,3.2982,3.2865,3.2798,3.2567,3.2308,3.2165,3.2201,3.1917,3.1073,3.038,3.0468,3.0733,3.094,3.0896,3.1029,3.1029,3.1101,3.1049,3.1061,3.1424,3.1714,3.1787,3.1584,3.174,3.2496,3.3387,3.4275,3.5518,3.6857,3.789,3.8388,3.8821,3.9156,3.9255,3.9148,3.8898,3.8717,3.8367,3.7413,3.7354,3.7011,3.6554,3.6148,3.6022,3.5894,3.5683,3.5554,3.5489,3.5489,3.5489,3.5489,3.5489,3.5489,3.5489,3.5489,3.5489,3.5489,3.5489,3.5489,3.5489,3.5489,3.5489,3.5489,3.5554,3.5279,3.4971,3.4624,3.4476,3.4259,3.4109,3.4327,3.4691,3.4986,3.5213,3.5489,3.5489,3.5439,3.5294,3.5082,3.4802,3.437,3.4085,3.3962,2.3851,2.4292,2.4454,2.455,2.455,2.454,2.4519,2.47,2.5031,2.5359,2.5728,2.6764,2.7731,2.871,2.9661,3.0508,3.0986,3.096,3.096,3.0895,3.0555,3.0581,3.0921,3.1143,3.1324,3.1803,3.1958,3.2763,3.3295,3.3304,3.3592,3.3517,3.3361,3.331,3.3087,3.2755,3.2291,3.2161,3.1898,3.1471,3.0719,3.0162,3.0142,3.0483,3.0497,3.0801,3.118,3.1256,3.1384,3.1598,3.1787,3.2019,3.2571,3.2701,3.2824,3.301,3.3419,3.4059,3.5112,3.6166,3.7357,3.8405,3.8957,3.9206,3.9202,3.9094,3.8843,3.8407,3.8124,3.7706,3.6845,3.6492,3.6211,3.5797,3.5619,3.5489,3.5554,3.5489,3.5489,3.5489,3.5489,3.5489,3.5424,3.5489,3.5489,3.5489,3.5489,3.5489,3.5489,3.5489,3.5489,3.5489,3.5554,3.5554,3.5554,3.5554,3.5184,3.4595,3.4192,3.3919,3.3699,3.3478,3.3768,3.3988,3.4356,3.4572,3.5001,3.5279,3.4986,3.4773,3.4721,3.4356,3.363,3.3422,3.3367,2.359,2.3677,2.4292,2.455,2.455,2.455,2.4786,2.5115,2.52,2.5695,2.629,2.6483,2.7476,2.8961,3.0241,3.0836,3.0986,3.0986,3.0986,3.0947,3.0856,3.0843,3.0973,3.1022,3.1456,3.182,3.2024,3.261,3.3158,3.2838,3.2811,3.3096,3.3253,3.3028,3.3136,3.2868,3.2845,3.2573,3.1733,3.1243,3.1368,3.1118,3.1253,3.1532,3.1832,3.1931,3.1985,3.2034,3.2208,3.2338,3.2396,3.2716,3.3289,3.3536,3.3871,3.4103,3.4215,3.4421,3.577,3.6757,3.7818,3.8768,3.9222,3.9272,3.9094,3.8662,3.8351,3.8351,3.7822,3.7191,3.6492,3.6368,3.6085,3.5733,3.5489,3.5489,3.5489,3.5489,3.5489,3.5489,3.5489,3.5424,3.5359,3.5424,3.5489,3.5489,3.5489,3.5424,3.5279,3.5067,3.5001,3.492,3.4854,3.492,3.4854,3.4986,3.4624,3.4095,3.3685,3.3213,3.2932,3.272,3.2918,3.3143,3.3506,3.4002,3.4491,3.4624,3.4327,3.4041,3.3837,3.3339,3.2621,3.255,3.2635,2.2784,2.359,2.4186,2.455,2.455,2.455,2.4786,2.5211,2.5454,2.5957,2.6445,2.6775,2.7777,2.9349,3.0241,3.0672,3.0911,3.0986,3.0986,3.0986,3.0986,3.0986,3.0986,3.0986,3.1373,3.1508,3.1629,3.1861,3.2417,3.3164,3.3382,3.3543,3.3539,3.349,3.3284,3.3088,3.2752,3.226,3.1582,3.1539,3.2111,3.2154,3.1931,3.1997,3.222,3.2442,3.2507,3.2527,3.273,3.2933,3.3064,3.3354,3.3819,3.4074,3.4339,3.4721,3.4564,3.5152,3.6495,3.7342,3.8186,3.8945,3.9272,3.9148,3.8733,3.8181,3.7589,3.7235,3.7011,3.6554,3.6085,3.591,3.5733,3.5554,3.5489,3.5489,3.5489,3.5489,3.5489,3.5489,3.5424,3.5133,3.5001,3.5067,3.4986,3.4773,3.4691,3.4558,3.4274,3.3934,3.3934,3.3988,3.4002,3.4002,3.3934,3.3934,3.3575,3.3129,3.2918,3.2519,3.2101,3.1955,3.216,3.2577,3.3003,3.3506,3.3988,3.3822,3.3394,3.3171,3.289,3.2321,3.1756,3.1536,3.1489,2.2069,2.3047,2.3927,2.4282,2.4282,2.454,2.4956,2.538,2.5874,2.6302,2.6787,2.7452,2.8595,2.9745,3.0253,3.0672,3.0986,3.0986,3.0986,3.0986,3.0986,3.0986,3.0986,3.0986,3.1035,3.0996,3.1334,3.1649,3.2304,3.3031,3.3599,3.4056,3.37,3.3659,3.358,3.3245,3.2926,3.2582,3.197,3.2344,3.3149,3.303,3.2786,3.2672,3.2731,3.2862,3.2927,3.305,3.3354,3.3572,3.3703,3.392,3.4269,3.4432,3.4581,3.492,3.5041,3.5682,3.6583,3.7334,3.8238,3.8788,3.9202,3.9023,3.8407,3.7706,3.7131,3.66,3.6243,3.5973,3.5619,3.5569,3.5554,3.5554,3.5489,3.5489,3.5424,3.5198,3.4986,3.4905,3.4691,3.4423,3.4356,3.4639,3.4491,3.4124,3.3905,3.3699,3.3422,3.3157,3.3227,3.3437,3.3437,3.3437,3.3437,3.3227,3.272,3.2376,3.216,3.1882,3.1542,3.1468,3.1676,3.2101,3.2448,3.229,3.229,3.2407,3.2464,3.2249,3.1974,3.1476,3.1044,3.0758,3.062,2.1445,2.1624,2.296,2.359,2.3667,2.469,2.538,2.5812,2.629,2.6715,2.7219,2.8339,2.9497,3.0597,3.0816,3.0911,3.0986,3.0986,3.0986,3.0986,3.0986,3.0986,3.1061,3.1035,3.1044,3.1088,3.1328,3.1763,3.2128,3.2704,3.3143,3.3325,3.3476,3.3394,3.3338,3.3263,3.322,3.3028,3.2806,3.321,3.3868,3.3948,3.3776,3.3883,3.4076,3.4269,3.4269,3.4109,3.408,3.4211,3.4196,3.4211,3.4452,3.4601,3.4802,3.5052,3.5494,3.5991,3.6415,3.6829,3.7251,3.8124,3.8701,3.8717,3.7994,3.7589,3.7071,3.6368,3.5973,3.5668,3.5554,3.5489,3.5489,3.5424,3.5329,3.519,3.4993,3.4543,3.4327,3.4245,3.4041,3.3768,3.3422,3.3644,3.3644,3.3353,3.3003,3.2804,3.2861,3.2662,3.2875,3.2946,3.3017,3.3087,3.3087,3.2804,3.2245,3.2028,3.1809,3.1529,3.1185,3.1259,3.1334,3.1334,3.1542,3.1097,3.0797,3.1294,3.1489,3.1328,3.1044,3.0696,3.0482,3.0279,3.0139,2.0736,2.0826,2.1802,2.2696,2.359,2.4241,2.5009,2.5895,2.629,2.6798,2.7301,2.8566,2.9824,3.07,3.1007,3.0986,3.0986,3.0986,3.0986,3.0986,3.0986,3.0986,3.1061,3.1172,3.1254,3.1209,3.1596,3.2282,3.2811,3.2759,3.2945,3.3171,3.3312,3.3312,3.3312,3.3312,3.3312,3.3297,3.3353,3.3564,3.3998,3.4275,3.4214,3.4128,3.4278,3.4414,3.4385,3.4399,3.4414,3.4414,3.4414,3.4481,3.4549,3.475,3.4883,3.5082,3.5574,3.5767,3.6085,3.6492,3.7235,3.7488,3.7953,3.7895,3.737,3.6677,3.6196,3.5797,3.5683,3.5489,3.5489,3.5489,3.5489,3.5359,3.5169,3.4934,3.4559,3.4134,3.3673,3.3548,3.3367,3.3143,3.2861,3.2577,3.2577,3.2506,3.2173,3.1896,3.2042,3.2101,3.2173,3.2259,3.2245,3.2173,3.2173,3.1969,3.1836,3.1676,3.1529,3.1259,3.1048,3.1048,3.1123,3.0911,3.0836,3.0748,3.0659,3.0583,3.0583,3.057,3.0419,3.0139,2.9921,2.9779,2.9779,2.0292,2.0374,2.1257,2.2236,2.3396,2.4059,2.4988,2.6052,2.655,2.6891,2.7301,2.8554,2.9824,3.07,3.0994,3.0986,3.0986,3.0986,3.0986,3.0986,3.0986,3.0986,3.1123,3.132,3.1489,3.1469,3.196,3.2643,3.3169,3.2986,3.31,3.3241,3.3312,3.3312,3.3312,3.3312,3.3312,3.3297,3.3311,3.352,3.3913,3.4091,3.4283,3.4196,3.4346,3.4414,3.4414,3.4414,3.4414,3.4414,3.4481,3.4563,3.4698,3.4817,3.4964,3.5148,3.5279,3.5359,3.5733,3.6383,3.7071,3.7147,3.7429,3.7131,3.6492,3.5973,3.5958,3.5554,3.5489,3.5489,3.5489,3.5489,3.5489,3.5424,3.4824,3.447,3.4076,3.3682,3.3185,3.2858,3.2588,3.2232,3.2101,3.1823,3.1823,3.1823,3.1616,3.1408,3.1408,3.1408,3.1334,3.1334,3.1334,3.1198,3.1061,3.1272,3.1408,3.1334,3.1259,3.1198,3.0986,3.0986,3.0986,3.0986,3.0836,3.0609,3.0457,3.0368,3.0152,2.9946,2.9869,2.9856,2.9856,2.9779,2.9779,2.0283,2.0464,2.1516,2.2473,2.3347,2.4361,2.54,2.6445,2.6891,2.7149,2.7301,2.8554,2.9667,3.066,3.079,3.0849,3.0911,3.0911,3.0986,3.0986,3.0986,3.0986,3.1123,3.1408,3.1736,3.2128,3.2489,3.2945,3.3269,3.3185,3.3241,3.3241,3.3312,3.3312,3.3312,3.3312,3.3312,3.3297,3.3283,3.3534,3.3882,3.402,3.4225,3.4346,3.4346,3.4414,3.4414,3.4414,3.4414,3.4414,3.4549,3.4631,3.4683,3.4949,3.5148,3.5228,3.5374,3.5504,3.5554,3.6133,3.6368,3.6492,3.6845,3.6906,3.6492,3.6196,3.5958,3.5554,3.5489,3.5489,3.5489,3.5424,3.5344,3.5052,3.4461,3.3794,3.3393,3.2919,3.2359,3.2136,3.1596,3.1123,3.1123,3.1123,3.1123,3.1123,3.1061,3.0986,3.0986,3.0986,3.0986,3.0986,3.0986,3.0986,3.0986,3.0986,3.1061,3.0986,3.0986,3.0986,3.0986,3.0986,3.0986,3.0986,3.0761,3.052,3.0305,3.0088,2.9934,2.9792,2.9792,2.9779,2.9779,2.9779,2.9779,2.0736,2.1427,2.1863,2.3076,2.4628,2.5062,2.5735,2.6517,2.6974,2.7231,2.7383,2.8155,2.887,2.9638,3.0175,3.0355,3.0432,3.0911,3.0986,3.0986,3.0986,3.0986,3.1198,3.1556,3.1969,3.2273,3.2704,3.3086,3.3326,3.3312,3.3312,3.3312,3.3312,3.3312,3.3312,3.3312,3.3312,3.3297,3.3311,3.3506,3.3925,3.4131,3.4322,3.4414,3.4414,3.4414,3.4414,3.4414,3.4414,3.4414,3.4563,3.4616,3.475,3.5016,3.5148,3.5294,3.5504,3.5504,3.5489,3.5733,3.5782,3.6022,3.6321,3.643,3.591,3.5797,3.5683,3.5554,3.5489,3.5489,3.5489,3.4905,3.4677,3.4327,3.3739,3.2933,3.2423,3.1856,3.136,3.1373,3.1061,3.0986,3.0986,3.0986,3.0986,3.0986,3.0986,3.0986,3.0986,3.0986,3.0986,3.0986,3.0986,3.0986,3.0986,3.0986,3.0986,3.0986,3.0986,3.0986,3.0986,3.0986,3.0986,3.0986,3.0685,3.0368,3.0228,2.9998,2.9856,2.9779,2.9779,2.9779,2.9779,2.9779,2.9779,2.1168,2.2031,2.2726,2.3922,2.5411,2.5495,2.6008,2.6704,2.7056,2.7231,2.7301,2.7857,2.8271,2.8718,2.9312,2.9883,3.0037,3.0432,3.0898,3.0898,3.0986,3.0986,3.1198,3.1703,3.1982,3.2345,3.2789,3.3312,3.3312,3.3312,3.3312,3.3312,3.3312,3.3312,3.3312,3.3312,3.3312,3.3283,3.3311,3.352,3.3911,3.4243,3.4365,3.4375,3.4414,3.4414,3.4414,3.4414,3.4414,3.4414,3.4481,3.4616,3.4802,3.5016,3.5148,3.5424,3.5489,3.5489,3.5489,3.5489,3.5554,3.5619,3.591,3.5846,3.5569,3.5554,3.5554,3.5489,3.5489,3.5489,3.5359,3.4691,3.4177,3.3891,3.3185,3.2379,3.1974,3.1468,3.1061,3.1061,3.0986,3.0986,3.0986,3.0986,3.0986,3.0986,3.0986,3.0986,3.0986,3.0986,3.0986,3.0986,3.0986,3.0986,3.0986,3.0986,3.0986,3.0986,3.0986,3.0986,3.0986,3.0986,3.0986,3.0911,3.0609,3.0381,3.0152,2.9998,2.9856,2.9779,2.9779,2.9779,2.9779,2.9779,2.9779,2.1704,2.2287,2.4104,2.5052,2.5568,2.5673,2.6268,2.7149,2.7231,2.7231,2.7231,2.7869,2.7879,2.7622,2.8524,2.9316,2.9806,2.996,3.0432,3.0823,3.0898,3.0986,3.1272,3.1776,3.2028,3.2403,3.2789,3.3312,3.3312,3.3312,3.3312,3.3312,3.3312,3.3312,3.3312,3.3312,3.3312,3.3283,3.3353,3.3589,3.3911,3.4243,3.4351,3.4361,3.4414,3.4414,3.4414,3.4414,3.4414,3.4481,3.4563,3.475,3.4883,3.5082,3.5294,3.5424,3.5489,3.5489,3.5489,3.5489,3.5489,3.5489,3.5554,3.5504,3.5504,3.5489,3.5489,3.5489,3.5489,3.5439,3.5294,3.4624,3.4027,3.3408,3.2635,3.2218,3.1869,3.1542,3.1123,3.0986,3.0986,3.0986,3.0986,3.0986,3.0986,3.0986,3.0986,3.0986,3.0986,3.0986,3.0986,3.0986,3.0986,3.0986,3.0986,3.0986,3.0986,3.0986,3.0986,3.0986,3.0986,3.0986,3.0911,3.0836,3.0533,3.0305,3.0011,2.9934,2.9779,2.9779,2.9779,2.9779,2.9779,2.9779,2.9779,2.2639,2.4104,2.4967,2.5841,2.6622,2.6704,2.688,2.7231,2.7231,2.7231,2.7231,2.7383,2.7406,2.729,2.8063,2.8554,2.9028,2.9496,2.996,3.0432,3.0823,3.1123,3.1482,3.1909,3.206,3.2393,3.2777,3.3312,3.3312,3.3312,3.3312,3.3312,3.3312,3.3312,3.3312,3.3312,3.3326,3.3353,3.331,3.3575,3.3937,3.4268,3.4375,3.4428,3.4414,3.4414,3.4414,3.4414,3.4414,3.4414,3.4631,3.475,3.4868,3.5082,3.5294,3.5424,3.5489,3.5489,3.5489,3.5489,3.5489,3.5489,3.5489,3.5489,3.5489,3.5489,3.5489,3.5489,3.5424,3.5374,3.4854,3.4192,3.3547,3.2847,3.216,3.1676,3.1468,3.1334,3.0986,3.0986,3.0986,3.0986,3.0986,3.0986,3.0986,3.0986,3.0986,3.0986,3.0986,3.0986,3.0986,3.0986,3.0986,3.0986,3.0986,3.0986,3.0986,3.0986,3.0986,3.0986,3.0986,3.0986,3.0911,3.0685,3.0381,3.0164,2.9869,2.9792,2.9779,2.9779,2.9779,2.9779,2.9779,2.9779,2.9779,2.3337,2.4628,2.5568,2.6351,2.7115,2.7013,2.7024,2.7196,2.7231,2.7231,2.7231,2.7231,2.7231,2.7208,2.7615,2.8007,2.8327,2.8882,2.9496,3.0406,3.0646,3.1246,3.169,3.2114,3.2236,3.2481,3.282,3.3312,3.3312,3.3312,3.3312,3.3312,3.3312,3.3312,3.3396,3.3466,3.348,3.3479,3.3492,3.363,3.3879,3.4239,3.4375,3.4414,3.4414,3.4414,3.4414,3.4414,3.4414,3.4481,3.4698,3.4831,3.5016,3.5228,3.5359,3.5504,3.5489,3.5489,3.5489,3.5489,3.5489,3.5489,3.5489,3.5489,3.5489,3.5489,3.5489,3.5489,3.5424,3.5228,3.4423,3.363,3.2918,3.2232,3.1676,3.1123,3.1061,3.1061,3.0986,3.0986,3.0986,3.0986,3.0986,3.0986,3.0986,3.0986,3.0986,3.0986,3.0986,3.0986,3.0986,3.0986,3.0986,3.0986,3.0986,3.0986,3.0986,3.0986,3.0986,3.0986,3.0986,3.0911,3.0836,3.0533,3.0228,3.0011,2.9792,2.9792,2.9779,2.9779,2.9779,2.9779,2.9779,2.9779,2.9779,2.375,2.4392,2.5924,2.6798,2.708,2.6783,2.6829,2.7196,2.7231,2.7231,2.7231,2.7231,2.7231,2.7231,2.7301,2.7626,2.7938,2.8407,2.9263,3.0532,3.0696,3.122,3.2055,3.2475,3.2478,3.2579,3.282,3.3312,3.3312,3.3312,3.3312,3.3312,3.3312,3.3396,3.3536,3.3536,3.3605,3.3785,3.3644,3.3699,3.3977,3.4268,3.4365,3.4361,3.4414,3.4414,3.4414,3.4414,3.4481,3.4631,3.4765,3.4898,3.5162,3.5374,3.5439,3.5504,3.5489,3.5489,3.5489,3.5489,3.5489,3.5489,3.5489,3.5489,3.5489,3.5489,3.5489,3.5424,3.5294,3.4773,3.3988,3.3269,3.2506,3.1882,3.132,3.1048,3.0986,3.0986,3.0986,3.0986,3.0986,3.0986,3.0986,3.0986,3.0986,3.0986,3.0986,3.0986,3.0986,3.0986,3.0986,3.0986,3.0986,3.0986,3.0986,3.0986,3.0986,3.0986,3.0986,3.0911,3.0911,3.0836,3.0761,3.0457,3.0088,2.9934,2.9779,2.9779,2.9779,2.9779,2.9779,2.9779,2.9779,2.9779,2.9779,2.3998,2.5094,2.6456,2.7138,2.7219,2.7105,2.7082,2.7231,2.7231,2.7219,2.7231,2.7231,2.7231,2.7231,2.7231,2.7394,2.7545,2.8099,2.8949,2.9935,3.0456,3.1442,3.2345,3.2704,3.2818,3.3058,3.3227,3.3312,3.3312,3.3312,3.3312,3.3312,3.3312,3.3396,3.3605,3.3605,3.3744,3.4005,3.3934,3.3851,3.4128,3.4278,3.4428,3.4414,3.4414,3.4414,3.4414,3.4414,3.4414,3.4481,3.4735,3.5016,3.5374,3.5439,3.5504,3.5489,3.5489,3.5489,3.5489,3.5489,3.5489,3.5489,3.5489,3.5489,3.5489,3.5489,3.5424,3.5279,3.492,3.4259,3.363,3.2861,3.216,3.1603,3.111,3.1048,3.0986,3.0986,3.0986,3.0986,3.0986,3.0986,3.0986,3.0986,3.0986,3.0986,3.0986,3.0986,3.0986,3.0986,3.0986,3.0986,3.0986,3.0986,3.0986,3.0986,3.0986,3.0986,3.0986,3.0911,3.0836,3.0609,3.0457,3.0241,3.0011,2.9856,2.9779,2.9779,2.9779,2.9779,2.9779,2.9779,2.9779,2.9779,2.9779,2.3939,2.4682,2.5793,2.6551,2.6771,2.6657,2.668,2.6875,2.6898,2.7013,2.7219,2.7231,2.7231,2.7231,2.7231,2.7231,2.7313,2.7777,2.8846,2.9845,3.0532,3.1663,3.2345,3.286,3.3086,3.3241,3.3312,3.3312,3.3312,3.3312,3.3312,3.3326,3.3326,3.3396,3.3605,3.3744,3.3799,3.4196,3.4085,3.4099,3.421,3.4346,3.4414,3.4414,3.4414,3.4414,3.4414,3.4414,3.4481,3.4616,3.4883,3.5148,3.5439,3.5504,3.5489,3.5489,3.5489,3.5489,3.5489,3.5489,3.5489,3.5489,3.5489,3.5489,3.5489,3.5489,3.5489,3.5344,3.4758,3.4109,3.3408,3.2648,3.1955,3.132,3.1123,3.1061,3.0986,3.0986,3.0986,3.0986,3.0986,3.0986,3.0986,3.0986,3.0986,3.0986,3.0986,3.0986,3.0986,3.0986,3.0986,3.0986,3.0986,3.0986,3.0986,3.0986,3.0986,3.0986,3.0986,3.0911,3.0761,3.0381,3.0075,3.0011,2.9934,2.9856,2.9779,2.9779,2.9779,2.9779,2.9779,2.9779,2.9779,2.9779,2.9779,2.3495,2.3773,2.4675,2.5538,2.6222,2.5922,2.598,2.6335,2.645,2.6817,2.7197,2.7196,2.7231,2.7231,2.7231,2.7231,2.7394,2.7777,2.8834,2.9897,3.0291,3.1429,3.2259,3.2874,3.286,3.2986,3.317,3.3283,3.3312,3.3312,3.3326,3.3326,3.3326,3.3312,3.3605,3.366,3.3563,3.3951,3.4088,3.4239,3.4293,3.4346,3.4414,3.4414,3.4414,3.4414,3.4414,3.4414,3.4481,3.4683,3.4883,3.5228,3.5424,3.5489,3.5489,3.5489,3.5489,3.5489,3.5489,3.5489,3.5489,3.5489,3.5489,3.5489,3.5489,3.5489,3.5489,3.5198,3.4677,3.3959,3.3199,3.2362,3.1603,3.1185,3.1048,3.0986,3.0986,3.0986,3.0986,3.0986,3.0986,3.0986,3.0986,3.0986,3.0986,3.0986,3.0986,3.0986,3.0986,3.0986,3.0986,3.0986,3.0986,3.0986,3.0986,3.0986,3.0986,3.0986,3.0986,3.0849,3.0622,3.0228,2.9998,3.0011,2.9934,2.9779,2.9779,2.9779,2.9779,2.9779,2.9779,2.9779,2.9779,2.9779,2.9779,2.2439,2.3751,2.4366,2.5116,2.5753,2.5739,2.5773,2.5911,2.6278,2.6759,2.7082,2.7197,2.7231,2.7231,2.7371,2.7452,2.7452,2.7765,2.8991,3.0291,3.0075,3.1044,3.1796,3.2028,3.1942,3.2228,3.2798,3.3167,3.283,3.3016,3.3241,3.31,3.2461,3.2475,3.2789,3.2704,3.2618,3.3241,3.4027,3.4168,3.3687,3.3796,3.4346,3.4414,3.4414,3.4414,3.4414,3.4414,3.4414,3.4549,3.4817,3.5162,3.5359,3.5489,3.5489,3.5489,3.5489,3.5489,3.5489,3.5489,3.5489,3.5489,3.5489,3.5489,3.5489,3.5489,3.5424,3.5294,3.4639,3.3782,3.2946,3.1896,3.1123,3.1048,3.0986,3.0986,3.0986,3.0986,3.0986,3.0986,3.0986,3.0986,3.0986,3.0986,3.0986,3.0986,3.0986,3.0986,3.0986,3.0986,3.0986,3.0986,3.0986,3.0986,3.0986,3.0986,3.0986,3.0986,3.0911,3.0761,3.0457,3.0088,2.9934,2.9934,2.9856,2.9779,2.9779,2.9779,2.9779,2.9779,2.9779,2.9779,2.9779,2.9779,2.9779]},{"header":{"parameterUnit":"m.s-1","parameterCategory":1,"la1":31.0,"la2":29.5877,"lo1":-88.7671,"lo2":-86.6584,"dy":0.0162,"dx":0.0185,"nx":115,"ny":88,"refTime":"2024-09-12T18:00:00:Z","depth":0,"parameterNumber":3,"parameterNumberName":"V-component_of_WINDS"},"data":[0.0,0.0,0.0,0.0,0.0,0.0,0.0,0.0,0.0,0.0,0.0,0.0,0.0,0.0,0.0,0.0,0.0,0.0,0.0,0.0,0.0,0.0,0.0,0.0,0.0,0.0,0.0,0.0,0.0,0.0,0.0,0.0,0.0,0.0,0.0,0.0,0.0,0.0,0.0,0.0,0.0,0.0,0.0,0.0,0.0,0.0,0.0,0.0,0.0,0.0,0.0,0.0,0.0,0.0,0.0,0.0,0.0,0.0,0.0,0.0,0.0,0.0,0.0,0.0,0.0,0.0,0.0,0.0,0.0,0.0,0.0,0.0,0.0,0.0,0.0,0.0,0.0,0.0,0.0,0.0,0.0,0.0,0.0,0.0,0.0,0.0,0.0,0.0,0.0,0.0,0.0,0.0,0.0,0.0,0.0,0.0,0.0,0.0,0.0,0.0,0.0,0.0,0.0,0.0,0.0,0.0,0.0,0.0,0.0,0.0,0.0,0.0,0.0,0.0,0.0,0.0,0.0,0.0,0.0,0.0,0.0,0.0,0.0,0.0,0.0,0.0,0.0,0.0,0.0,0.0,0.0,0.0,0.0,0.0,0.0,0.0,0.0,0.0,0.0,0.0,0.0,0.0,0.0,0.0,0.0,0.0,0.0,0.0,0.0,0.0,0.0,0.0,0.0,0.0,0.0,0.0,0.0,0.0,0.0,0.0,0.0,0.0,0.0,0.0,0.0,0.0,0.0,0.0,0.0,0.0,0.0,0.0,0.0,0.0,0.0,0.0,0.0,0.0,0.0,0.0,0.0,0.0,0.0,0.0,0.0,0.0,0.0,0.0,0.0,0.0,0.0,0.0,0.0,0.0,0.0,0.0,0.0,0.0,0.0,0.0,0.0,0.0,0.0,0.0,0.0,0.0,0.0,0.0,0.0,0.0,0.0,0.0,0.0,0.0,0.0,0.0,0.0,0.0,0.0,0.0,0.0,0.0,0.0,0.0,0.0,0.0,0.0,0.0,0.0,0.0,0.0,0.0,0.0,0.0,0.0,0.0,0.0,0.0,0.0,0.0,0.0,0.0,0.0,0.0,0.0,0.0,0.0,0.0,0.0,0.0,0.0,0.0,0.0,0.0,0.0,0.0,0.0,0.0,0.0,0.0,0.0,0.0,0.0,0.0,0.0,0.0,0.0,0.0,0.0,0.0,0.0,0.0,0.0,0.0,0.0,0.0,0.0,0.0,0.0,0.0,0.0,0.0,0.0,0.0,0.0,0.0,0.0,0.0,0.0,0.0,0.0,0.0,0.0,0.0,0.0,0.0,0.0,0.0,0.0,0.0,0.0,0.0,0.0,0.0,0.0,0.0,0.0,0.0,0.0,0.0,0.0,0.0,0.0,0.0,0.0,0.0,0.0,0.0,0.0,0.0,0.0,0.0,0.0,0.0,0.0,0.0,0.0,0.0,0.0,0.0,0.0,0.0,0.0,0.0,0.0,0.0,0.0,0.0,0.0,0.0,0.0,0.0,0.0,0.0,0.0,0.0,0.0,0.0,0.0,0.0,0.0,0.0,0.0,0.0,0.0,0.0,0.0,0.0,0.0,0.0,0.0,0.0,0.0,0.0,0.0,0.0,0.0,0.0,0.0,0.0,0.0,0.0,0.0,0.0,0.0,0.0,0.0,0.0,0.0,0.0,0.0,0.0,0.0,0.0,0.0,0.0,0.0,0.0,0.0,0.0,0.0,0.0,0.0,0.0,0.0,0.0,0.0,0.0,0.0,0.0,0.0,0.0,0.0,0.0,0.0,0.0,0.0,0.0,0.0,0.0,0.0,0.0,0.0,0.0,0.0,0.0,0.0,0.0,0.0,0.0,0.0,0.0,0.0,0.0,0.0,0.0,0.0,0.0,0.0,0.0,0.0,0.0,0.0,0.0,0.0,0.0,0.0,0.0,0.0,0.0,0.0,0.0,0.0,0.0,0.0,0.0,0.0,0.0,0.0,0.0,0.0,0.0,0.0,0.0,0.0,0.0,0.0,0.0,0.0,0.0,0.0,0.0,0.0,0.0,0.0,0.0,0.0,0.0,0.0,0.0,0.0,0.0,0.0,0.0,0.0,0.0,0.0,0.0,0.0,0.0,0.0,0.0,0.0,0.0,0.0,0.0,0.0,0.0,0.0,0.0,0.0,0.0,0.0,0.0,0.0,0.0,0.0,0.0,0.0,0.0,0.0,0.0,0.0,0.0,0.0,0.0,0.0,0.0,0.0,0.0,0.0,0.0,0.0,0.0,0.0,0.0,0.0,0.0,0.0,0.0,0.0,0.0,0.0,0.0,0.0,0.0,0.0,0.0,0.0,0.0,0.0,0.0,0.0,0.0,0.0,0.0,0.0,0.0,0.0,0.0,0.0,0.0,0.0,0.0,0.0,0.0,0.0,0.0,0.0,0.0,0.0,0.0,0.0,0.0,0.0,0.0,0.0,0.0,0.0,0.0,0.0,0.0,0.0,0.0,0.0,0.0,0.0,0.0,0.0,0.0,0.0,0.0,0.0,0.0,0.0,0.0,0.0,0.0,0.0,0.0,0.0,0.0,0.0,0.0,0.0,0.0,0.0,0.0,0.0,0.0,0.0,0.0,0.0,0.0,0.0,0.0,0.0,0.0,0.0,0.0,0.0,0.0,0.0,0.0,0.0,0.0,0.0,0.0,0.0,0.0,0.0,0.0,0.0,0.0,0.0,0.0,0.0,0.0,0.0,0.0,0.0,0.0,0.0,0.0,0.0,0.0,0.0,0.0,0.0,0.0,0.0,0.0,0.0,0.0,0.0,0.0,0.0,0.0,0.0,0.0,0.0,0.0,0.0,0.0,0.0,0.0,0.0,0.0,0.0,0.0,0.0,0.0,0.0,0.0,0.0,0.0,0.0,0.0,0.0,0.0,0.0,0.0,0.0,0.0,0.0,0.0,0.0,0.0,0.0,0.0,0.0,0.0,0.0,0.0,0.0,0.0,0.0,0.0,0.0,0.0,0.0,0.0,0.0,0.0,0.0,0.0,0.0,0.0,0.0,0.0,0.0,0.0,0.0,0.0,0.0,0.0,0.0,0.0,0.0,0.0,0.0,0.0,0.0,0.0,0.0,0.0,0.0,0.0,0.0,0.0,0.0,0.0,0.0,0.0,0.0,0.0,0.0,0.0,0.0,0.0,0.0,0.0,0.0,0.0,0.0,0.0,0.0,0.0,0.0,0.0,0.0,0.0,0.0,0.0,0.0,0.0,0.0,0.0,0.0,0.0,0.0,0.0,0.0,0.0,0.0,0.0,0.0,0.0,0.0,0.0,0.0,0.0,0.0,0.0,0.0,0.0,0.0,0.0,0.0,0.0,0.0,0.0,0.0,0.0,0.0,0.0,0.0,0.0,0.0,0.0,0.0,0.0,0.0,0.0,0.0,0.0,0.0,0.0,0.0,0.0,0.0,0.0,0.0,0.0,0.0,0.0,0.0,0.0,0.0,0.0,0.0,0.0,0.0,0.0,0.0,0.0,0.0,0.0,0.0,0.0,0.0,0.0,0.0,0.0,0.0,0.0,0.0,0.0,0.0,0.0,0.0,0.0,0.0,0.0,0.0,0.0,0.0,0.0,0.0,0.0,0.0,0.0,0.0,0.0,0.0,0.0,0.0,0.0,0.0,0.0,0.0,0.0,0.0,0.0,0.0,0.0,0.0,0.0,0.0,0.0,0.0,0.0,0.0,0.0,0.0,0.0,0.0,0.0,0.0,0.0,0.0,0.0,0.0,0.0,0.0,0.0,0.0,0.0,0.0,0.0,0.0,0.0,0.0,0.0,0.0,0.0,0.0,0.0,0.0,0.0,0.0,0.0,0.0,0.0,0.0,0.0,0.0,0.0,0.0,0.0,0.0,0.0,0.0,0.0,0.0,0.0,0.0,0.0,0.0,0.0,0.0,0.0,0.0,0.0,0.0,0.0,0.0,0.0,0.0,0.0,0.0,0.0,0.0,0.0,0.0,0.0,0.0,0.0,0.0,0.0,0.0,0.0,0.0,0.0,0.0,0.0,0.0,0.0,0.0,0.0,0.0,0.0,0.0,0.0,0.0,0.0,0.0,0.0,0.0,0.0,0.0,0.0,0.0,0.0,0.0,0.0,0.0,0.0,0.0,0.0,0.0,0.0,0.0,0.0,0.0,0.0,0.0,0.0,0.0,0.0,0.0,0.0,0.0,0.0,0.0,0.0,0.0,0.0,0.0,0.0,0.0,0.0,0.0,0.0,0.0,0.0,-1.4629,0.0,0.0,0.0,0.0,0.0,0.0,0.0,0.0,0.0,0.0,0.0,0.0,0.0,0.0,0.0,0.0,0.0,0.0,0.0,0.0,0.0,0.0,0.0,0.0,0.0,0.0,0.0,0.0,0.0,0.0,0.0,0.0,0.0,0.0,0.0,0.0,0.0,0.0,0.0,0.0,0.0,0.0,0.0,0.0,0.0,0.0,0.0,0.0,0.0,0.0,0.0,0.0,0.0,0.0,0.0,0.0,0.0,0.0,0.0,0.0,0.0,0.0,0.0,0.0,0.0,0.0,0.0,0.0,0.0,0.0,0.0,0.0,0.0,0.0,0.0,0.0,0.0,0.0,0.0,0.0,0.0,0.0,0.0,0.0,0.0,0.0,0.0,0.0,0.0,0.0,0.0,0.0,0.0,0.0,0.0,0.0,0.0,0.0,0.0,0.0,0.0,0.0,0.0,0.0,0.0,0.0,0.0,0.0,0.0,0.0,-1.4416,-1.4405,-1.4478,-1.4257,-1.3689,0.0,0.0,0.0,0.0,0.0,0.0,0.0,0.0,0.0,0.0,0.0,0.0,0.0,0.0,0.0,0.0,0.0,0.0,0.0,0.0,0.0,0.0,0.0,0.0,0.0,0.0,0.0,0.0,0.0,0.0,0.0,0.0,0.0,0.0,0.0,0.0,0.0,0.0,0.0,0.0,0.0,0.0,0.0,0.0,0.0,0.0,0.0,0.0,0.0,0.0,0.0,0.0,0.0,0.0,0.0,0.0,0.0,0.0,0.0,0.0,0.0,0.0,0.0,0.0,0.0,0.0,0.0,0.0,0.0,0.0,0.0,0.0,0.0,0.0,0.0,0.0,0.0,0.0,0.0,0.0,0.0,0.0,0.0,0.0,0.0,0.0,0.0,0.0,0.0,0.0,0.0,0.0,0.0,0.0,0.0,0.0,0.0,0.0,0.0,0.0,0.0,0.0,0.0,0.0,0.0,0.0,0.0,0.0,0.0,0.0,0.0,0.0,-1.4485,-1.3913,-1.2889,0.0,0.0,0.0,0.0,0.0,0.0,0.0,0.0,0.0,0.0,0.0,0.0,0.0,0.0,0.0,0.0,0.0,0.0,0.0,0.0,0.0,0.0,0.0,0.0,0.0,0.0,0.0,0.0,0.0,0.0,0.0,0.0,0.0,0.0,0.0,0.0,0.0,0.0,0.0,0.0,0.0,0.0,0.0,0.0,0.0,0.0,0.0,0.0,0.0,0.0,0.0,0.0,0.0,0.0,0.0,0.0,0.0,0.0,0.0,0.0,0.0,0.0,0.0,0.0,0.0,0.0,0.0,0.0,0.0,0.0,0.0,0.0,0.0,0.0,0.0,0.0,0.0,0.0,0.0,0.0,0.0,0.0,0.0,0.0,0.0,0.0,0.0,0.0,0.0,0.0,0.0,0.0,0.0,0.0,0.0,0.0,0.0,0.0,0.0,0.0,0.0,0.0,0.0,0.0,0.0,0.0,0.0,0.0,0.0,0.0,-1.4781,-1.5533,-1.5189,0.0,-1.2852,0.0,0.0,0.0,0.0,0.0,0.0,0.0,0.0,0.0,0.0,0.0,0.0,0.0,0.0,0.0,0.0,0.0,0.0,0.0,0.0,0.0,0.0,0.0,0.0,0.0,0.0,0.0,0.0,0.0,0.0,0.0,0.0,0.0,0.0,0.0,0.0,0.0,0.0,0.0,0.0,0.0,0.0,0.0,0.0,0.0,0.0,0.0,0.0,0.0,0.0,0.0,0.0,0.0,0.0,0.0,0.0,0.0,0.0,0.0,0.0,0.0,0.0,0.0,0.0,0.0,0.0,0.0,0.0,0.0,0.0,0.0,0.0,0.0,0.0,0.0,0.0,0.0,0.0,0.0,0.0,0.0,0.0,0.0,0.0,0.0,0.0,0.0,0.0,0.0,0.0,0.0,0.0,0.0,0.0,0.0,0.0,0.0,0.0,0.0,0.0,0.0,0.0,0.0,0.0,0.0,0.0,0.0,0.0,0.0,0.0,-1.4938,-1.4698,-1.3387,-1.2336,0.0,0.0,0.0,0.0,0.0,0.0,0.0,0.0,0.0,0.0,0.0,0.0,0.0,0.0,0.0,0.0,0.0,0.0,0.0,0.0,0.0,0.0,0.0,0.0,0.0,0.0,0.0,0.0,0.0,0.0,0.0,0.0,0.0,0.0,0.0,0.0,0.0,0.0,0.0,0.0,0.0,0.0,0.0,0.0,0.0,0.0,0.0,0.0,0.0,0.0,0.0,0.0,0.0,0.0,0.0,0.0,0.0,0.0,0.0,0.0,0.0,0.0,0.0,0.0,0.0,0.0,0.0,0.0,0.0,0.0,0.0,0.0,0.0,0.0,0.0,0.0,0.0,0.0,0.0,0.0,0.0,0.0,0.0,0.0,0.0,0.0,0.0,0.0,0.0,0.0,0.0,0.0,0.0,0.0,0.0,0.0,0.0,0.0,0.0,0.0,0.0,0.0,0.0,0.0,0.0,0.0,0.0,0.0,0.0,0.0,-1.5022,-1.462,-1.3726,-1.2449,-1.1415,-1.0654,0.0,0.0,0.0,0.0,0.0,0.0,0.0,0.0,0.0,0.0,0.0,0.0,0.0,0.0,0.0,0.0,0.0,0.0,0.0,0.0,0.0,0.0,0.0,0.0,0.0,0.0,0.0,0.0,0.0,0.0,0.0,0.0,0.0,0.0,0.0,0.0,0.0,0.0,0.0,0.0,0.0,0.0,0.0,0.0,0.0,0.0,0.0,0.0,0.0,0.0,0.0,0.0,0.0,0.0,0.0,0.0,0.0,0.0,0.0,0.0,0.0,0.0,0.0,0.0,0.0,0.0,0.0,0.0,0.0,0.0,0.0,0.0,0.0,0.0,0.0,0.0,0.0,0.0,0.0,0.0,0.0,0.0,0.0,0.0,0.0,0.0,0.0,0.0,0.0,0.0,0.0,0.0,0.0,0.0,0.0,0.0,0.0,0.0,0.0,0.0,0.0,0.0,0.0,0.0,0.0,0.0,0.0,0.0,-1.6141,-1.4754,-1.3682,-1.3108,-1.3453,-1.2549,0.0,0.0,0.0,0.0,0.0,0.0,0.0,0.0,0.0,0.0,0.0,0.0,0.0,0.0,0.0,0.0,0.0,0.0,0.0,0.0,0.0,0.0,0.0,0.0,0.0,0.0,0.0,0.0,0.0,0.0,0.0,0.0,0.0,0.0,0.0,0.0,0.0,0.0,0.0,0.0,0.0,0.0,0.0,0.0,0.0,0.0,0.0,0.0,0.0,0.0,0.0,0.0,0.0,0.0,0.0,0.0,0.0,0.0,0.0,0.0,0.0,0.0,0.0,0.0,0.0,0.0,0.0,0.0,0.0,0.0,0.0,0.0,0.0,0.0,0.0,0.0,0.0,0.0,0.0,0.0,0.0,0.0,0.0,0.0,0.0,0.0,0.0,0.0,0.0,0.0,0.0,0.0,0.0,0.0,0.0,0.0,0.0,0.0,0.0,0.0,0.0,0.0,0.0,0.0,0.0,0.0,0.0,0.0,0.0,-1.3803,-1.349,-1.3481,-1.3724,-1.2376,-1.1211,0.0,0.0,0.0,0.0,0.0,0.0,0.0,0.0,0.0,0.0,0.0,0.0,0.0,0.0,0.0,0.0,0.0,0.0,0.0,0.0,0.0,0.0,0.0,0.0,0.0,0.0,0.0,0.0,0.0,0.0,0.0,0.0,0.0,0.0,0.0,0.0,0.0,0.0,0.0,0.0,0.0,0.0,0.0,0.0,0.0,0.0,0.0,0.0,0.0,0.0,0.0,0.0,0.0,0.0,0.0,0.0,0.0,0.0,0.0,0.0,0.0,0.0,0.0,0.0,0.0,0.0,0.0,0.0,0.0,0.0,0.0,0.0,0.0,0.0,0.0,0.0,0.0,0.0,0.0,0.0,0.0,0.0,0.0,0.0,0.0,0.0,0.0,0.0,0.0,0.0,0.0,0.0,0.0,0.0,0.0,0.0,0.0,0.0,0.0,0.0,0.0,0.0,0.0,0.0,0.0,0.0,0.0,0.0,0.0,-1.2237,0.0,-1.3235,-1.3207,-1.153,-1.0374,0.0,0.0,0.0,0.0,0.0,0.0,0.0,0.0,0.0,0.0,0.0,0.0,0.0,0.0,0.0,0.0,0.0,0.0,0.0,0.0,0.0,0.0,0.0,0.0,0.0,0.0,0.0,0.0,0.0,0.0,0.0,0.0,0.0,0.0,0.0,0.0,0.0,0.0,0.0,0.0,0.0,0.0,0.0,0.0,0.0,0.0,0.0,0.0,0.0,0.0,0.0,0.0,0.0,0.0,0.0,0.0,0.0,0.0,0.0,0.0,0.0,0.0,0.0,0.0,0.0,0.0,0.0,0.0,0.0,0.0,0.0,0.0,0.0,0.0,0.0,0.0,0.0,0.0,0.0,0.0,0.0,0.0,0.0,0.0,0.0,0.0,0.0,0.0,0.0,0.0,0.0,0.0,0.0,0.0,0.0,0.0,0.0,0.0,0.0,0.0,0.0,0.0,0.0,0.0,0.0,0.0,0.0,0.0,-1.2387,-1.185,-1.2946,-1.2891,-1.1501,-1.1105,-1.0352,0.0,0.0,0.0,0.0,0.0,0.0,0.0,0.0,0.0,0.0,0.0,0.0,0.0,0.0,0.0,0.0,0.0,0.0,0.0,0.0,0.0,0.0,0.0,0.0,0.0,0.0,0.0,0.0,0.0,0.0,0.0,0.0,0.0,0.0,0.0,0.0,0.0,0.0,0.0,0.0,0.0,0.0,0.0,0.0,0.0,0.0,0.0,0.0,0.0,0.0,0.0,0.0,0.0,0.0,0.0,0.0,0.0,0.0,0.0,0.0,0.0,0.0,0.0,0.0,0.0,0.0,0.0,0.0,0.0,0.0,0.0,0.0,0.0,0.0,0.0,0.0,0.0,0.0,0.0,0.0,0.0,0.0,0.0,0.0,0.0,0.0,0.0,0.0,0.0,0.0,0.0,0.0,0.0,0.0,0.0,0.0,0.0,0.0,0.0,0.0,0.0,0.0,0.0,0.0,0.0,0.0,0.0,0.0,0.0,-1.0827,-1.1974,-1.2624,-1.2598,-1.146,-1.0677,0.0,0.0,0.0,0.0,0.0,0.0,0.0,0.0,0.0,0.0,0.0,0.0,0.0,0.0,0.0,0.0,0.0,0.0,0.0,0.0,0.0,0.0,0.0,0.0,0.0,0.0,0.0,0.0,0.0,0.0,0.0,0.0,0.0,0.0,0.0,0.0,0.0,0.0,0.0,0.0,0.0,0.0,0.0,0.0,0.0,0.0,0.0,0.0,0.0,0.0,0.0,0.0,0.0,0.0,0.0,0.0,0.0,0.0,0.0,0.0,0.0,0.0,0.0,0.0,0.0,0.0,0.0,0.0,0.0,0.0,0.0,0.0,0.0,0.0,0.0,0.0,0.0,0.0,0.0,0.0,0.0,0.0,0.0,0.0,0.0,0.0,0.0,0.0,0.0,0.0,0.0,0.0,0.0,0.0,0.0,0.0,0.0,0.0,0.0,0.0,0.0,0.0,0.0,0.0,0.0,0.0,0.0,0.0,0.0,-1.09,-1.1859,-1.2569,-1.3001,-1.1637,-1.0893,-1.0822,0.0,0.0,0.0,0.0,0.0,0.0,0.0,0.0,0.0,0.0,0.0,0.0,0.0,0.0,0.0,0.0,0.0,0.0,0.0,0.0,0.0,0.0,0.0,0.0,0.0,0.0,0.0,0.0,0.0,0.0,0.0,0.0,0.0,0.0,0.0,0.0,0.0,0.0,0.0,0.0,0.0,0.0,0.0,0.0,0.0,0.0,0.0,0.0,0.0,0.0,0.0,0.0,0.0,0.0,0.0,0.0,0.0,0.0,0.0,0.0,0.0,0.0,0.0,0.0,0.0,0.0,0.0,0.0,0.0,0.0,0.0,0.0,0.0,0.0,0.0,0.0,0.0,0.0,0.0,0.0,0.0,0.0,0.0,0.0,0.0,0.0,0.0,0.0,0.0,0.0,0.0,0.0,0.0,0.0,0.0,0.0,0.0,0.0,0.0,0.0,0.0,0.0,0.0,0.0,0.0,0.0,0.0,0.0,-1.1844,-1.2492,-1.2833,-1.2802,-1.1741,-1.1064,0.0,0.0,0.0,0.0,0.0,0.0,0.0,0.0,0.0,0.0,0.0,0.0,0.0,0.0,0.0,0.0,0.0,0.0,0.0,0.0,0.0,0.0,0.0,0.0,0.0,0.0,0.0,0.0,0.0,0.0,0.0,0.0,0.0,0.0,0.0,0.0,0.0,0.0,0.0,0.0,0.0,0.0,0.0,0.0,0.0,0.0,0.0,0.0,0.0,0.0,0.0,0.0,0.0,0.0,0.0,0.0,0.0,0.0,0.0,0.0,0.0,0.0,0.0,0.0,0.0,0.0,0.0,0.0,0.0,0.0,0.0,0.0,0.0,0.0,0.0,0.0,0.0,0.0,0.0,0.0,0.0,0.0,0.0,0.0,0.0,0.0,0.0,0.0,0.0,0.0,0.0,0.0,0.0,0.0,0.0,0.0,0.0,0.0,0.0,0.0,0.0,0.0,0.0,0.0,0.0,0.0,0.0,0.0,0.0,-1.3496,-1.4119,-1.4277,-1.3803,-1.2487,-1.1777,0.0,0.0,0.0,0.0,0.0,0.0,0.0,0.0,0.0,0.0,0.0,0.0,0.0,0.0,0.0,0.0,0.0,0.0,0.0,0.0,0.0,0.0,0.0,0.0,0.0,0.0,0.0,0.0,0.0,0.0,0.0,0.0,0.0,0.0,0.0,0.0,0.0,0.0,0.0,0.0,0.0,0.0,0.0,0.0,0.0,0.0,0.0,0.0,0.0,0.0,0.0,0.0,0.0,0.0,0.0,0.0,0.0,0.0,0.0,0.0,0.0,0.0,0.0,0.0,0.0,0.0,0.0,0.0,0.0,0.0,0.0,0.0,0.0,0.0,0.0,0.0,0.0,0.0,0.0,0.0,0.0,0.0,0.0,0.0,0.0,0.0,0.0,0.0,0.0,0.0,0.0,0.0,0.0,0.0,0.0,0.0,0.0,0.0,0.0,0.0,0.0,0.0,0.0,0.0,0.0,0.0,0.0,0.0,-1.4597,-1.4555,-1.5474,-1.5663,-1.5001,-1.3929,-1.2928,0.0,0.0,0.0,0.0,0.0,0.0,0.0,0.0,0.0,0.0,0.0,0.0,0.0,0.0,0.0,0.0,0.0,0.0,0.0,0.0,0.0,0.0,0.0,0.0,0.0,0.0,0.0,0.0,0.0,0.0,0.0,0.0,0.0,0.0,0.0,0.0,0.0,0.0,0.0,0.0,0.0,0.0,0.0,0.0,0.0,0.0,0.0,0.0,0.0,0.0,0.0,0.0,0.0,0.0,0.0,0.0,0.0,0.0,0.0,0.0,0.0,0.0,0.0,0.0,0.0,0.0,0.0,0.0,0.0,0.0,0.0,0.0,0.0,0.0,0.0,0.0,0.0,0.0,0.0,0.0,0.0,0.0,0.0,0.0,0.0,0.0,0.0,0.0,0.0,0.0,0.0,0.0,0.0,0.0,0.0,0.0,0.0,0.0,0.0,0.0,0.0,0.0,0.0,0.0,0.0,0.0,0.0,0.0,-1.5567,-1.5221,-1.6495,-1.6823,-1.614,-1.5481,-1.4169,0.0,0.0,0.0,0.0,0.0,0.0,0.0,0.0,0.0,0.0,0.0,0.0,0.0,0.0,0.0,0.0,0.0,0.0,0.0,0.0,0.0,0.0,0.0,0.0,0.0,0.0,0.0,0.0,0.0,0.0,0.0,0.0,0.0,0.0,0.0,0.0,0.0,0.0,0.0,0.0,0.0,0.0,0.0,0.0,0.0,0.0,0.0,0.0,0.0,0.0,0.0,0.0,0.0,0.0,0.0,0.0,0.0,0.0,0.0,0.0,0.0,0.0,0.0,0.0,0.0,0.0,0.0,0.0,0.0,0.0,0.0,0.0,0.0,0.0,0.0,0.0,0.0,0.0,0.0,0.0,0.0,0.0,0.0,0.0,0.0,0.0,0.0,0.0,0.0,0.0,0.0,0.0,0.0,0.0,0.0,0.0,0.0,0.0,0.0,0.0,0.0,0.0,0.0,0.0,0.0,0.0,0.0,0.0,-1.549,-1.5823,-1.6581,-1.6792,-1.6413,-1.5152,-1.3984,0.0,0.0,0.0,0.0,0.0,0.0,0.0,0.0,0.0,0.0,0.0,0.0,0.0,0.0,0.0,0.0,0.0,0.0,0.0,0.0,0.0,0.0,0.0,0.0,0.0,0.0,0.0,0.0,0.0,0.0,0.0,0.0,0.0,0.0,0.0,0.0,0.0,0.0,0.0,0.0,0.0,0.0,0.0,0.0,0.0,0.0,0.0,0.0,-0.9205,0.0,0.0,0.0,0.0,0.0,0.0,0.0,0.0,0.0,0.0,0.0,0.0,0.0,0.0,0.0,0.0,0.0,0.0,0.0,0.0,0.0,0.0,0.0,0.0,0.0,0.0,0.0,0.0,0.0,0.0,0.0,0.0,0.0,0.0,0.0,0.0,0.0,0.0,0.0,0.0,0.0,0.0,0.0,0.0,0.0,0.0,0.0,0.0,0.0,0.0,0.0,0.0,0.0,0.0,0.0,0.0,0.0,0.0,0.0,-1.6302,-1.6968,-1.7288,-1.7253,-1.6877,-1.5515,-1.4138,0.0,0.0,0.0,0.0,0.0,0.0,0.0,0.0,0.0,0.0,0.0,0.0,0.0,0.0,0.0,0.0,0.0,0.0,0.0,0.0,0.0,0.0,0.0,0.0,0.0,0.0,0.0,0.0,0.0,0.0,0.0,0.0,0.0,0.0,0.0,0.0,0.0,0.0,0.0,0.0,0.0,0.0,0.0,0.0,0.0,0.0,0.0,0.0,0.0,0.0,0.0,0.0,0.0,0.0,0.0,0.0,0.0,0.0,0.0,0.0,0.0,0.0,0.0,0.0,0.0,0.0,0.0,0.0,0.0,0.0,0.0,0.0,0.0,0.0,0.0,0.0,0.0,0.0,0.0,0.0,0.0,0.0,0.0,0.0,0.0,0.0,0.0,0.0,0.0,0.0,0.0,0.0,0.0,0.0,0.0,0.0,0.0,0.0,0.0,0.0,0.0,0.0,0.0,0.0,0.0,0.0,0.0,-1.5739,-1.7097,-1.7949,-1.7908,-1.7655,-1.731,-1.5866,-1.427,-1.2645,0.0,0.0,0.0,0.0,0.0,0.0,0.0,0.0,0.0,0.0,0.0,0.0,0.0,0.0,0.0,0.0,0.0,0.0,0.0,0.0,0.0,0.0,0.0,0.0,0.0,0.0,0.0,0.0,0.0,0.0,0.0,0.0,0.0,0.0,0.0,0.0,0.0,0.0,-0.8883,-0.923,0.0,0.0,0.0,0.0,0.0,0.0,0.0,0.0,-0.9443,0.0,0.0,0.0,0.0,0.0,0.0,0.0,0.0,0.0,0.0,0.0,0.0,0.0,0.0,0.0,0.0,0.0,0.0,0.0,0.0,0.0,0.0,0.0,0.0,0.0,0.0,0.0,0.0,0.0,0.0,0.0,0.0,0.0,0.0,0.0,0.0,0.0,0.0,0.0,0.0,0.0,0.0,0.0,0.0,0.0,0.0,0.0,0.0,0.0,0.0,0.0,0.0,0.0,0.0,0.0,0.0,-1.5545,-1.5598,-1.6215,-1.7551,-1.7276,-1.7054,-1.6934,-1.5334,-1.3823,-1.2531,0.0,0.0,0.0,0.0,0.0,0.0,0.0,0.0,0.0,0.0,0.0,0.0,0.0,0.0,0.0,0.0,0.0,0.0,0.0,0.0,0.0,0.0,0.0,0.0,0.0,0.0,0.0,0.0,0.0,0.0,0.0,0.0,0.0,0.0,0.0,0.0,0.0,0.0,0.0,-1.0119,-1.0208,0.0,0.0,0.0,0.0,0.0,0.0,0.0,0.0,-0.972,0.0,0.0,0.0,0.0,0.0,0.0,0.0,0.0,0.0,0.0,0.0,0.0,0.0,0.0,0.0,0.0,0.0,0.0,0.0,0.0,0.0,0.0,0.0,0.0,0.0,0.0,0.0,0.0,0.0,0.0,0.0,0.0,0.0,0.0,0.0,0.0,0.0,0.0,0.0,0.0,0.0,0.0,0.0,0.0,0.0,0.0,0.0,0.0,0.0,0.0,0.0,0.0,0.0,0.0,0.0,-1.5251,-1.5742,-1.6506,-1.7688,-1.6879,-1.6441,-1.6398,-1.4353,-1.2728,0.0,0.0,0.0,0.0,0.0,0.0,0.0,0.0,0.0,0.0,0.0,0.0,0.0,0.0,0.0,0.0,0.0,0.0,0.0,0.0,0.0,0.0,0.0,0.0,0.0,0.0,0.0,0.0,0.0,0.0,0.0,0.0,0.0,0.0,0.0,0.0,0.0,0.0,0.0,0.0,-1.0286,-1.0491,-1.0904,0.0,0.0,0.0,0.0,0.0,0.0,-0.9666,-0.9674,0.0,0.0,0.0,0.0,0.0,0.0,0.0,0.0,0.0,0.0,0.0,0.0,0.0,0.0,0.0,0.0,0.0,0.0,0.0,0.0,0.0,0.0,0.0,0.0,0.0,0.0,0.0,0.0,0.0,0.0,0.0,0.0,0.0,0.0,0.0,0.0,0.0,0.0,0.0,0.0,0.0,0.0,0.0,0.0,0.0,0.0,0.0,0.0,0.0,0.0,0.0,0.0,0.0,0.0,0.0,-1.479,-1.5831,-1.6838,-1.7652,-1.6637,-1.6001,-1.5864,-1.367,-1.2004,0.0,0.0,0.0,0.0,0.0,0.0,0.0,0.0,0.0,0.0,0.0,0.0,0.0,0.0,0.0,0.0,0.0,0.0,0.0,0.0,0.0,0.0,0.0,0.0,0.0,0.0,0.0,0.0,0.0,0.0,0.0,0.0,0.0,0.0,0.0,0.0,0.0,0.0,0.0,0.0,0.0,-1.0998,-1.1388,-1.0914,0.0,0.0,0.0,0.0,-1.0412,-1.0206,0.0,0.0,0.0,0.0,0.0,0.0,0.0,0.0,0.0,0.0,0.0,0.0,0.0,0.0,0.0,0.0,0.0,0.0,0.0,0.0,0.0,0.0,0.0,0.0,0.0,0.0,0.0,0.0,0.0,0.0,0.0,0.0,0.0,0.0,0.0,0.0,0.0,0.0,0.0,0.0,0.0,0.0,0.0,0.0,0.0,0.0,0.0,0.0,0.0,0.0,0.0,0.0,0.0,0.0,0.0,0.0,-1.4722,-1.5571,-1.6271,-1.6902,-1.651,-1.6077,-1.5635,-1.4215,-1.2716,0.0,0.0,0.0,0.0,0.0,0.0,0.0,0.0,0.0,0.0,0.0,0.0,0.0,0.0,0.0,0.0,0.0,0.0,0.0,0.0,0.0,0.0,0.0,0.0,0.0,0.0,0.0,0.0,0.0,0.0,0.0,0.0,0.0,0.0,0.0,0.0,0.0,0.0,0.0,0.0,0.0,-1.2351,-1.2042,-1.1555,-1.1318,0.0,0.0,-1.1143,-1.1244,-1.1666,0.0,0.0,0.0,0.0,0.0,0.0,0.0,0.0,0.0,0.0,0.0,0.0,0.0,0.0,0.0,0.0,0.0,0.0,0.0,0.0,0.0,0.0,0.0,0.0,0.0,0.0,0.0,0.0,0.0,0.0,0.0,0.0,0.0,0.0,0.0,0.0,0.0,0.0,0.0,0.0,0.0,0.0,0.0,0.0,0.0,0.0,0.0,0.0,0.0,0.0,0.0,0.0,0.0,0.0,0.0,-1.2784,-1.4741,-1.5687,-1.625,-1.6476,-1.6077,-1.5602,-1.5096,-1.3376,-1.1764,0.0,0.0,0.0,0.0,0.0,0.0,0.0,0.0,0.0,0.0,0.0,0.0,0.0,0.0,0.0,0.0,0.0,0.0,0.0,0.0,0.0,0.0,0.0,0.0,0.0,0.0,0.0,0.0,0.0,0.0,0.0,0.0,0.0,0.0,0.0,0.0,0.0,0.0,0.0,0.0,0.0,0.0,-1.2435,-1.2009,0.0,0.0,0.0,-1.1762,-1.1861,0.0,0.0,0.0,0.0,0.0,0.0,0.0,0.0,0.0,0.0,0.0,0.0,0.0,0.0,0.0,0.0,0.0,0.0,0.0,0.0,0.0,0.0,0.0,0.0,0.0,0.0,0.0,0.0,0.0,0.0,0.0,0.0,0.0,0.0,0.0,0.0,0.0,0.0,0.0,0.0,0.0,0.0,0.0,0.0,0.0,0.0,0.0,0.0,0.0,0.0,0.0,0.0,0.0,0.0,0.0,0.0,0.0,-1.469,-1.5795,-1.6308,-1.6176,-1.5806,-1.5291,-1.464,-1.2828,0.0,0.0,0.0,0.0,0.0,0.0,0.0,0.0,0.0,0.0,0.0,0.0,0.0,0.0,0.0,0.0,0.0,0.0,0.0,0.0,0.0,0.0,0.0,0.0,0.0,0.0,0.0,-0.5608,0.0,0.0,0.0,0.0,0.0,0.0,0.0,0.0,0.0,0.0,0.0,0.0,0.0,0.0,-1.1818,-1.2552,-1.2289,-1.2267,0.0,0.0,-1.21,-1.2426,-1.1922,-1.1175,0.0,0.0,0.0,0.0,0.0,0.0,0.0,0.0,0.0,0.0,0.0,0.0,0.0,0.0,0.0,0.0,0.0,0.0,0.0,0.0,0.0,0.0,0.0,0.0,0.0,0.0,0.0,0.0,0.0,0.0,0.0,0.0,0.0,0.0,0.0,0.0,0.0,0.0,0.0,0.0,0.0,0.0,0.0,0.0,0.0,0.0,0.0,0.0,0.0,0.0,0.0,0.0,0.0,0.0,-1.2785,-1.4495,-1.5885,-1.6324,-1.5828,-1.582,-1.5337,-1.4419,-1.3379,-1.1921,0.0,0.0,0.0,0.0,0.0,0.0,0.0,0.0,0.0,0.0,0.0,0.0,0.0,0.0,0.0,0.0,0.0,0.0,0.0,0.0,0.0,0.0,0.0,0.0,0.0,0.0,0.0,0.0,0.0,0.0,0.0,0.0,0.0,0.0,0.0,0.0,0.0,0.0,0.0,0.0,0.0,-1.2154,-1.2246,-1.2204,-1.2332,0.0,-1.2365,-1.2192,-1.2763,-1.2944,-1.2523,-1.0993,0.0,0.0,0.0,0.0,0.0,0.0,0.0,0.0,0.0,0.0,0.0,0.0,0.0,0.0,0.0,0.0,0.0,0.0,0.0,0.0,0.0,0.0,0.0,0.0,0.0,0.0,0.0,0.0,0.0,0.0,0.0,0.0,0.0,0.0,0.0,0.0,0.0,0.0,0.0,0.0,0.0,0.0,0.0,0.0,0.0,0.0,0.0,0.0,0.0,0.0,0.0,0.0,0.0,-1.2711,-1.446,-1.5839,-1.6315,-1.5828,-1.5832,-1.5348,-1.443,-1.3445,-1.2167,0.0,0.0,0.0,0.0,0.0,0.0,0.0,0.0,0.0,0.0,0.0,0.0,0.0,0.0,0.0,0.0,0.0,0.0,0.0,0.0,0.0,0.0,0.0,0.0,0.0,0.0,0.0,0.0,-0.6968,-0.7166,-0.7276,0.0,0.0,0.0,0.0,0.0,0.0,0.0,0.0,0.0,0.0,-1.222,-1.2473,-1.2426,0.0,0.0,-1.2619,-1.2474,-1.3025,-1.2439,-1.1698,-1.0919,-1.042,0.0,0.0,0.0,0.0,0.0,0.0,0.0,0.0,0.0,0.0,0.0,0.0,0.0,0.0,0.0,0.0,0.0,0.0,0.0,0.0,0.0,0.0,0.0,0.0,0.0,0.0,0.0,0.0,0.0,0.0,0.0,0.0,0.0,0.0,0.0,0.0,0.0,0.0,0.0,0.0,0.0,0.0,0.0,0.0,0.0,0.0,0.0,0.0,0.0,0.0,0.0,0.0,-1.2974,-1.4487,-1.5881,-1.6317,-1.5808,-1.582,-1.5337,-1.4419,-1.3576,-1.2443,0.0,0.0,0.0,0.0,0.0,0.0,0.0,0.0,0.0,0.0,0.0,0.0,0.0,0.0,0.0,0.0,0.0,0.0,0.0,0.0,0.0,0.0,0.0,0.0,0.0,0.0,0.0,0.0,-0.7473,-0.768,-0.7782,0.0,0.0,0.0,0.0,0.0,0.0,0.0,0.0,0.0,0.0,-1.2091,-1.257,-1.2578,-1.2618,-1.2939,-1.2706,-1.2569,-1.2939,-1.2147,-1.1348,-1.1128,0.0,0.0,0.0,0.0,0.0,0.0,0.0,0.0,0.0,0.0,0.0,0.0,0.0,0.0,0.0,0.0,0.0,0.0,0.0,0.0,0.0,0.0,0.0,0.0,0.0,0.0,0.0,-1.1892,0.0,0.0,-1.0425,0.0,0.0,0.0,0.0,0.0,0.0,0.0,0.0,0.0,0.0,0.0,0.0,0.0,0.0,0.0,0.0,0.0,0.0,0.0,0.0,0.0,0.0,-1.3587,-1.4501,-1.5999,-1.646,-1.5852,-1.582,-1.5348,-1.4466,-1.3914,-1.2986,-1.1485,0.0,0.0,0.0,0.0,0.0,0.0,0.0,0.0,0.0,0.0,0.0,0.0,0.0,0.0,0.0,0.0,0.0,0.0,0.0,0.0,0.0,0.0,0.0,0.0,0.0,0.0,-0.6797,-0.7016,-0.7392,0.0,0.0,0.0,0.0,0.0,0.0,0.0,0.0,0.0,-1.1117,-1.1544,-1.195,-1.2472,-1.2529,-1.2499,-1.2539,-1.2391,-1.2382,-1.252,-1.2246,-1.1969,0.0,0.0,0.0,0.0,0.0,0.0,0.0,0.0,0.0,0.0,0.0,0.0,0.0,0.0,0.0,0.0,0.0,0.0,0.0,0.0,0.0,0.0,0.0,0.0,0.0,0.0,0.0,-1.4404,-1.3446,0.0,0.0,0.0,0.0,0.0,0.0,0.0,0.0,0.0,0.0,0.0,-1.4809,-1.5216,0.0,0.0,0.0,0.0,0.0,0.0,0.0,0.0,0.0,0.0,0.0,0.0,-1.3544,-1.4278,-1.593,-1.6639,-1.6256,-1.5855,-1.5371,-1.4731,-1.3925,-1.2583,-1.0823,0.0,0.0,0.0,0.0,0.0,0.0,0.0,0.0,0.0,0.0,0.0,0.0,0.0,0.0,0.0,0.0,0.0,0.0,0.0,0.0,0.0,0.0,0.0,0.0,0.0,-0.7978,0.0,0.0,0.0,0.0,0.0,0.0,0.0,0.0,0.0,0.0,-1.0845,-1.1433,-1.1914,-1.2082,-1.2267,-1.272,-1.2684,-1.2624,0.0,0.0,0.0,0.0,0.0,0.0,0.0,0.0,0.0,0.0,0.0,0.0,0.0,0.0,-1.2221,-1.123,-1.0924,-1.0819,-1.0978,0.0,0.0,0.0,0.0,0.0,0.0,0.0,0.0,0.0,0.0,0.0,0.0,0.0,0.0,-1.569,-1.4928,-1.5304,0.0,0.0,0.0,0.0,0.0,0.0,0.0,0.0,-1.5868,-1.6517,-1.6818,-1.695,-1.695,-1.6802,-1.6787,-1.5441,0.0,0.0,0.0,0.0,0.0,0.0,0.0,0.0,-1.4032,-1.4373,-1.5983,-1.6692,-1.6411,-1.6005,-1.5509,-1.4858,-1.3847,-1.2605,-1.1227,-1.0545,-0.9636,0.0,0.0,0.0,0.0,0.0,0.0,0.0,0.0,0.0,0.0,0.0,0.0,0.0,0.0,0.0,0.0,0.0,0.0,0.0,0.0,0.0,0.0,0.0,-0.8326,0.0,0.0,0.0,0.0,0.0,0.0,0.0,0.0,0.0,-1.1041,-1.1479,-1.1911,-1.2426,-1.2337,-1.2419,-1.2967,0.0,0.0,0.0,0.0,0.0,0.0,0.0,-1.2204,-1.2461,-1.2278,-1.2149,-1.2259,-1.2669,-1.3047,-1.3506,0.0,0.0,-1.2955,-1.2573,-1.2425,-1.256,-1.2839,-1.3001,-1.2904,-1.3421,-1.3943,0.0,0.0,0.0,0.0,-1.7555,0.0,0.0,0.0,-1.6712,-1.6485,0.0,-1.6328,0.0,0.0,0.0,0.0,-1.4944,-1.6445,0.0,0.0,-1.8355,-1.901,-1.8672,-1.8056,-1.8085,-1.8683,-1.8668,-1.7963,-1.6605,-1.479,0.0,0.0,0.0,0.0,0.0,0.0,-1.5052,-1.477,-1.614,-1.6689,-1.6231,-1.6157,-1.5676,-1.4687,-1.379,-1.3072,-1.2616,-1.1715,-1.0788,-0.9781,-0.8868,0.0,0.0,0.0,0.0,0.0,0.0,0.0,0.0,0.0,0.0,0.0,0.0,0.0,0.0,0.0,0.0,0.0,0.0,0.0,0.0,-0.7996,0.0,0.0,0.0,0.0,0.0,0.0,0.0,0.0,0.0,-1.1822,-1.1846,-1.1752,-1.1937,-1.2632,0.0,0.0,0.0,0.0,-1.2908,-1.325,-1.3314,-1.3305,-1.3286,-1.3277,-1.3277,-1.325,0.0,0.0,-1.2846,-1.3112,-1.3495,-1.3939,-1.4393,-1.4795,-1.5248,-1.4603,-1.4242,-1.4489,-1.4567,-1.4602,-1.4584,-1.5014,-1.5582,-2.1396,0.0,0.0,0.0,0.0,-1.8651,-1.885,-1.953,-1.8888,-1.836,-1.7868,-1.7804,0.0,0.0,0.0,0.0,0.0,0.0,-1.733,-1.8149,-1.8624,-1.9045,-1.939,-1.8927,-1.8797,-1.8973,-1.87,-1.8121,-1.7277,-1.6701,-1.5538,-1.3901,0.0,0.0,0.0,0.0,-1.5627,-1.5168,-1.6278,-1.6655,-1.6126,-1.5744,-1.5028,-1.3931,-1.3674,-1.3299,-1.284,-1.2526,-1.2017,-1.1072,-1.0168,0.0,0.0,0.0,0.0,0.0,0.0,0.0,0.0,0.0,0.0,0.0,0.0,0.0,0.0,0.0,0.0,0.0,0.0,0.0,-0.844,-0.8389,-0.8576,0.0,0.0,0.0,0.0,0.0,0.0,0.0,0.0,0.0,-1.2941,-1.2925,-1.2874,0.0,0.0,-1.3131,-1.3644,-1.3616,-1.3635,-1.369,-1.3717,0.0,-1.2985,-1.294,-1.2928,-1.2985,-1.3423,-1.3831,-1.4004,-1.4134,-1.4533,-1.5482,-1.5859,-1.6297,-1.718,-1.6234,-1.5337,-1.5415,-1.5365,-1.5314,-1.5324,-1.5585,-1.5853,-2.2969,-2.1518,-2.1358,-2.1401,-2.1469,-2.0798,-2.0843,-2.1362,-2.0802,-2.027,-1.9817,-1.9749,-1.8993,-1.7705,-1.7468,0.0,0.0,0.0,-1.8862,-1.9884,-1.9649,-1.9782,-2.0135,-1.971,-1.952,-1.9536,-1.9296,-1.9061,-1.8821,-1.8733,-1.7977,-1.6539,0.0,-1.5328,-1.4561,-1.5631,-1.5915,-1.5451,-1.629,-1.6607,-1.6256,-1.557,-1.4903,-1.4233,-1.38,-1.3476,-1.316,-1.302,-1.2679,-1.213,-1.125,-1.0267,0.0,0.0,0.0,0.0,0.0,0.0,0.0,0.0,0.0,0.0,0.0,-0.7333,-0.6638,0.0,0.0,0.0,-0.8098,-0.86,-0.9139,-0.9217,0.0,0.0,0.0,0.0,0.0,0.0,0.0,-1.2553,-1.2847,-1.3199,-1.3802,-1.3979,-1.3951,-1.3763,-1.3635,-1.3782,-1.4497,0.0,-1.4177,-1.433,-1.4103,-1.385,-1.3543,-1.3395,-1.3421,-1.3925,-1.4364,-1.487,-1.5377,-1.5495,-1.5817,-1.6573,-1.6888,-1.7254,-1.8139,-1.7312,-1.662,-1.6907,-1.6907,-1.6796,-1.6741,-1.6852,-1.6938,-2.4182,-2.4115,-2.3686,-2.3627,-2.3736,-2.3064,-2.2703,-2.254,-2.2202,-2.198,-2.1782,-2.178,-2.1404,-2.0727,-2.008,0.0,-2.0797,-2.0744,-2.1004,-2.1615,-2.1126,-2.0878,-2.0808,-2.0387,-2.0175,-2.0126,-2.0091,-2.0259,-2.0568,-2.0472,-2.0055,-1.9246,-1.733,-1.6281,-1.6163,-1.631,-1.6237,-1.5906,-1.6388,-1.6602,-1.6479,-1.5603,-1.5119,-1.5074,-1.4176,-1.3658,-1.3647,-1.3217,-1.2934,-1.2913,-1.2151,-1.1095,-0.9798,0.0,0.0,0.0,0.0,0.0,0.0,0.0,0.0,0.0,0.0,0.0,0.0,0.0,0.0,-0.8029,-0.8713,0.0,-1.0087,-1.0308,0.0,0.0,0.0,-1.1085,-1.1509,-1.2139,-1.2641,-1.2986,0.0,0.0,-1.4552,-1.4857,-1.4958,-1.4629,-1.4236,-1.4373,-1.5478,-1.4898,-1.4646,-1.4918,-1.4469,-1.4192,-1.4379,-1.4209,-1.4368,-1.5258,-1.5735,-1.5947,-1.6526,-1.6728,-1.6953,-1.7435,-1.7521,-1.7729,-1.8226,-1.8122,-1.8173,-1.8631,-1.8605,-1.8512,-1.8304,-1.8354,-1.8392,-2.6534,-2.6075,-2.569,-2.457,-2.3028,-2.276,-2.2481,-2.2217,-2.2095,-2.1933,-2.1795,-2.1777,-2.1669,-2.1431,-2.0866,-2.0921,-2.1455,-2.1028,-2.0939,-2.107,-2.0961,-2.0697,-2.033,-1.9927,-1.9732,-1.9726,-1.9248,-1.9114,-1.9199,-1.9055,-1.9025,-1.901,-1.8262,-1.7686,-1.7316,-1.7903,-1.7984,-1.7614,-1.7738,-1.7433,-1.6602,-1.5603,-1.5119,-1.5119,-1.4512,-1.4233,-1.4233,-1.3705,-1.3455,-1.3434,-1.2906,-1.2263,-1.1511,-0.9975,0.0,0.0,0.0,0.0,0.0,0.0,0.0,0.0,0.0,-0.9193,-0.7611,0.0,-0.9778,0.0,-0.9783,-1.0185,-1.0696,-1.1089,0.0,0.0,-1.2541,-1.2934,-1.3628,-1.3723,-1.3961,-1.4628,-1.4819,-1.5026,-1.5359,-1.5232,-1.5174,-1.5343,-1.5058,-1.487,-1.4894,-1.472,-1.462,-1.4706,-1.4598,-1.4425,-1.4247,-1.4385,-1.4698,-1.526,-1.5788,-1.6344,-1.6803,-1.6859,-1.7129,-1.7733,-1.7942,-1.8273,-1.8864,-1.908,-1.92,-1.9286,-1.8826,-1.8323,-1.8283,-1.8344,-1.8394,-2.7063,-2.6658,-2.6259,-2.5341,-2.4209,-2.4128,-2.3794,-2.3314,-2.3247,-2.3024,-2.263,-2.2915,-2.3016,-2.3039,-2.2716,-2.2627,-2.2656,-2.2372,-2.2079,-2.1794,-2.1629,-2.1262,-2.074,-2.0247,-2.0014,-1.9978,-1.959,-1.9474,-1.9643,-1.9558,-1.9585,-1.9615,-1.9456,-1.9131,-1.8596,-1.8546,-1.8427,-1.8204,-1.8196,-1.7887,-1.732,-1.63,-1.5742,-1.574,-1.5074,-1.4605,-1.443,-1.4093,-1.3752,-1.3274,-1.2981,-1.2494,-1.1703,-1.0578,-0.9591,0.0,0.0,0.0,0.0,0.0,0.0,0.0,0.0,0.0,0.0,0.0,-1.0557,-1.0648,-1.0954,-1.1396,-1.2012,-1.2451,-1.2978,-1.3662,-1.3724,-1.4022,-1.4694,-1.4641,-1.4861,-1.5582,-1.5669,-1.5725,-1.5945,-1.5779,-1.5622,-1.5764,-1.5402,-1.5146,-1.5155,-1.5019,-1.4883,-1.4883,-1.4605,-1.4303,-1.4093,-1.4706,-1.5342,-1.5925,-1.6591,-1.7216,-1.7784,-1.7891,-1.8037,-1.8375,-1.8519,-1.8731,-1.9131,-1.9285,-1.9407,-1.9344,-1.8996,-1.8733,-1.8712,-1.8839,-1.8818,-2.7011,-2.6805,-2.6398,-2.6228,-2.6213,-2.6228,-2.5696,-2.4912,-2.4897,-2.4477,-2.3789,-2.4268,-2.457,-2.4597,-2.4537,-2.4284,-2.3909,-2.3807,-2.3515,-2.2986,-2.2602,-2.2092,-2.1457,-2.0922,-2.0705,-2.0688,-2.0489,-2.0515,-2.0798,-2.0781,-2.0611,-2.0321,-2.046,-2.0213,-1.9671,-1.8824,-1.8405,-1.8405,-1.8304,-1.8291,-1.8271,-1.7217,-1.6665,-1.6638,-1.5636,-1.4926,-1.4593,-1.4373,-1.3854,-1.3051,-1.2894,-1.2436,-1.1486,-1.1015,-1.0505,0.0,-0.9501,0.0,0.0,0.0,0.0,0.0,0.0,0.0,0.0,-1.1007,-1.143,-1.1837,-1.2266,-1.2861,-1.3552,-1.4048,-1.4476,-1.4846,-1.4659,-1.4681,-1.517,-1.5274,-1.5495,-1.6132,-1.6269,-1.6318,-1.6269,-1.6216,-1.6053,-1.5737,-1.5367,-1.5201,-1.5534,-1.5296,-1.5076,-1.5125,-1.459,-1.425,-1.4474,-1.5244,-1.621,-1.6922,-1.759,-1.8375,-1.8931,-1.9065,-1.9065,-1.9065,-1.9065,-1.9065,-1.9131,-1.9131,-1.9131,-1.9131,-1.9156,-1.9201,-1.9212,-1.9333,-1.9473,-2.8618,-2.8077,-2.7643,-2.7429,-2.7315,-2.73,-2.6639,-2.5574,-2.5482,-2.5106,-2.4476,-2.4192,-2.4021,-2.4041,-2.3575,-2.3589,-2.3858,-2.3447,-2.3171,-2.3049,-2.2958,-2.2604,-2.1994,-2.1846,-2.172,-2.1648,-2.1508,-2.1217,-2.0875,-2.0795,-2.0461,-1.9902,-1.994,-1.9889,-1.98,0.0,0.0,0.0,-1.8992,-1.8672,-1.8663,-1.7518,-1.6962,-1.7045,-1.559,0.0,-1.5478,-1.419,-1.3616,-1.3907,-1.3429,0.0,0.0,0.0,0.0,0.0,0.0,0.0,0.0,0.0,0.0,0.0,-1.1211,-1.1085,-1.1124,-1.2244,-1.306,-1.3145,-1.3838,-1.4311,-1.4321,-1.5023,-1.5434,-1.539,-1.551,-1.5724,-1.6085,-1.6121,-1.6248,-1.6701,-1.6477,-1.6305,-1.6323,-1.5807,-1.5426,-1.5388,-1.4999,-1.4776,-1.4864,-1.4792,-1.4705,-1.4697,-1.4625,-1.4806,-1.5371,-1.6184,-1.6932,-1.7687,-1.8385,-1.8931,-1.9065,-1.9131,-1.9131,-1.9131,-1.9131,-1.9131,-1.9131,-1.9131,-1.9131,-1.9131,-1.9142,-1.9142,-1.9131,-1.9274,-1.9351,-2.8717,-2.8352,-2.7925,-2.7675,0.0,-2.756,-2.725,-2.6669,-2.6276,-2.5923,-2.5642,-2.534,-2.5279,-2.5279,-2.4702,-2.4447,-2.4407,-2.3864,-2.3442,-2.3163,-2.3163,-2.2786,-2.2102,-2.2047,-2.1895,-2.1811,-2.1661,-2.143,-2.1176,-2.1112,-2.079,-2.0225,-2.0225,-2.0087,-1.9811,-1.9798,-1.9798,-1.9798,-1.9422,-1.9219,-1.915,-1.8307,-1.769,-1.7476,-1.644,0.0,0.0,0.0,0.0,0.0,0.0,0.0,0.0,0.0,0.0,-1.1885,-1.168,-1.1562,-1.1553,-1.1748,-1.2158,-1.2773,-1.2774,-1.2644,-1.2361,-1.3449,-1.4205,-1.4324,-1.4935,-1.5282,-1.5324,-1.5723,-1.6046,-1.6109,-1.6187,-1.6412,-1.6794,-1.6742,-1.6858,-1.7278,-1.6765,-1.6395,-1.681,-1.6003,-1.5559,-1.5716,-1.5372,-1.5086,-1.4927,-1.468,-1.4713,-1.5133,-1.5196,-1.5471,-1.6245,-1.6941,-1.756,-1.7969,-1.8586,-1.9065,-1.9131,-1.9131,-1.9131,-1.9131,-1.9131,-1.9131,-1.9131,-1.9131,-1.9131,-1.9131,-1.9131,-1.9131,-1.9131,-1.9142,-1.9208,-2.8867,-2.8593,-2.8022,-2.7754,-2.7754,-2.767,-2.756,-2.753,-2.6892,0.0,0.0,-2.6379,-2.6329,-2.6351,-2.5785,-2.5258,-2.4791,-2.4274,-2.3793,-2.3324,-2.3254,-2.2963,-2.23,-2.2232,-2.2082,-2.1957,-2.1826,-2.1745,-2.1668,-2.1634,-2.1355,-2.092,-2.0869,-2.0577,-2.0125,-2.01,-2.0087,-2.0049,-1.972,-1.9552,-1.9552,-1.8886,-1.8307,-1.7922,-1.7288,-1.6359,-1.5188,-1.5302,-1.4608,-1.2879,-1.3167,-1.3051,-1.239,-1.2459,-1.2655,-1.2959,-1.3066,-1.3262,-1.3594,-1.3613,-1.3799,-1.4175,-1.4154,-1.3965,-1.3708,-1.4389,-1.4964,-1.5223,-1.5702,-1.6081,-1.6241,-1.643,-1.6628,-1.6891,-1.684,-1.6977,-1.7441,-1.7278,-1.7364,-1.7812,-1.7099,-1.6569,-1.709,-1.6321,-1.5806,-1.6059,-1.5847,-1.5755,-1.5517,-1.5195,-1.5062,-1.5621,-1.5833,-1.6245,-1.6932,-1.755,-1.8037,-1.824,-1.8731,-1.9065,-1.9131,-1.9131,-1.9131,-1.9131,-1.9131,-1.9131,-1.9131,-1.9131,-1.9106,-1.9178,-1.9199,-1.923,-1.9292,-1.9313,-1.9292,-3.0432,-2.9925,-2.8876,-2.8457,-2.8397,-2.7829,-2.756,-2.756,-2.6946,-2.6667,-2.66,-2.564,-2.5232,-2.519,-2.4627,-2.4287,-2.4229,-2.4008,-2.391,-2.3761,-2.3631,-2.3416,-2.3221,-2.3221,-2.3103,-2.2899,-2.2899,-2.2623,-2.226,-2.2197,-2.192,-2.143,-2.1368,-2.1317,-2.1255,-2.1255,-2.1234,-2.1046,-2.0007,-1.9426,-1.9429,-1.8672,-1.827,-1.8273,-1.7284,-1.6752,-1.6672,-1.5728,-1.4876,-1.4242,-1.415,-1.3742,-1.2899,-1.35,-1.3781,-1.3488,-1.376,-1.3941,-1.399,-1.4053,-1.4175,-1.4492,-1.4687,-1.4659,-1.4492,-1.4706,-1.5046,-1.5533,-1.6211,-1.6619,-1.6505,-1.7101,-1.745,-1.7401,-1.7705,-1.7798,-1.7706,-1.7807,-1.7806,-1.7766,-1.7191,-1.6681,-1.6547,-1.6049,-1.5787,-1.5758,-1.5899,-1.5972,-1.638,-1.6071,-1.5743,-1.5833,-1.6315,-1.7001,-1.7773,-1.791,-1.8367,-1.8865,-1.9029,-1.9173,-1.9131,-1.9131,-1.9131,-1.9131,-1.9131,-1.9075,-1.9152,-1.9131,-1.9261,-1.9551,-1.9655,-1.9758,-2.0048,-2.0141,-1.9955,-3.0964,-3.0596,-2.9591,-2.9131,-2.9116,-2.8801,-2.8667,-2.8652,-2.8388,-2.7661,-2.6724,-2.6524,-2.6073,-2.5392,-2.5116,-2.4865,-2.4563,-2.4171,-2.3936,-2.3891,-2.3832,-2.3641,-2.3403,-2.3403,-2.3271,-2.3138,-2.3125,-2.2955,-2.2735,-2.2705,-2.2472,-2.1958,-2.1644,-2.1437,-2.1356,-2.1369,-2.1275,-2.112,-2.0285,-1.9803,-1.974,-1.9,-1.8546,-1.828,-1.7763,-1.7296,-1.6884,-1.6499,-1.6033,-1.5273,-1.5467,-1.5127,-1.4114,-1.444,-1.4389,-1.3857,-1.397,-1.4238,-1.4473,-1.4809,-1.51,-1.5244,-1.5336,-1.5425,-1.5308,-1.5666,-1.5987,-1.613,-1.6824,-1.7232,-1.7093,-1.7629,-1.7926,-1.7834,-1.8018,-1.797,-1.7737,-1.7737,-1.776,-1.7635,-1.697,-1.6698,-1.6855,-1.6331,-1.6055,-1.6182,-1.6488,-1.6807,-1.7252,-1.7338,-1.7368,-1.7639,-1.7754,-1.8241,-1.9054,-1.9303,-1.9351,-1.9499,-1.9448,-1.9344,-1.9214,-1.9142,-1.9142,-1.9131,-1.9142,-1.9245,-1.9375,-1.9448,-1.9644,-1.9986,-2.012,-2.0234,-2.0379,-2.041,-2.0396,-3.1486,-3.1283,-3.0236,-2.9714,-2.9594,-2.9594,-2.9594,-2.9594,-2.9579,-2.8696,-2.7343,-2.7499,-2.7021,-2.6062,-2.5878,-2.5543,-2.5181,-2.4669,-2.4339,-2.4206,-2.4206,-2.3961,-2.3546,-2.3533,-2.3397,-2.315,-2.3125,-2.3125,-2.3125,-2.3125,-2.2924,-2.2485,-2.2058,-2.1743,-2.1629,-2.1559,-2.1502,-2.1293,-2.0797,-2.0415,-2.0185,-1.9498,-1.8996,-1.859,-1.8446,-1.7969,-1.712,-1.7383,-1.7114,-1.6199,-1.655,-1.6339,-1.5319,-1.5415,-1.5216,-1.461,-1.4671,-1.4867,-1.5148,-1.5581,-1.5852,-1.5852,-1.5916,-1.5956,-1.6067,-1.6561,-1.6871,-1.6726,-1.7265,-1.7666,-1.7642,-1.8009,-1.8181,-1.8106,-1.8197,-1.8136,-1.7814,-1.7643,-1.7578,-1.7526,-1.6966,-1.6806,-1.7024,-1.6742,-1.6509,-1.6984,-1.7351,-1.7726,-1.8133,-1.8648,-1.9065,-1.9507,-1.938,-1.9337,-2.0257,-2.0308,-2.0174,-1.9934,-2.0121,-2.0123,-1.9927,-1.9868,-1.9857,-1.991,-1.9754,-1.9834,-1.991,-1.9913,-2.01,-2.0462,-2.0586,-2.0627,-2.0783,-2.1021,-2.1119,-3.2729,-3.209,-3.0991,-3.0073,-2.9654,-2.9624,-2.9639,-2.9639,-2.9594,-2.9232,-2.8478,-2.7953,-2.7339,-2.6617,-2.6089,-2.5774,-2.5664,-2.5543,-2.5316,-2.5115,-2.5027,-2.4646,-2.4003,-2.3966,-2.364,-2.3201,-2.3138,-2.3125,-2.3125,-2.3125,-2.304,-2.3002,-2.294,-2.283,-2.2735,-2.2735,-2.2554,-2.2262,-2.1753,-2.1199,-2.071,-2.0091,-1.9707,-1.9636,-1.9167,-1.8674,-1.8115,-1.807,-1.7654,-1.6758,-1.7116,-1.6884,-1.6063,-1.6625,-1.6649,-1.5693,-1.6285,-1.6598,-1.6278,-1.6214,-1.6071,-1.5918,-1.6178,-1.6285,-1.6312,-1.7024,-1.7229,-1.7055,-1.7275,-1.7688,-1.8027,-1.8421,-1.8497,-1.8217,-1.8406,-1.8506,-1.8054,-1.7946,-1.7785,-1.7415,-1.7251,-1.7155,-1.6862,-1.6756,-1.6993,-1.7666,-1.8017,-1.8585,-1.9615,-1.9908,-2.0281,-2.1059,-2.1052,-2.0658,-2.0667,-2.0431,-2.0686,-2.0603,-2.0983,-2.1177,-2.1286,-2.1675,-2.2185,-2.079,-2.1159,-2.0973,-2.0519,-2.0369,-2.0524,-2.0907,-2.1083,-2.1229,-2.1613,-2.2179,-2.2622,-3.3387,-3.281,-3.1965,-3.1293,-3.0746,-3.0731,-3.0731,-3.0731,-3.0731,-3.0122,-2.9229,-2.8893,-2.8009,-2.6807,-2.685,-2.6526,-2.5811,-2.5623,-2.5497,-2.5307,-2.5116,-2.481,-2.4469,-2.413,-2.384,-2.3606,-2.3261,-2.3125,-2.3125,-2.3125,-2.3078,-2.2957,-2.2957,-2.2836,-2.2592,-2.2604,-2.2482,-2.2309,-2.2077,-2.1861,-2.1524,-2.0724,-2.0296,-2.0273,-2.0057,-1.9865,-1.966,-1.9624,-1.9419,-1.9053,-1.918,-1.8939,-1.817,-1.8531,-1.8363,-1.7629,-1.7361,-1.7124,-1.6762,-1.6548,-1.6365,-1.6244,-1.6711,-1.7018,-1.7037,-1.7541,-1.788,-1.7999,-1.8128,-1.8302,-1.8476,-1.8815,-1.8906,-1.8549,-1.8612,-1.846,-1.7716,-1.7635,-1.7481,-1.7066,-1.6984,-1.6984,-1.6812,-1.7131,-1.7602,-1.8078,-1.8718,-1.9737,-2.0459,-2.0837,-2.1308,-2.168,-2.2041,-2.225,-2.1964,-2.2379,-2.2391,-2.2313,-2.2436,-2.2531,-2.1973,-2.2298,-2.24,-2.121,-2.1544,-2.1593,-2.0928,-2.0845,-2.0979,-2.1406,-2.203,-2.2339,-2.2446,-2.3117,-2.3674,-3.3748,-3.3161,-3.2422,-3.191,-3.1539,-3.1467,-3.1467,-3.1467,-3.1467,-3.0923,-3.0075,-3.0038,-2.915,-2.7708,-2.7618,-2.7045,-2.6282,-2.6013,-2.5833,-2.5703,-2.5509,-2.5302,-2.5008,-2.4632,-2.4392,-2.4141,-2.3634,-2.3301,-2.3103,-2.3125,-2.3078,-2.2969,-2.2909,-2.28,-2.2482,-2.242,-2.2297,-2.2197,-2.2197,-2.2197,-2.2075,-2.1416,-2.0981,-2.0828,-2.0694,-2.061,-2.061,-2.061,-2.061,-2.061,-2.0586,-2.0413,-2.0006,-1.9948,-1.97,-1.9094,-1.8237,-1.7685,-1.751,-1.7278,-1.7159,-1.7244,-1.7745,-1.7962,-1.7977,-1.8248,-1.846,-1.8479,-1.8661,-1.8715,-1.8907,-1.8979,-1.8913,-1.8612,-1.8451,-1.8049,-1.7318,-1.7229,-1.7066,-1.673,-1.673,-1.6812,-1.7123,-1.7755,-1.847,-1.8877,-1.9747,-2.0615,-2.0857,-2.1415,-2.1731,-2.1883,-2.281,-2.332,-2.3161,-2.3408,-2.3841,-2.3895,-2.371,-2.3676,-2.2831,-2.342,-2.3534,-2.3258,-2.2773,-2.2362,-2.2273,-2.2039,-2.1702,-2.2104,-2.2617,-2.3117,-2.3265,-2.3913,-2.4564,-3.3764,-3.3093,-3.1992,-3.1582,-3.1467,-3.1467,-3.1467,-3.1467,-3.1467,-3.1437,-3.1275,-3.1306,-3.064,-2.9187,-2.8011,-2.7298,-2.7232,-2.6979,-2.6832,-2.6604,-2.6561,-2.6198,-2.5586,-2.5511,-2.5268,-2.4735,-2.4215,-2.3715,-2.3238,-2.3188,-2.3125,-2.309,-2.3007,-2.2824,-2.2616,-2.2494,-2.2359,-2.2197,-2.2197,-2.2197,-2.2197,-2.2111,-2.1824,-2.1392,-2.0911,-2.0694,-2.067,-2.0646,-2.0646,-2.0634,-2.0682,-2.0613,-2.0589,-2.0601,-2.0334,-1.9773,-1.8902,-1.8472,-1.8624,-1.8603,-1.8718,-1.8943,-1.9044,-1.9021,-1.8854,-1.9247,-1.9127,-1.8252,-1.8671,-1.893,-1.9274,-1.8975,-1.854,-1.8164,-1.7725,-1.731,-1.686,-1.6892,-1.6738,-1.6786,-1.6908,-1.7311,-1.7887,-1.8709,-1.9548,-2.0029,-2.0479,-2.0799,-2.1466,-2.1772,-2.1807,-2.2176,-2.2968,-2.3841,-2.3276,-2.3986,-2.4325,-2.4364,-2.4861,-2.5039,-2.5463,-2.5603,-2.5402,-2.5143,-2.4661,-2.4224,-2.3956,-2.3503,-2.304,-2.299,-2.3139,-2.3497,-2.3998,-2.4719,-2.53,-3.4052,-3.313,-3.2367,-3.1853,-3.1524,-3.1467,-3.1467,-3.1467,-3.1467,-3.126,-3.088,-3.0852,-3.0315,-2.9352,-2.8684,-2.8208,-2.7908,-2.7656,-2.7456,-2.731,-2.685,-2.6408,-2.6138,-2.5787,-2.5548,-2.5259,-2.477,-2.4418,-2.4255,-2.4217,-2.3891,-2.3418,-2.3319,-2.2972,-2.2505,-2.2309,-2.2247,-2.2197,-2.2197,-2.2197,-2.2197,-2.2197,-2.2101,-2.1921,-2.174,-2.162,-2.162,-2.162,-2.1632,-2.1632,-2.162,-2.1632,-2.162,-2.162,-2.1315,-2.0711,-2.0026,-1.9457,-1.9187,-1.9063,-1.9071,-1.9263,-1.9798,-1.9766,-1.9324,-1.9821,-2.0005,-1.9266,-1.9515,-2.0027,-2.0057,-1.9146,-1.8143,-1.792,-1.7622,-1.7516,-1.7407,-1.7223,-1.7159,-1.7419,-1.7891,-1.8564,-1.9227,-1.9981,-2.063,-2.0928,-2.1201,-2.1578,-2.1963,-2.2014,-2.198,-2.2553,-2.3412,-2.4192,-2.4576,-2.5158,-2.5652,-2.5721,-2.5861,-2.5627,-2.5734,-2.6025,-2.5881,-2.5133,-2.5146,-2.5087,-2.4409,-2.4108,-2.3706,-2.3779,-2.3852,-2.4227,-2.4791,-2.5453,-2.5816,-3.4738,-3.3757,-3.3022,-3.2512,-3.2098,-3.1672,-3.1467,-3.1467,-3.1467,-3.126,-3.0865,-3.0808,-3.0392,-2.9761,-2.9662,-2.9345,-2.8739,-2.8026,-2.7709,-2.7643,-2.685,-2.6521,-2.6458,-2.605,-2.592,-2.5816,-2.5361,-2.4978,-2.4833,-2.4833,-2.4503,-2.3951,-2.3811,-2.3448,-2.2916,-2.2597,-2.245,-2.2438,-2.2294,-2.2197,-2.2197,-2.2197,-2.2197,-2.2197,-2.2197,-2.2197,-2.2197,-2.2197,-2.2197,-2.2197,-2.2197,-2.2123,-2.2061,-2.1925,-2.1612,-2.1042,-2.0651,-2.0325,-1.9927,-1.9902,-2.0097,-2.0182,-2.0648,-2.069,-2.0031,-2.0621,-2.0527,-1.9923,-1.9932,-2.0487,-2.0448,-1.9479,-1.8766,-1.8906,-1.8619,-1.8488,-1.8683,-1.8472,-1.8557,-1.8854,-1.9586,-2.0152,-2.0639,-2.1325,-2.1729,-2.1809,-2.2104,-2.2496,-2.2955,-2.278,-2.268,-2.3497,-2.4162,-2.4671,-2.5016,-2.5606,-2.6094,-2.6176,-2.6176,-2.6025,-2.5955,-2.6245,-2.6164,-2.5358,-2.5004,-2.5075,-2.4862,-2.4552,-2.448,-2.4492,-2.4719,-2.4945,-2.5523,-2.6025,-2.6245,-3.5756,-3.4945,-3.3959,-3.347,-3.3223,-3.2101,-3.1511,-3.1556,-3.1497,-3.1437,-3.1349,-3.1467,-3.0984,-3.0493,-3.0673,-3.0568,-2.9608,-2.8325,-2.7617,-2.755,-2.6918,-2.6521,-2.6508,-2.6458,-2.6364,-2.6414,-2.5915,-2.5381,-2.5008,-2.4996,-2.4868,-2.4716,-2.4431,-2.4226,-2.4239,-2.3389,-2.2991,-2.2947,-2.2585,-2.2332,-2.2221,-2.233,-2.2318,-2.2258,-2.2258,-2.2234,-2.2197,-2.2197,-2.2197,-2.2185,-2.2123,-2.2061,-2.1785,-2.1481,-2.1088,-2.0891,-2.0875,-2.0906,-2.0904,-2.125,-2.1637,-2.1869,-2.2064,-2.185,-2.149,-2.1471,-2.1098,-2.0216,-2.0127,-2.0191,-2.032,-2.027,-2.0337,-2.0976,-2.0467,-2.0207,-2.0428,-2.0587,-2.0568,-2.0726,-2.1286,-2.1792,-2.2103,-2.2523,-2.3012,-2.3012,-2.3151,-2.3429,-2.4097,-2.4006,-2.4104,-2.47,-2.5058,-2.5278,-2.555,-2.5758,-2.6119,-2.6396,-2.6327,-2.6245,-2.6176,-2.6396,-2.6396,-2.5734,-2.5804,-2.5816,-2.5581,-2.5288,-2.53,-2.537,-2.5523,-2.5594,-2.6025,-2.6383,-2.6383,-3.6427,-3.5764,-3.5062,-3.4462,-3.3983,-3.2747,-3.2213,-3.2153,-3.1749,-3.1467,-3.1467,-3.1467,-3.1249,-3.0955,-3.1028,-3.0821,-3.0251,-2.8889,-2.8182,-2.8038,-2.7471,-2.6905,-2.6589,-2.6521,-2.6521,-2.644,-2.6308,-2.6145,-2.5975,-2.5925,-2.5774,-2.5249,-2.4975,-2.4578,-2.414,-2.3736,-2.352,-2.3513,-2.3376,-2.3317,-2.3284,-2.328,-2.3111,-2.2775,-2.2739,-2.2582,-2.2234,-2.2197,-2.2061,-2.1925,-2.1851,-2.1827,-2.18,-2.1751,-2.1649,-2.1632,-2.1653,-2.1627,-2.1487,-2.18,-2.2149,-2.2346,-2.2513,-2.2275,-2.1735,-2.1863,-2.1634,-2.0809,-2.1192,-2.1819,-2.215,-2.2511,-2.2276,-2.1315,-2.0903,-2.0987,-2.1404,-2.1447,-2.1658,-2.2256,-2.2524,-2.2843,-2.3223,-2.366,-2.3732,-2.3794,-2.397,-2.4393,-2.4829,-2.5195,-2.5245,-2.5701,-2.5829,-2.5911,-2.599,-2.6066,-2.6131,-2.627,-2.627,-2.6327,-2.6396,-2.6396,-2.6327,-2.6396,-2.6465,-2.6396,-2.6164,-2.6025,-2.5955,-2.6025,-2.6094,-2.6233,-2.6452,-2.6521,-2.6521,-3.7508,-3.6881,-3.6001,-3.5435,-3.4861,-3.3257,-3.2488,-3.237,-3.1777,-3.1467,-3.1467,-3.1467,-3.1409,-3.1219,-3.1132,-3.0955,-3.0568,-2.9407,-2.8762,-2.8363,-2.7484,-2.6905,-2.6521,-2.6521,-2.6521,-2.6521,-2.6521,-2.6521,-2.6521,-2.644,-2.6264,-2.584,-2.5531,-2.5178,-2.4664,-2.428,-2.4049,-2.4032,-2.3863,-2.3806,-2.3803,-2.3811,-2.3656,-2.3376,-2.3268,-2.3035,-2.2595,-2.2583,-2.2317,-2.1855,-2.1764,-2.1804,-2.1934,-2.1946,-2.1947,-2.1931,-2.2095,-2.2055,-2.1909,-2.2302,-2.2575,-2.263,-2.2689,-2.2531,-2.1918,-2.2166,-2.1828,-2.168,-2.206,-2.2749,-2.335,-2.3681,-2.3406,-2.2609,-2.231,-2.2283,-2.2678,-2.2765,-2.2921,-2.3501,-2.3597,-2.3766,-2.4039,-2.4524,-2.4597,-2.4617,-2.5142,-2.578,-2.6177,-2.6468,-2.6652,-2.6735,-2.6784,-2.667,-2.6491,-2.6317,-2.6156,-2.6131,-2.6131,-2.627,-2.6339,-2.6408,-2.6396,-2.6396,-2.6465,-2.6465,-2.6302,-2.6314,-2.6314,-2.6452,-2.6571,-2.6521,-2.6533,-2.6521,-2.6521,-3.8874,-3.8127,-3.6861,-3.6265,-3.5824,-3.3614,-3.2578,-3.2298,-3.1769,-3.1467,-3.1467,-3.1467,-3.1422,-3.1276,-3.1161,-3.1014,-3.0687,-2.9946,-2.9219,-2.8441,-2.7471,-2.6782,-2.6533,-2.6521,-2.6521,-2.6521,-2.6521,-2.6521,-2.6521,-2.6521,-2.6521,-2.6389,-2.6032,-2.5886,-2.5607,-2.4933,-2.4566,-2.4494,-2.4177,-2.3996,-2.3989,-2.3965,-2.3908,-2.3845,-2.3809,-2.3616,-2.3128,-2.296,-2.2608,-2.1905,-2.182,-2.1924,-2.2058,-2.209,-2.1985,-2.1848,-2.2138,-2.2302,-2.2444,-2.2684,-2.2936,-2.2861,-2.266,-2.2392,-2.2317,-2.2035,-2.206,-2.2278,-2.2532,-2.2925,-2.3629,-2.3939,-2.4041,-2.4361,-2.4043,-2.4104,-2.4433,-2.4358,-2.4519,-2.4529,-2.4625,-2.47,-2.4882,-2.5452,-2.5692,-2.6014,-2.6524,-2.7325,-2.7758,-2.7891,-2.8126,-2.7989,-2.7692,-2.7232,-2.6993,-2.6636,-2.6392,-2.6181,-2.6218,-2.6445,-2.6414,-2.6377,-2.6696,-2.6728,-2.6615,-2.6565,-2.6615,-2.6741,-2.6716,-2.6703,-2.6735,-2.6596,-2.6622,-2.6722,-2.6647,-3.9172,-3.892,-3.8101,-3.7198,-3.619,-3.4514,-3.3322,-3.2432,-3.1835,-3.1569,-3.1539,-3.1467,-3.1497,-3.1319,-3.1292,-3.1058,-3.0775,-3.0097,-2.9623,-2.9233,-2.8376,-2.7351,-2.6658,-2.6521,-2.6521,-2.6521,-2.6521,-2.6521,-2.6521,-2.6521,-2.6521,-2.6465,-2.6119,-2.5923,-2.5791,-2.5378,-2.5119,-2.5095,-2.4987,-2.4867,-2.4879,-2.4871,-2.467,-2.433,-2.4326,-2.3931,-2.3262,-2.265,-2.2309,-2.206,-2.1788,-2.1893,-2.2193,-2.2259,-2.238,-2.2593,-2.2695,-2.2805,-2.2826,-2.2925,-2.2916,-2.2777,-2.2628,-2.2553,-2.2402,-2.2176,-2.2265,-2.2673,-2.287,-2.3246,-2.3795,-2.4167,-2.4416,-2.4509,-2.454,-2.4625,-2.4625,-2.5105,-2.5421,-2.5495,-2.5997,-2.6174,-2.6329,-2.6494,-2.673,-2.6894,-2.7557,-2.8211,-2.856,-2.8929,-2.9046,-2.8786,-2.8462,-2.7851,-2.7341,-2.6971,-2.6615,-2.6375,-2.6425,-2.6661,-2.6569,-2.6395,-2.6926,-2.7385,-2.7205,-2.7092,-2.7256,-2.7406,-2.7256,-2.7092,-2.7268,-2.7344,-2.7143,-2.7105,-2.6961,-3.9288,-3.9239,-3.8532,-3.7633,-3.6577,-3.5253,-3.4131,-3.3212,-3.2566,-3.2307,-3.2324,-3.2317,-3.2273,-3.2243,-3.2094,-3.1929,-3.1596,-3.0568,-3.008,-2.9771,-2.8641,-2.763,-2.6973,-2.6714,-2.6521,-2.6521,-2.6521,-2.6521,-2.6521,-2.6521,-2.6521,-2.6465,-2.6188,-2.598,-2.591,-2.5618,-2.5382,-2.53,-2.5312,-2.5312,-2.5312,-2.5312,-2.518,-2.4903,-2.4785,-2.4467,-2.3619,-2.2883,-2.2451,-2.2343,-2.211,-2.2106,-2.2531,-2.2608,-2.2728,-2.3001,-2.3001,-2.299,-2.3001,-2.2927,-2.2852,-2.2703,-2.2542,-2.2509,-2.2505,-2.2415,-2.247,-2.32,-2.3421,-2.3681,-2.4074,-2.4405,-2.4519,-2.454,-2.4775,-2.502,-2.502,-2.5495,-2.5902,-2.6329,-2.6741,-2.7139,-2.7139,-2.7476,-2.7637,-2.7879,-2.8462,-2.887,-2.9106,-2.9521,-2.9704,-2.9365,-2.895,-2.8375,-2.7927,-2.7555,-2.7271,-2.6937,-2.7018,-2.7192,-2.7142,-2.6905,-2.7301,-2.7798,-2.772,-2.767,-2.7808,-2.7883,-2.7783,-2.7758,-2.8021,-2.8082,-2.7817,-2.7691,-2.7523,-3.9325,-3.9222,-3.8576,-3.7845,-3.6997,-3.5766,-3.4832,-3.4194,-3.3638,-3.3449,-3.3419,-3.3517,-3.3365,-3.3466,-3.2874,-3.2945,-3.2761,-3.1501,-3.0949,-3.0219,-2.9043,-2.7921,-2.7801,-2.682,-2.6533,-2.6521,-2.6521,-2.6521,-2.6521,-2.6521,-2.6452,-2.6396,-2.6201,-2.605,-2.5828,-2.5618,-2.5453,-2.5312,-2.5312,-2.5312,-2.5312,-2.5312,-2.5264,-2.524,-2.5004,-2.4791,-2.4195,-2.3554,-2.3116,-2.3097,-2.2667,-2.2866,-2.322,-2.3276,-2.3287,-2.335,-2.3361,-2.3213,-2.3065,-2.299,-2.2757,-2.2724,-2.2454,-2.2384,-2.2751,-2.2731,-2.2964,-2.3711,-2.3857,-2.4043,-2.4385,-2.454,-2.454,-2.4615,-2.5253,-2.5746,-2.5902,-2.5986,-2.64,-2.7151,-2.7313,-2.7395,-2.7557,-2.8039,-2.8621,-2.8621,-2.9118,-2.9365,-2.9456,-2.9611,-2.9779,-2.9691,-2.9288,-2.8875,-2.8512,-2.8089,-2.7928,-2.7717,-2.7913,-2.8074,-2.8186,-2.8086,-2.8074,-2.8222,-2.8298,-2.8273,-2.8235,-2.8247,-2.8298,-2.8348,-2.8536,-2.8472,-2.8429,-2.8404,-2.8252,-3.959,-3.9325,-3.9106,-3.8381,-3.7236,-3.6344,-3.5621,-3.5084,-3.4415,-3.425,-3.4195,-3.415,-3.3814,-3.3369,-3.3231,-3.2941,-3.2903,-3.2367,-3.2202,-3.1818,-3.0024,-2.9196,-2.8691,-2.7446,-2.6546,-2.6533,-2.6521,-2.6521,-2.6521,-2.6465,-2.6396,-2.6258,-2.6119,-2.5828,-2.5688,-2.5535,-2.5382,-2.5312,-2.5312,-2.5312,-2.5382,-2.537,-2.537,-2.5312,-2.4897,-2.4611,-2.4515,-2.4131,-2.4158,-2.4447,-2.4186,-2.4066,-2.448,-2.4659,-2.4671,-2.4515,-2.4131,-2.3841,-2.3768,-2.3246,-2.295,-2.2947,-2.2889,-2.2924,-2.3057,-2.3119,-2.3308,-2.3764,-2.3888,-2.4115,-2.4542,-2.454,-2.4625,-2.4861,-2.5421,-2.6235,-2.673,-2.7476,-2.7891,-2.8211,-2.8712,-2.9209,-2.9118,-2.9118,-2.9456,-2.9534,-2.9611,-2.9779,-2.9779,-2.9779,-2.9779,-2.9779,-2.9654,-2.9187,-2.8822,-2.8548,-2.8561,-2.8462,-2.8612,-2.8787,-2.8913,-2.8863,-2.8737,-2.8825,-2.8988,-2.8925,-2.8775,-2.9038,-2.9164,-2.9114,-2.9013,-2.9088,-2.9074,-2.9098,-2.9157,-3.9642,-3.9342,-3.9288,-3.8665,-3.7777,-3.7298,-3.678,-3.6201,-3.5835,-3.568,-3.5581,-3.5298,-3.4946,-3.4551,-3.4046,-3.3753,-3.3571,-3.3179,-3.2838,-3.224,-3.0793,-3.0247,-3.0017,-2.8381,-2.713,-2.6665,-2.6521,-2.6521,-2.6465,-2.6408,-2.627,-2.6201,-2.5992,-2.584,-2.5618,-2.5453,-2.5394,-2.5312,-2.5312,-2.5382,-2.5652,-2.5763,-2.5869,-2.5849,-2.537,-2.5146,-2.5217,-2.485,-2.5146,-2.5499,-2.5417,-2.5134,-2.5229,-2.5312,-2.5312,-2.517,-2.4564,-2.412,-2.3841,-2.3411,-2.2992,-2.2949,-2.3071,-2.3311,-2.3462,-2.3515,-2.3732,-2.4053,-2.4209,-2.4386,-2.4988,-2.5094,-2.5179,-2.5841,-2.6494,-2.7232,-2.7718,-2.8211,-2.8712,-2.904,-2.9456,-2.9624,-2.9779,-2.9779,-2.9779,-2.9624,-2.9624,-2.9779,-2.9779,-2.9779,-2.9779,-2.9779,-2.9779,-2.9576,-2.9145,-2.8969,-2.9071,-2.911,-2.9263,-2.9377,-2.9465,-2.934,-2.9164,-2.9289,-2.939,-2.9453,-2.9402,-2.9704,-2.9754,-2.9578,-2.9529,-2.9643,-2.9771,-2.9845,-2.9918,-3.9694,-3.9288,-3.9288,-3.8924,-3.8394,-3.8193,-3.7878,-3.7513,-3.7371,-3.715,-3.7212,-3.6676,-3.6161,-3.5814,-3.5045,-3.475,-3.4412,-3.3849,-3.3166,-3.2869,-3.1568,-3.1259,-3.101,-2.9767,-2.8294,-2.7005,-2.6747,-2.6697,-2.6433,-2.6258,-2.6131,-2.6062,-2.591,-2.5688,-2.5606,-2.5535,-2.5465,-2.5312,-2.5312,-2.5594,-2.602,-2.6133,-2.6257,-2.6321,-2.6126,-2.5918,-2.5861,-2.5652,-2.5791,-2.6483,-2.6564,-2.6258,-2.5959,-2.5664,-2.5652,-2.5664,-2.4909,-2.4406,-2.4203,-2.3611,-2.3048,-2.2951,-2.321,-2.3576,-2.3846,-2.3991,-2.4146,-2.4343,-2.4488,-2.4808,-2.5663,-2.5663,-2.6163,-2.6905,-2.7891,-2.8383,-2.8542,-2.8542,-2.9131,-2.9534,-2.9702,-2.9779,-2.9779,-2.9779,-2.9779,-2.9779,-2.9779,-2.9779,-2.9779,-2.9779,-2.9779,-2.9779,-2.9779,-2.9779,-2.9462,-2.9334,-2.9384,-2.9616,-2.9756,-2.9871,-2.9998,-2.9986,-2.9834,-2.968,-2.9704,-2.9704,-2.9704,-2.9741,-2.9779,-2.9869,-2.9908,-2.9897,-3.0152,-3.0533,-3.067,-3.9642,-3.9288,-3.9288,-3.9259,-3.9007,-3.8477,-3.8477,-3.8775,-3.822,-3.7925,-3.7741,-3.7498,-3.6585,-3.5808,-3.5338,-3.4868,-3.4403,-3.3848,-3.3703,-3.3674,-3.2659,-3.2233,-3.2083,-3.1207,-3.0106,-2.8843,-2.7902,-2.7157,-2.6457,-2.6213,-2.6247,-2.5832,-2.5737,-2.5584,-2.5513,-2.5382,-2.5382,-2.5465,-2.5407,-2.57,-2.6214,-2.6435,-2.6438,-2.6514,-2.6414,-2.6333,-2.6346,-2.6289,-2.6564,-2.7242,-2.7323,-2.7527,-2.7554,-2.7293,-2.7126,-2.684,-2.5773,-2.5157,-2.5086,-2.3984,-2.3641,-2.3829,-2.396,-2.4106,-2.4271,-2.4395,-2.4416,-2.4542,-2.47,-2.4946,-2.5663,-2.6069,-2.6318,-2.7058,-2.7971,-2.8633,-2.8712,-2.9052,-2.9468,-2.9779,-2.9779,-2.9779,-2.9779,-2.9779,-2.9779,-2.9779,-2.9779,-2.9779,-2.9779,-2.9779,-2.9779,-2.9779,-2.9779,-2.9779,-2.9664,-2.9651,-2.9651,-2.9922,-3.0165,-3.0317,-3.0419,-3.0545,-3.0482,-3.0203,-2.9921,-2.9767,-2.9767,-2.9779,-2.9869,-2.9869,-3.0011,-3.0152,-3.052,-3.0885,-3.0973,-3.9642,-3.9342,-3.9288,-3.9288,-3.9222,-3.8924,-3.8941,-3.9189,-3.8731,-3.8466,-3.8172,-3.7658,-3.6968,-3.6239,-3.5459,-3.492,-3.4432,-3.4153,-3.4138,-3.4153,-3.3514,-3.3209,-3.3211,-3.2443,-3.1664,-3.0773,-2.9821,-2.844,-2.7167,-2.6927,-2.6756,-2.6456,-2.6117,-2.5792,-2.5624,-2.5444,-2.5584,-2.57,-2.5844,-2.6193,-2.7011,-2.7235,-2.7313,-2.7191,-2.7134,-2.7095,-2.6973,-2.6973,-2.7275,-2.7834,-2.7968,-2.8294,-2.8556,-2.8621,-2.8438,-2.8205,-2.7147,-2.6202,-2.5946,-2.487,-2.4395,-2.4022,-2.4221,-2.4376,-2.4467,-2.4529,-2.47,-2.502,-2.5263,-2.5757,-2.7058,-2.7139,-2.7637,-2.8303,-2.8882,-2.904,-2.9197,-2.9546,-2.9702,-2.9779,-2.9779,-2.9779,-2.9779,-2.9779,-2.9779,-2.9779,-2.9779,-2.9779,-2.9779,-2.9779,-2.9779,-2.9779,-2.9779,-2.9779,-2.9779,-2.9702,-2.9998,-3.0266,-3.0633,-3.0771,-3.0983,-3.1119,-3.0908,-3.0558,-3.0279,-3.0075,-2.9779,-2.9779,-2.9869,-3.0011,-3.0228,-3.052,-3.0947,-3.1233,-3.1394,-3.9694,-3.9448,-3.9325,-3.9288,-3.9288,-3.9272,-3.9239,-3.9148,-3.8914,-3.8678,-3.8504,-3.7695,-3.7136,-3.6583,-3.5664,-3.4787,-3.4414,-3.4385,-3.4385,-3.4312,-3.3935,-3.3964,-3.3893,-3.3397,-3.2579,-3.2222,-3.1819,-3.0419,-2.8562,-2.8069,-2.7815,-2.7507,-2.6895,-2.6615,-2.6674,-2.6525,-2.6383,-2.6511,-2.6766,-2.7237,-2.8025,-2.8623,-2.8729,-2.8425,-2.8439,-2.8224,-2.7952,-2.7897,-2.8134,-2.8451,-2.8621,-2.883,-2.9327,-2.9444,-2.9425,-2.9333,-2.8417,-2.7335,-2.6459,-2.5678,-2.4843,-2.4231,-2.4343,-2.4498,-2.4615,-2.4786,-2.5105,-2.5663,-2.608,-2.6648,-2.7891,-2.8383,-2.8803,-2.9378,-2.9624,-2.9779,-2.9702,-2.9779,-2.9779,-2.9779,-2.9779,-2.9779,-2.9856,-2.9779,-2.9779,-2.9779,-2.9779,-2.9779,-2.9779,-2.9779,-2.9779,-2.9779,-2.9702,-2.9702,-2.9702,-2.9702,-3.005,-3.0607,-3.1057,-3.1355,-3.1563,-3.1769,-3.1489,-3.1281,-3.0934,-3.0722,-3.0292,-2.9998,-3.0279,-3.0495,-3.0583,-3.0934,-3.1636,-3.1856,-3.1942,-3.9849,-3.9798,-3.9448,-3.9288,-3.9288,-3.9288,-3.9094,-3.886,-3.8805,-3.8455,-3.8075,-3.7822,-3.7131,-3.6085,-3.5096,-3.4549,-3.4414,-3.4414,-3.4414,-3.437,-3.4269,-3.4254,-3.4399,-3.4303,-3.3585,-3.324,-3.3017,-3.1629,-2.9987,-2.9438,-2.9028,-2.8643,-2.8401,-2.8333,-2.8176,-2.7948,-2.8426,-2.844,-2.8447,-2.8754,-2.9251,-2.9659,-2.9658,-2.9533,-2.9297,-2.9131,-2.8926,-2.8843,-2.9,-2.9118,-2.917,-2.9457,-2.9842,-2.98,-3.0099,-2.9776,-2.8837,-2.7257,-2.6589,-2.5858,-2.5031,-2.4461,-2.4509,-2.454,-2.4786,-2.5348,-2.5746,-2.5746,-2.6483,-2.7395,-2.8383,-2.8542,-2.8961,-2.9456,-2.9779,-2.9779,-2.9779,-2.9779,-2.9779,-2.9779,-2.9779,-2.9856,-2.9934,-2.9856,-2.9779,-2.9779,-2.9779,-2.9856,-2.9998,-3.0216,-3.0292,-3.0355,-3.0432,-3.0355,-3.0432,-3.0279,-3.0633,-3.1106,-3.1549,-3.2074,-3.2362,-3.2577,-3.2349,-3.2146,-3.1796,-3.1294,-3.0784,-3.0633,-3.0908,-3.1193,-3.1415,-3.1915,-3.2621,-3.2692,-3.2635,-4.0271,-3.9849,-3.9468,-3.9288,-3.9288,-3.9288,-3.9094,-3.8821,-3.8639,-3.8303,-3.7943,-3.7711,-3.7029,-3.5921,-3.5096,-3.4668,-3.4481,-3.4414,-3.4414,-3.4414,-3.4414,-3.4414,-3.4414,-3.4414,-3.4088,-3.3937,-3.377,-3.3282,-3.1856,-3.0791,-3.0322,-2.9939,-2.9413,-2.9113,-2.9318,-2.889,-2.8977,-2.9175,-2.9451,-2.9669,-2.9944,-2.9984,-2.9907,-2.9837,-2.9654,-2.9469,-2.9398,-2.9287,-2.947,-2.9653,-2.9771,-3.0032,-3.0451,-3.0546,-3.0514,-3.0316,-2.9782,-2.8593,-2.7252,-2.6147,-2.5395,-2.4692,-2.454,-2.47,-2.5274,-2.5997,-2.6812,-2.7302,-2.7637,-2.8303,-2.8961,-2.9209,-2.9456,-2.9702,-2.9779,-2.9779,-2.9779,-2.9779,-2.9779,-2.9779,-2.9856,-3.0139,-3.0292,-3.0216,-3.0279,-3.0495,-3.0558,-3.0709,-3.0996,-3.1368,-3.1368,-3.1281,-3.1294,-3.1294,-3.1368,-3.1368,-3.1723,-3.2132,-3.2349,-3.2804,-3.3241,-3.3381,-3.3157,-3.272,-3.229,-3.1796,-3.1281,-3.1402,-3.1829,-3.2033,-3.2321,-3.289,-3.3463,-3.3671,-3.3768,-4.0645,-4.0121,-3.9625,-3.9432,-3.9432,-3.9272,-3.8985,-3.8711,-3.8359,-3.8091,-3.7727,-3.727,-3.6599,-3.5924,-3.5266,-3.4668,-3.4414,-3.4414,-3.4414,-3.4414,-3.4414,-3.4414,-3.4414,-3.4414,-3.4317,-3.4274,-3.4045,-3.3644,-3.3017,-3.2177,-3.1469,-3.1206,-3.0611,-3.0307,-3.0103,-3.0066,-3.0039,-3.0383,-3.0605,-3.0694,-3.0777,-3.0533,-3.0307,-3.0201,-2.9992,-2.9849,-2.9778,-2.9758,-3.0032,-3.0228,-3.0346,-3.0542,-3.0856,-3.0732,-3.0594,-3.0355,-2.9796,-2.9024,-2.7945,-2.7,-2.5913,-2.5189,-2.4615,-2.4861,-2.5663,-2.6648,-2.7476,-2.8211,-2.87,-2.9131,-2.9624,-2.9714,-2.9702,-2.9702,-2.9779,-2.9779,-2.9856,-3.0062,-3.0279,-3.0343,-3.0558,-3.0859,-3.0934,-3.0646,-3.0784,-3.1132,-3.1341,-3.1563,-3.1856,-3.216,-3.2087,-3.1869,-3.1869,-3.1869,-3.1869,-3.2087,-3.2577,-3.2946,-3.3157,-3.3451,-3.3825,-3.3894,-3.3673,-3.3241,-3.2875,-3.3003,-3.3003,-3.2834,-3.2749,-3.2961,-3.3255,-3.3754,-3.4177,-3.4461,-3.461,-4.0977,-4.0884,-4.0171,-3.9849,-3.9781,-3.9131,-3.8711,-3.8448,-3.8075,-3.7801,-3.7464,-3.66,-3.6103,-3.5666,-3.4984,-3.4481,-3.4414,-3.4414,-3.4414,-3.4414,-3.4414,-3.4414,-3.4346,-3.4317,-3.4177,-3.3926,-3.3891,-3.3618,-3.3269,-3.2704,-3.2286,-3.2042,-3.1629,-3.1829,-3.1775,-3.1428,-3.1387,-3.1618,-3.168,-3.1653,-3.1582,-3.1381,-3.1222,-3.1048,-3.0952,-3.0856,-3.0856,-3.0712,-3.0686,-3.0803,-3.079,-3.0803,-3.0885,-3.0748,-3.052,-3.0203,-2.9651,-2.9015,-2.845,-2.7879,-2.7313,-2.608,-2.5253,-2.5263,-2.6235,-2.6812,-2.7557,-2.8542,-2.9131,-2.9534,-2.9702,-2.9779,-2.9779,-2.9856,-2.9908,-2.9922,-3.0152,-3.0696,-3.0908,-3.097,-3.1193,-3.1489,-3.1856,-3.1649,-3.1649,-3.1928,-3.229,-3.2519,-3.2434,-3.2662,-3.2448,-3.2376,-3.2304,-3.2232,-3.2232,-3.2519,-3.3101,-3.3311,-3.352,-3.3811,-3.4182,-3.4113,-3.4045,-3.4045,-3.3825,-3.4235,-3.4505,-3.4002,-3.3768,-3.3891,-3.4177,-3.4543,-3.4758,-3.4986,-3.5133,-4.1363,-4.1318,-4.0789,-4.032,-3.9849,-3.9365,-3.8882,-3.8391,-3.8075,-3.7743,-3.7405,-3.6399,-3.5859,-3.5629,-3.4893,-3.4414,-3.4414,-3.4414,-3.4414,-3.4414,-3.4414,-3.4414,-3.4346,-3.4167,-3.3959,-3.3762,-3.3587,-3.3283,-3.2955,-3.2759,-3.2516,-3.2314,-3.2169,-3.2169,-3.2169,-3.2169,-3.2169,-3.2155,-3.2069,-3.199,-3.1843,-3.1545,-3.1352,-3.1272,-3.1136,-3.0986,-3.096,-3.0973,-3.0986,-3.0986,-3.0986,-3.0911,-3.0836,-3.0609,-3.0457,-3.0228,-2.9586,-2.9353,-2.8961,-2.8383,-2.7302,-2.6987,-2.6329,-2.6412,-2.7151,-2.8143,-2.8791,-2.9378,-2.9546,-2.9779,-2.9779,-2.9779,-2.9779,-2.9934,-3.0037,-3.0101,-3.0441,-3.1005,-3.1676,-3.1836,-3.1942,-3.2146,-3.2434,-3.272,-3.272,-3.2791,-3.3171,-3.3465,-3.3325,-3.3241,-3.3171,-3.3115,-3.3101,-3.3171,-3.3171,-3.3395,-3.3548,-3.3673,-3.3811,-3.4113,-3.4332,-3.4332,-3.4264,-3.4481,-3.4549,-3.4601,-3.4654,-3.4721,-3.4721,-3.4706,-3.4839,-3.5133,-3.5344,-3.5489,-3.5489,-4.1604,-4.1542,-4.1053,-4.0531,-3.9918,-3.9454,-3.8849,-3.8262,-3.7918,-3.77,-3.7405,-3.6383,-3.5859,-3.5629,-3.4879,-3.4414,-3.4414,-3.4414,-3.4414,-3.4414,-3.4414,-3.4414,-3.4264,-3.4031,-3.3768,-3.3599,-3.3241,-3.2929,-3.2595,-3.2557,-3.2386,-3.2241,-3.2169,-3.2169,-3.2169,-3.2169,-3.2169,-3.2155,-3.2028,-3.1809,-3.1763,-3.1514,-3.1277,-3.1198,-3.1061,-3.0986,-3.0986,-3.0986,-3.0986,-3.0986,-3.0911,-3.0849,-3.0698,-3.0533,-3.0394,-3.0152,-2.9998,-2.9934,-2.9456,-2.8554,-2.7557,-2.7487,-2.7069,-2.7476,-2.8383,-2.9131,-2.9118,-2.9702,-2.9779,-2.9779,-2.9779,-2.9779,-2.9779,-2.9856,-3.0406,-3.0631,-3.0952,-3.1409,-3.2187,-3.2715,-3.2874,-3.3087,-3.3241,-3.3534,-3.3534,-3.3534,-3.3756,-3.3977,-3.3977,-3.3977,-3.4045,-3.4045,-3.4045,-3.4196,-3.4346,-3.4128,-3.3977,-3.4045,-3.4113,-3.4196,-3.4414,-3.4414,-3.4414,-3.4414,-3.4549,-3.475,-3.4883,-3.4935,-3.5148,-3.5374,-3.5439,-3.5424,-3.5424,-3.5489,-3.5489,-4.1587,-4.1498,-4.0896,-4.0334,-3.9834,-3.9176,-3.8557,-3.7943,-3.77,-3.7539,-3.7405,-3.6383,-3.5989,-3.5741,-3.4955,-3.4563,-3.4481,-3.4481,-3.4414,-3.4414,-3.4414,-3.4414,-3.4264,-3.3977,-3.3589,-3.3269,-3.2917,-3.2516,-3.2268,-3.2327,-3.2241,-3.2241,-3.2169,-3.2169,-3.2169,-3.2169,-3.2169,-3.2155,-3.2001,-3.1823,-3.1596,-3.1447,-3.1224,-3.1061,-3.1061,-3.0986,-3.0986,-3.0986,-3.0986,-3.0986,-3.0836,-3.0773,-3.0685,-3.0381,-3.0152,-3.0088,-2.9946,-2.9792,-2.9702,-2.887,-2.8542,-2.8383,-2.7891,-2.781,-2.8383,-2.8791,-2.9118,-2.9702,-2.9779,-2.9779,-2.9779,-2.9856,-2.9921,-3.0203,-3.0758,-3.1375,-3.1688,-3.2208,-3.3072,-3.3424,-3.3882,-3.4264,-3.4264,-3.4264,-3.4264,-3.4264,-3.4346,-3.4414,-3.4414,-3.4414,-3.4414,-3.4414,-3.4414,-3.4414,-3.4414,-3.4414,-3.4346,-3.4414,-3.4414,-3.4414,-3.4414,-3.4414,-3.4414,-3.4414,-3.4616,-3.4802,-3.5016,-3.5228,-3.5359,-3.5504,-3.5504,-3.5489,-3.5489,-3.5489,-3.5489,-4.1363,-4.0943,-4.0689,-3.9969,-3.9032,-3.8778,-3.8334,-3.787,-3.7642,-3.748,-3.7345,-3.6693,-3.6457,-3.6114,-3.5487,-3.492,-3.4854,-3.4481,-3.4414,-3.4414,-3.4414,-3.4414,-3.4196,-3.3839,-3.3395,-3.3129,-3.2704,-3.2372,-3.2182,-3.2169,-3.2169,-3.2169,-3.2169,-3.2169,-3.2169,-3.2169,-3.2169,-3.2155,-3.2028,-3.1796,-3.1636,-3.1413,-3.1176,-3.0986,-3.0986,-3.0986,-3.0986,-3.0986,-3.0986,-3.0986,-3.0849,-3.0761,-3.0609,-3.0305,-3.0152,-3.0011,-2.9792,-2.9792,-2.9779,-2.9456,-2.9365,-2.904,-2.8633,-2.8462,-2.9209,-2.9378,-2.9546,-2.9702,-2.9779,-2.9779,-2.9779,-3.0343,-3.0545,-3.0908,-3.1462,-3.2222,-3.2707,-3.3422,-3.4074,-3.4088,-3.4346,-3.4414,-3.4414,-3.4414,-3.4414,-3.4414,-3.4414,-3.4414,-3.4414,-3.4414,-3.4414,-3.4414,-3.4414,-3.4414,-3.4414,-3.4414,-3.4414,-3.4414,-3.4414,-3.4414,-3.4414,-3.4414,-3.4414,-3.4414,-3.4683,-3.4935,-3.5082,-3.5279,-3.5424,-3.5489,-3.5489,-3.5489,-3.5489,-3.5489,-3.5489,-4.11,-4.0577,-4.0169,-3.9423,-3.8574,-3.8518,-3.8197,-3.7786,-3.7583,-3.748,-3.7405,-3.6968,-3.6677,-3.6428,-3.5876,-3.5299,-3.5169,-3.4854,-3.4467,-3.4467,-3.4414,-3.4414,-3.4196,-3.3701,-3.3409,-3.3058,-3.2646,-3.2169,-3.2169,-3.2169,-3.2169,-3.2169,-3.2169,-3.2169,-3.2169,-3.2169,-3.2169,-3.2141,-3.2028,-3.1809,-3.1622,-3.1378,-3.1215,-3.1088,-3.0986,-3.0986,-3.0986,-3.0986,-3.0986,-3.0986,-3.0911,-3.0761,-3.052,-3.0305,-3.0152,-2.9856,-2.9779,-2.9779,-2.9779,-2.9779,-2.9702,-2.9624,-2.9209,-2.9287,-2.9714,-2.9702,-2.9702,-2.9779,-2.9779,-2.9779,-2.9934,-3.0558,-3.1044,-3.1328,-3.2046,-3.2806,-3.3255,-3.3894,-3.4346,-3.4346,-3.4414,-3.4414,-3.4414,-3.4414,-3.4414,-3.4414,-3.4414,-3.4414,-3.4414,-3.4414,-3.4414,-3.4414,-3.4414,-3.4414,-3.4414,-3.4414,-3.4414,-3.4414,-3.4414,-3.4414,-3.4414,-3.4414,-3.4414,-3.4481,-3.475,-3.4949,-3.5148,-3.5279,-3.5424,-3.5489,-3.5489,-3.5489,-3.5489,-3.5489,-3.5489,-4.0819,-4.0414,-3.9335,-3.8761,-3.8446,-3.8423,-3.8042,-3.7539,-3.748,-3.748,-3.748,-3.6984,-3.6829,-3.6656,-3.6183,-3.5721,-3.5365,-3.5234,-3.4854,-3.4534,-3.4467,-3.4414,-3.4128,-3.3632,-3.3311,-3.2974,-3.2646,-3.2169,-3.2169,-3.2169,-3.2169,-3.2169,-3.2169,-3.2169,-3.2169,-3.2169,-3.2169,-3.2141,-3.1928,-3.1736,-3.1622,-3.1378,-3.1202,-3.1075,-3.0986,-3.0986,-3.0986,-3.0986,-3.0986,-3.0911,-3.0849,-3.0609,-3.0457,-3.0228,-3.0011,-2.9856,-2.9779,-2.9779,-2.9779,-2.9779,-2.9779,-2.9779,-2.9702,-2.9792,-2.9792,-2.9779,-2.9779,-2.9779,-2.9779,-2.9869,-3.0011,-3.0633,-3.118,-3.1842,-3.2635,-3.3073,-3.3437,-3.3825,-3.4264,-3.4414,-3.4414,-3.4414,-3.4414,-3.4414,-3.4414,-3.4414,-3.4414,-3.4414,-3.4414,-3.4414,-3.4414,-3.4414,-3.4414,-3.4414,-3.4414,-3.4414,-3.4414,-3.4414,-3.4414,-3.4414,-3.4414,-3.4414,-3.4481,-3.4549,-3.4817,-3.5016,-3.5294,-3.5359,-3.5489,-3.5489,-3.5489,-3.5489,-3.5489,-3.5489,-3.5489,-4.0218,-3.9335,-3.8816,-3.8311,-3.7844,-3.7786,-3.7685,-3.748,-3.748,-3.748,-3.748,-3.7345,-3.7207,-3.7219,-3.6738,-3.6383,-3.6006,-3.5623,-3.5234,-3.4854,-3.4534,-3.4264,-3.3908,-3.3479,-3.3199,-3.282,-3.2492,-3.2169,-3.2169,-3.2169,-3.2169,-3.2169,-3.2169,-3.2169,-3.2169,-3.2169,-3.2182,-3.2069,-3.1888,-3.1723,-3.1508,-3.1264,-3.1088,-3.0999,-3.0986,-3.0986,-3.0986,-3.0986,-3.0986,-3.0986,-3.0773,-3.0609,-3.0444,-3.0228,-3.0011,-2.9856,-2.9779,-2.9779,-2.9779,-2.9779,-2.9779,-2.9779,-2.9779,-2.9779,-2.9779,-2.9779,-2.9779,-2.9779,-2.9856,-2.9946,-3.0432,-3.1057,-3.1696,-3.242,-3.3157,-3.3673,-3.3894,-3.4045,-3.4414,-3.4414,-3.4414,-3.4414,-3.4414,-3.4414,-3.4414,-3.4414,-3.4414,-3.4414,-3.4414,-3.4414,-3.4414,-3.4414,-3.4414,-3.4414,-3.4414,-3.4414,-3.4414,-3.4414,-3.4414,-3.4414,-3.4414,-3.4414,-3.4481,-3.4683,-3.4949,-3.5162,-3.5439,-3.5504,-3.5489,-3.5489,-3.5489,-3.5489,-3.5489,-3.5489,-3.5489,-3.9817,-3.9032,-3.8446,-3.7985,-3.7492,-3.718,-3.7196,-3.7433,-3.748,-3.748,-3.748,-3.748,-3.748,-3.7449,-3.715,-3.6831,-3.6585,-3.6148,-3.5623,-3.4824,-3.4639,-3.4099,-3.3687,-3.3255,-3.2947,-3.2623,-3.2393,-3.2169,-3.2169,-3.2169,-3.2169,-3.2169,-3.2169,-3.2169,-3.2109,-3.2036,-3.205,-3.1909,-3.1783,-3.1636,-3.1455,-3.1237,-3.1088,-3.0986,-3.0986,-3.0986,-3.0986,-3.0986,-3.0986,-3.0911,-3.0698,-3.0546,-3.0305,-3.0088,-2.9934,-2.9792,-2.9779,-2.9779,-2.9779,-2.9779,-2.9779,-2.9779,-2.9779,-2.9779,-2.9779,-2.9779,-2.9779,-2.9779,-2.9856,-3.0088,-3.0859,-3.1636,-3.2349,-3.3087,-3.3673,-3.4264,-3.4346,-3.4346,-3.4414,-3.4414,-3.4414,-3.4414,-3.4414,-3.4414,-3.4414,-3.4414,-3.4414,-3.4414,-3.4414,-3.4414,-3.4414,-3.4414,-3.4414,-3.4414,-3.4414,-3.4414,-3.4414,-3.4414,-3.4414,-3.4414,-3.4414,-3.4481,-3.4549,-3.4817,-3.5082,-3.5294,-3.5504,-3.5504,-3.5489,-3.5489,-3.5489,-3.5489,-3.5489,-3.5489,-3.5489,-3.9527,-3.9226,-3.8254,-3.7743,-3.7445,-3.6864,-3.6927,-3.7433,-3.748,-3.748,-3.748,-3.748,-3.748,-3.748,-3.7405,-3.7165,-3.6907,-3.6523,-3.5816,-3.4662,-3.4543,-3.407,-3.3339,-3.2903,-3.2763,-3.2579,-3.2393,-3.2169,-3.2169,-3.2169,-3.2169,-3.2169,-3.2169,-3.2109,-3.1963,-3.1963,-3.189,-3.1643,-3.1649,-3.1563,-3.1408,-3.1264,-3.1215,-3.1075,-3.0986,-3.0986,-3.0986,-3.0986,-3.0911,-3.0773,-3.0622,-3.047,-3.0164,-2.9946,-2.9869,-2.9792,-2.9779,-2.9779,-2.9779,-2.9779,-2.9779,-2.9779,-2.9779,-2.9779,-2.9779,-2.9779,-2.9779,-2.9856,-3.0011,-3.0495,-3.1281,-3.1988,-3.2791,-3.3451,-3.4031,-3.4332,-3.4414,-3.4414,-3.4414,-3.4414,-3.4414,-3.4414,-3.4414,-3.4414,-3.4414,-3.4414,-3.4414,-3.4414,-3.4414,-3.4414,-3.4414,-3.4414,-3.4414,-3.4414,-3.4414,-3.4414,-3.4414,-3.4414,-3.4414,-3.4481,-3.4481,-3.4549,-3.4616,-3.4883,-3.5228,-3.5359,-3.5489,-3.5489,-3.5489,-3.5489,-3.5489,-3.5489,-3.5489,-3.5489,-3.5489,-3.8781,-3.8827,-3.796,-3.7524,-3.7464,-3.7306,-3.7275,-3.748,-3.748,-3.7464,-3.748,-3.748,-3.748,-3.748,-3.748,-3.7361,-3.7225,-3.6785,-3.607,-3.5204,-3.4728,-3.3865,-3.3058,-3.2704,-3.2533,-3.2345,-3.2228,-3.2169,-3.2169,-3.2169,-3.2169,-3.2169,-3.2169,-3.2109,-3.189,-3.189,-3.1743,-3.1434,-3.1368,-3.1429,-3.1272,-3.1136,-3.0999,-3.0986,-3.0986,-3.0986,-3.0986,-3.0986,-3.0986,-3.0911,-3.0596,-3.0305,-2.9946,-2.9869,-2.9792,-2.9779,-2.9779,-2.9779,-2.9779,-2.9779,-2.9779,-2.9779,-2.9779,-2.9779,-2.9779,-2.9779,-2.9856,-2.9998,-3.0355,-3.0983,-3.1636,-3.2434,-3.3157,-3.3742,-3.4249,-3.4332,-3.4414,-3.4414,-3.4414,-3.4414,-3.4414,-3.4414,-3.4414,-3.4414,-3.4414,-3.4414,-3.4414,-3.4414,-3.4414,-3.4414,-3.4414,-3.4414,-3.4414,-3.4414,-3.4414,-3.4414,-3.4414,-3.4414,-3.4414,-3.4481,-3.4549,-3.475,-3.4883,-3.5096,-3.5294,-3.5424,-3.5489,-3.5489,-3.5489,-3.5489,-3.5489,-3.5489,-3.5489,-3.5489,-3.5489,-3.8311,-3.8372,-3.7705,-3.7223,-3.7017,-3.669,-3.6722,-3.699,-3.7022,-3.718,-3.7464,-3.748,-3.748,-3.748,-3.748,-3.748,-3.7421,-3.7029,-3.6102,-3.5255,-3.4662,-3.3659,-3.3058,-3.2574,-3.2372,-3.2241,-3.2169,-3.2169,-3.2169,-3.2169,-3.2169,-3.2182,-3.2182,-3.2109,-3.189,-3.1743,-3.1656,-3.1198,-3.1233,-3.1246,-3.1211,-3.1061,-3.0986,-3.0986,-3.0986,-3.0986,-3.0986,-3.0986,-3.0911,-3.0761,-3.0457,-3.0152,-2.9869,-2.9792,-2.9779,-2.9779,-2.9779,-2.9779,-2.9779,-2.9779,-2.9779,-2.9779,-2.9779,-2.9779,-2.9779,-2.9779,-2.9779,-2.9921,-3.0482,-3.1119,-3.1842,-3.2648,-3.3381,-3.4031,-3.4264,-3.4346,-3.4414,-3.4414,-3.4414,-3.4414,-3.4414,-3.4414,-3.4414,-3.4414,-3.4414,-3.4414,-3.4414,-3.4414,-3.4414,-3.4414,-3.4414,-3.4414,-3.4414,-3.4414,-3.4414,-3.4414,-3.4414,-3.4414,-3.4414,-3.4481,-3.4616,-3.4949,-3.5213,-3.5294,-3.5359,-3.5424,-3.5489,-3.5489,-3.5489,-3.5489,-3.5489,-3.5489,-3.5489,-3.5489,-3.5489,-3.7783,-3.7678,-3.728,-3.6814,-3.6258,-3.5679,-3.5758,-3.6248,-3.6406,-3.6742,-3.7263,-3.7433,-3.748,-3.748,-3.748,-3.748,-3.7361,-3.7029,-3.6087,-3.516,-3.4846,-3.3851,-3.3115,-3.2588,-3.2574,-3.2557,-3.2454,-3.2282,-3.2169,-3.2169,-3.2182,-3.2182,-3.2182,-3.2169,-3.189,-3.1803,-3.185,-3.1522,-3.1373,-3.1237,-3.1149,-3.1061,-3.0986,-3.0986,-3.0986,-3.0986,-3.0986,-3.0986,-3.0911,-3.0685,-3.0457,-3.0088,-2.9856,-2.9779,-2.9779,-2.9779,-2.9779,-2.9779,-2.9779,-2.9779,-2.9779,-2.9779,-2.9779,-2.9779,-2.9779,-2.9779,-2.9779,-3.0062,-3.0545,-3.1254,-3.206,-3.2932,-3.3742,-3.4182,-3.4332,-3.4414,-3.4414,-3.4414,-3.4414,-3.4414,-3.4414,-3.4414,-3.4414,-3.4414,-3.4414,-3.4414,-3.4414,-3.4414,-3.4414,-3.4414,-3.4414,-3.4414,-3.4414,-3.4414,-3.4414,-3.4414,-3.4414,-3.4414,-3.4414,-3.4563,-3.4765,-3.5082,-3.5279,-3.5294,-3.5359,-3.5489,-3.5489,-3.5489,-3.5489,-3.5489,-3.5489,-3.5489,-3.5489,-3.5489,-3.5489,-3.6438,-3.5714,-3.6125,-3.6037,-3.5609,-3.5426,-3.5473,-3.5663,-3.6169,-3.6495,-3.6766,-3.7263,-3.748,-3.748,-3.7329,-3.727,-3.727,-3.7013,-3.5961,-3.4846,-3.5059,-3.4177,-3.3506,-3.3311,-3.3367,-3.3227,-3.2941,-3.2736,-3.2687,-3.2444,-3.2241,-3.2386,-3.2889,-3.2903,-3.2646,-3.2704,-3.2761,-3.2241,-3.187,-3.1862,-3.169,-3.1516,-3.1061,-3.0986,-3.0986,-3.0986,-3.0986,-3.0986,-3.0986,-3.0836,-3.0533,-3.0164,-2.9934,-2.9779,-2.9779,-2.9779,-2.9779,-2.9779,-2.9779,-2.9779,-2.9779,-2.9779,-2.9779,-2.9779,-2.9779,-2.9779,-2.9856,-3.0011,-3.0646,-3.1502,-3.2376,-3.3465,-3.4264,-3.4332,-3.4414,-3.4414,-3.4414,-3.4414,-3.4414,-3.4414,-3.4414,-3.4414,-3.4414,-3.4414,-3.4414,-3.4414,-3.4414,-3.4414,-3.4414,-3.4414,-3.4414,-3.4414,-3.4414,-3.4414,-3.4414,-3.4414,-3.4414,-3.4414,-3.4481,-3.4616,-3.4883,-3.5228,-3.5359,-3.5359,-3.5424,-3.5489,-3.5489,-3.5489,-3.5489,-3.5489,-3.5489,-3.5489,-3.5489,-3.5489,-3.5489]}]]